[[[{"header":{"parameterUnit":"kt","parameterCategory":2,"dx":1,"dy":1,"la1":29.587661999999998,"la2":31.0,"lo1":-88.76705300000003,"lo2":-86.6583820000003,"nx":115,"ny":88,"refTime":"2022-10-06T12:00:00:Z","depth":0,"parameterNumber":1,"parameterNumberName":"U-component_of_WINDS"},"data":[12.0173,11.9537,11.9574,11.917,11.858,11.8506,11.8469,11.8469,11.8506,11.8469,11.858,11.8617,11.9096,12.0415,11.9793,11.9537,11.9427,11.9022,11.8099,11.7196,11.722,11.6961,11.6664,11.6335,11.5744,11.5434,11.5078,11.427,11.3653,11.2761,11.1995,11.1826,11.1075,11.0955,11.1467,11.1432,11.1327,11.1397,11.1432,11.1432,11.1116,11.08,11.0905,11.0483,10.9812,10.9635,10.9564,10.9635,10.9671,10.9537,10.939,10.8906,10.8556,10.8255,10.8291,10.7998,10.7705,10.7461,10.7265,10.6875,10.7123,10.7307,10.6938,10.6896,10.6918,10.7125,10.66,10.5454,10.5173,10.4515,10.4698,10.5077,10.5338,10.5993,10.6677,10.8259,10.9738,10.923,10.8708,10.8932,10.8963,10.8291,10.786,10.8099,10.8131,10.8676,10.874,10.9103,11.0539,11.057,11.0476,11.0664,11.0915,10.9643,10.8356,10.8484,10.7973,10.6796,10.6034,10.5682,10.4703,10.2977,10.2219,10.216,10.1486,10.0477,10.0295,10.0295,10.0295,10.0295,10.0295,10.0295,10.0295,10.0244,10.0041,12.0466,12.0393,12.0356,12.0283,12.021,12.0173,12.0137,12.0137,12.021,12.0086,12.0064,12.0064,12.0283,12.0502,12.0393,12.0393,12.0072,11.9358,11.9175,11.8497,11.7712,11.6974,11.6438,11.6151,11.5851,11.557,11.5184,11.4401,11.3542,11.288,11.2376,11.23,11.1921,11.1502,11.1537,11.1607,11.1781,11.1991,11.1991,11.1956,11.1467,11.0905,11.0631,11.0539,11.0342,11.0272,11.0469,11.0751,11.1172,11.0614,10.9496,10.8368,10.7411,10.7021,10.6924,10.6875,10.6582,10.6407,10.6329,10.6119,10.6399,10.6627,10.6036,10.5777,10.5632,10.5655,10.5575,10.5144,10.5111,10.5011,10.534,10.5684,10.5945,10.6319,10.7085,10.8054,10.9421,11.0413,11.0381,11.0507,11.0055,10.9294,10.9389,10.9897,11.035,11.1135,11.1457,11.1675,11.1737,11.1581,11.1385,11.1457,11.2203,11.1893,11.0831,11.042,10.9925,10.8446,10.6448,10.6073,10.5539,10.4391,10.3555,10.2894,10.1693,10.0629,10.0295,10.0295,10.0295,10.0295,10.0295,10.0244,10.0142,9.9787,9.9665,12.0539,12.0539,12.0539,12.0539,12.0539,12.0539,12.0539,12.0539,12.0539,12.0539,12.0539,12.0539,12.0539,12.0539,12.0539,12.0262,11.9479,11.9152,11.8522,11.7714,11.6648,11.6425,11.6189,11.5819,11.5629,11.535,11.4909,11.4385,11.367,11.3018,11.2845,11.3018,11.2583,11.2374,11.2791,11.2791,11.286,11.2722,11.2583,11.2359,11.2165,11.1701,11.1288,11.0188,10.9955,10.9573,10.9697,10.9383,10.9659,10.9254,10.8657,10.7228,10.6467,10.605,10.6065,10.5967,10.5645,10.5371,10.553,10.5491,10.5336,10.599,10.5924,10.614,10.5857,10.5575,10.5487,10.529,10.5224,10.5404,10.5782,10.6011,10.6239,10.6533,10.715,10.7505,10.842,11.0023,11.0884,11.126,11.1634,11.0947,11.0978,11.1488,11.2913,11.3535,11.1737,11.1572,11.2234,11.2459,11.2141,11.2203,11.3443,11.3535,11.279,11.2279,11.156,10.9282,10.6877,10.6448,10.5999,10.5379,10.4332,10.2431,10.1031,10.0629,10.0507,10.0295,10.0295,10.0759,10.0648,10.0313,9.9665,9.9258,9.8441,12.0539,12.0539,12.0539,12.0539,12.0539,12.0539,12.0539,12.0539,12.0539,12.0539,12.0488,12.0248,12.0045,11.9841,11.9587,11.9043,11.8412,11.7937,11.7036,11.6597,11.6027,11.5876,11.5745,11.5187,11.4975,11.4759,11.4318,11.3826,11.3605,11.3294,11.3121,11.3552,11.3225,11.3018,11.3483,11.3518,11.3483,11.3363,11.2715,11.1897,11.1595,11.1476,11.1201,11.0275,10.9685,10.9251,10.907,10.8704,10.8672,10.8133,10.754,10.6695,10.5997,10.5718,10.5586,10.5522,10.4975,10.5067,10.5122,10.501,10.5178,10.567,10.6079,10.637,10.6417,10.6124,10.583,10.5618,10.5552,10.5764,10.6026,10.6221,10.6467,10.676,10.7136,10.7136,10.72,10.8963,11.0759,11.1852,11.2944,11.3006,11.2821,11.3626,11.5174,11.4993,11.3589,11.3435,11.4691,11.4084,11.3894,11.3755,11.4939,11.5344,11.4729,11.402,11.2819,11.0726,10.8887,10.7502,10.6301,10.6152,10.5878,10.3147,10.1603,10.206,10.221,10.1341,10.11,10.153,10.1525,10.1165,10.0515,9.9608,9.7969,12.0539,12.0488,12.0539,12.0539,12.0539,12.0539,12.0437,12.0539,12.0335,12.0488,12.0146,11.9348,11.8941,11.8789,11.8179,11.762,11.7158,11.7036,11.6641,11.6869,11.5698,11.5292,11.5023,11.4521,11.4267,11.4013,11.3775,11.3724,11.3639,11.3536,11.3483,11.369,11.3552,11.3552,11.3724,11.3724,11.342,11.3097,11.1977,11.1182,11.0543,10.9548,10.8636,10.9162,10.9297,10.9146,10.9231,10.95,10.9937,10.8912,10.7872,10.6419,10.5652,10.5038,10.456,10.4364,10.4763,10.4962,10.5095,10.5044,10.5371,10.5764,10.5943,10.6189,10.6352,10.6221,10.6467,10.6304,10.6109,10.6304,10.65,10.6663,10.6728,10.6923,10.7298,10.7441,10.8227,11.0066,11.211,11.4229,11.5229,11.556,11.55,11.6785,11.8432,11.887,11.8403,11.852,11.8288,11.6458,11.584,11.5315,11.6361,11.7027,11.6233,11.4966,11.3873,11.2776,11.1377,10.9928,10.8616,10.7883,10.7288,10.5999,10.4694,10.4665,10.3705,10.2965,10.2417,10.252,10.2167,10.1929,10.1336,10.0469,9.9058,11.9449,11.9551,12.0197,12.0539,12.0539,12.0539,11.9602,11.8484,11.8433,11.8382,11.8332,11.7889,11.7737,11.7636,11.7178,11.662,11.6096,11.6045,11.574,11.535,11.4502,11.4521,11.4369,11.3928,11.3724,11.3724,11.3724,11.3724,11.3724,11.3724,11.3724,11.3724,11.3724,11.3724,11.3623,11.342,11.2997,11.1896,11.1135,11.0712,11.0391,11.0004,10.9197,10.9043,10.8925,10.8469,10.7997,10.8027,10.8209,10.7812,10.7034,10.6055,10.5757,10.5029,10.4565,10.4631,10.4961,10.5224,10.5502,10.5568,10.596,10.6435,10.6663,10.6598,10.6598,10.6533,10.676,10.6973,10.6793,10.6728,10.689,10.7052,10.7052,10.7052,10.7408,10.7745,10.9485,11.1385,11.3742,11.6159,11.7377,11.7875,11.8839,12.0199,12.1143,12.0858,12.0858,12.0801,11.942,11.8293,11.7953,11.7326,11.8032,11.8137,11.6999,11.5667,11.4313,11.305,11.2278,11.1798,11.1139,11.023,10.9649,10.8784,10.7742,10.5863,10.4296,10.3857,10.3637,10.2948,10.2557,10.3039,10.3014,10.1926,10.0707,11.8296,11.8347,11.9145,11.9536,11.9536,11.9486,11.8637,11.7128,11.7026,11.7026,11.6975,11.6757,11.6604,11.6518,11.6213,11.5588,11.5216,11.4861,11.4318,11.4115,11.3978,11.3775,11.3724,11.3724,11.3724,11.3724,11.3724,11.3724,11.3724,11.3724,11.3724,11.3724,11.3724,11.3403,11.32,11.2946,11.149,11.0389,10.9983,10.9526,10.929,10.9054,10.8782,10.8293,10.8173,10.7887,10.743,10.7325,10.7079,10.693,10.6257,10.5764,10.5732,10.524,10.5109,10.5174,10.552,10.5716,10.6156,10.6254,10.65,10.6908,10.7006,10.7103,10.7103,10.7038,10.7038,10.7071,10.7006,10.689,10.7038,10.6798,10.6544,10.6493,10.659,10.7322,10.874,11.0884,11.3596,11.6219,11.9335,11.9825,12.0343,12.157,12.1853,12.1882,12.1598,12.0858,12.0142,12.0426,12.0222,11.9561,11.9477,11.7896,11.6781,11.5848,11.4541,11.3538,11.3206,11.2796,11.2281,11.1954,11.1791,11.1028,10.976,10.7802,10.5479,10.5106,10.5224,10.4398,10.3718,10.4446,10.4736,10.3751,10.2606,11.7077,11.7077,11.7128,11.7229,11.7214,11.7178,11.7041,11.6975,11.6889,11.6874,11.6874,11.574,11.5471,11.5267,11.4419,11.4029,11.4013,11.3962,11.3826,11.3724,11.3724,11.3724,11.3724,11.3724,11.3724,11.3724,11.3724,11.3724,11.3724,11.3724,11.3724,11.3724,11.3556,11.2777,11.1862,11.1117,11.0017,10.9153,10.8729,10.8424,10.8068,10.7629,10.7662,10.756,10.7459,10.7306,10.7205,10.7071,10.6728,10.6417,10.6091,10.5633,10.5306,10.5027,10.5371,10.5862,10.6598,10.6695,10.689,10.6858,10.7071,10.7071,10.7001,10.7001,10.69,10.6595,10.6392,10.6392,10.6341,10.6595,10.6747,10.629,10.5833,10.6114,10.6114,10.7687,10.8896,11.1322,11.4114,11.6993,12.0199,12.1371,12.1768,12.1995,12.2363,12.2363,12.2107,12.1485,12.1425,12.1862,12.0931,12.0374,11.8951,11.7524,11.6571,11.5585,11.4593,11.424,11.3985,11.3732,11.3519,11.3141,11.2858,11.2312,11.1485,10.9943,10.7514,10.6655,10.6498,10.6201,10.5457,10.5805,10.5586,10.4791,10.4595,11.5994,11.608,11.6721,11.7026,11.6823,11.5451,11.4842,11.4842,11.4842,11.4842,11.4842,11.4537,11.4369,11.4267,11.3928,11.3724,11.3724,11.3724,11.3724,11.3724,11.3724,11.3724,11.3724,11.3724,11.3724,11.3724,11.3724,11.3724,11.3724,11.3724,11.3657,11.3454,11.3031,11.176,11.0439,10.9626,10.8747,10.8036,10.7814,10.751,10.7256,10.7103,10.7103,10.7103,10.7103,10.7103,10.7103,10.7071,10.7006,10.6825,10.6695,10.6616,10.6551,10.642,10.6467,10.6598,10.7006,10.7038,10.7052,10.7052,10.6951,10.6951,10.629,10.6068,10.5935,10.5731,10.5426,10.5274,10.4868,10.4918,10.4918,10.4766,10.4924,10.6166,10.7144,11.0041,11.1768,11.4479,11.723,11.9508,12.2107,12.2248,12.2531,12.2672,12.2555,12.2555,12.2613,12.2587,12.2473,12.1568,12.0521,11.9416,11.8078,11.6799,11.581,11.5228,11.5054,11.4937,11.4721,11.4479,11.421,11.3625,11.3541,11.331,11.2174,11.0835,10.9038,10.7495,10.6525,10.6189,10.6391,10.6399,10.6212,10.6263,10.6437,11.4861,11.4912,11.5639,11.5909,11.5705,11.4283,11.3724,11.3724,11.3724,11.3724,11.3724,11.3724,11.3724,11.3724,11.3724,11.3724,11.3724,11.3724,11.3724,11.3724,11.3724,11.3724,11.3724,11.3724,11.3724,11.3724,11.3724,11.3724,11.3674,11.32,11.3234,11.2929,11.1964,11.0541,10.9135,10.817,10.7916,10.7256,10.7103,10.7103,10.7103,10.7103,10.7103,10.7103,10.7103,10.7103,10.7103,10.7103,10.7071,10.7038,10.7006,10.6973,10.6973,10.6973,10.7038,10.7071,10.7071,10.7103,10.7052,10.6646,10.6544,10.6443,10.6239,10.6239,10.5985,10.5223,10.502,10.5122,10.5528,10.5426,10.4614,10.4563,10.4759,10.6,10.7328,11.0304,11.3133,11.6024,11.8753,12.0801,12.2559,12.2672,12.2672,12.2672,12.2206,12.209,12.1713,12.1799,12.1305,12.0405,11.9591,11.8311,11.7179,11.6043,11.5286,11.5112,11.4937,11.4821,11.4821,11.4562,11.4271,11.3824,11.3405,11.2366,11.1972,11.1553,10.9902,10.8308,10.6995,10.6291,10.6745,10.6891,10.6792,10.6989,10.7342,11.3775,11.3724,11.3826,11.3826,11.3928,11.3724,11.3724,11.3724,11.3724,11.3724,11.3724,11.3724,11.3724,11.3724,11.3724,11.3724,11.3724,11.3724,11.3724,11.3724,11.3724,11.3724,11.3724,11.3724,11.3724,11.3724,11.3505,11.3403,11.3521,11.254,11.2167,11.176,11.0744,10.9542,10.8627,10.7611,10.7154,10.7103,10.7103,10.7103,10.7103,10.7103,10.7103,10.7103,10.7103,10.7103,10.7103,10.7103,10.7103,10.7103,10.7103,10.7103,10.7103,10.7103,10.6951,10.69,10.69,10.6849,10.6849,10.5884,10.5579,10.5579,10.5884,10.6239,10.6747,10.6697,10.6138,10.5376,10.5985,10.6341,10.629,10.5884,10.5884,10.6383,10.6918,10.8955,11.1669,11.4503,11.7289,11.9738,12.1314,12.2672,12.2672,12.2497,12.1945,12.1538,12.0956,12.0289,11.9649,11.8893,11.8195,11.7206,11.6333,11.5403,11.5112,11.4937,11.4705,11.4763,11.4472,11.3748,11.3341,11.3076,11.2262,11.1215,11.0731,11.0365,10.9693,10.9021,10.7908,10.688,10.7286,10.7342,10.7342,10.7342,10.7342,11.3724,11.3724,11.3724,11.3724,11.3724,11.3724,11.3724,11.3724,11.3724,11.3724,11.3724,11.3724,11.3724,11.3724,11.3724,11.3724,11.3724,11.3724,11.3724,11.3724,11.3724,11.3724,11.3724,11.3674,11.3471,11.3521,11.3149,11.2659,11.2574,11.1473,11.0965,11.0337,10.9135,10.8272,10.756,10.7256,10.7103,10.7103,10.7103,10.7103,10.7103,10.7103,10.7103,10.7001,10.7001,10.6951,10.6849,10.6747,10.6849,10.6849,10.69,10.7001,10.7052,10.7001,10.6646,10.6156,10.575,10.5426,10.4969,10.4512,10.4614,10.4918,10.5223,10.5426,10.5426,10.5172,10.5477,10.5223,10.5071,10.4715,10.4594,10.5318,10.5771,10.7442,10.7986,11.0114,11.2606,11.4842,11.7259,11.8957,12.0858,12.2672,12.2613,12.2439,12.212,12.2062,12.1305,12.0374,11.9125,11.7761,11.7031,11.6101,11.5345,11.5054,11.4763,11.4298,11.3832,11.3832,11.3341,11.2759,11.212,11.1796,11.1182,11.0193,10.9495,10.9029,10.8655,10.8223,10.7783,10.7342,10.7342,10.7342,10.7342,10.7342,10.7342,11.3724,11.3724,11.3724,11.3724,11.3724,11.3724,11.3724,11.3724,11.3724,11.3724,11.3724,11.3724,11.3724,11.3724,11.3724,11.3724,11.3724,11.3724,11.3724,11.3724,11.3623,11.3454,11.3098,11.2997,11.2844,11.2251,11.1828,11.1489,11.1388,11.0337,10.9745,10.8983,10.7967,10.7205,10.7103,10.7154,10.7103,10.7103,10.7103,10.7103,10.7103,10.7103,10.69,10.6544,10.641,10.629,10.5935,10.5833,10.5801,10.575,10.5731,10.563,10.5579,10.5598,10.5325,10.4868,10.4766,10.4512,10.4035,10.312,10.3038,10.3699,10.441,10.4969,10.6138,10.563,10.5172,10.5071,10.5376,10.568,10.5491,10.599,10.6475,10.8237,11.0401,11.2856,11.517,11.7262,11.9219,11.9248,12.0801,12.2531,12.2497,12.2236,12.2236,12.2322,12.148,12.0433,11.8427,11.6888,11.5783,11.4795,11.4213,11.3864,11.296,11.2902,11.296,11.2611,11.2178,11.1389,11.0658,11.0368,11.0018,10.9146,10.8356,10.8215,10.7924,10.7458,10.7342,10.7342,10.7342,10.7342,10.7342,10.7342,10.7342,11.3623,11.3471,11.342,11.342,11.3607,11.3623,11.3623,11.3724,11.3724,11.3724,11.3724,11.3724,11.3724,11.3724,11.3724,11.3724,11.3724,11.3623,11.3505,11.3454,11.3454,11.2726,11.2269,11.1862,11.1557,11.0779,11.0406,11.0304,11.005,10.9135,10.8119,10.7256,10.7256,10.7154,10.7103,10.7103,10.7103,10.7103,10.6798,10.6798,10.6798,10.6544,10.6189,10.5426,10.5172,10.4785,10.3902,10.4105,10.4207,10.4258,10.4309,10.4258,10.441,10.4359,10.4156,10.3801,10.3648,10.3394,10.2866,10.1799,10.1209,10.2175,10.3547,10.4969,10.6189,10.6697,10.7001,10.6697,10.6443,10.6646,10.7489,10.8848,10.868,10.972,11.0743,11.325,11.54,11.7937,11.9565,11.9652,12.0629,12.2136,12.2555,12.1247,12.1014,12.0898,12.0142,11.8195,11.6481,11.5609,11.4504,11.3457,11.2992,11.2352,11.1331,11.1215,11.1531,11.1331,11.1007,11.0251,10.9403,10.8996,10.8822,10.8123,10.7832,10.7575,10.7342,10.7342,10.7342,10.7342,10.7342,10.7342,10.7342,10.7342,10.7342,11.2759,11.1269,11.1219,11.1727,11.2523,11.2523,11.2946,11.3623,11.3623,11.3674,11.3724,11.3623,11.3623,11.3674,11.3572,11.3471,11.3572,11.2879,11.2624,11.2218,11.176,11.1219,11.0914,11.0812,11.066,11.0423,10.9491,10.9135,10.878,10.817,10.7459,10.7103,10.7103,10.7103,10.7103,10.7001,10.6951,10.6849,10.6189,10.5833,10.568,10.5122,10.4614,10.4309,10.4156,10.4055,10.3851,10.373,10.3699,10.3648,10.3547,10.3445,10.3496,10.3394,10.314,10.2581,10.248,10.2226,10.1413,10.0986,10.06,10.1057,10.2175,10.3902,10.5376,10.5833,10.6036,10.7052,10.7103,10.7103,10.7265,10.775,10.8932,11.0023,11.1385,11.2913,11.4872,11.7849,11.9767,12.0486,12.157,12.2672,12.1275,12.0142,11.9533,11.9358,11.7962,11.5958,11.4911,11.4213,11.305,11.1855,11.1506,11.1273,11.0775,11.0658,11.0276,11.016,10.9811,10.9229,10.8414,10.7924,10.789,10.7716,10.7458,10.7342,10.7342,10.7342,10.7342,10.7342,10.7342,10.7342,10.7342,10.7342,10.7342,11.154,11.0423,11.0423,11.0812,11.1354,11.1405,11.1727,11.2201,11.2286,11.2302,11.2286,11.2251,11.2251,11.215,11.2286,11.2302,11.215,11.1625,11.1405,11.1201,11.0812,11.0169,10.9796,10.961,10.9255,10.8848,10.8322,10.8068,10.7865,10.7408,10.7103,10.7103,10.7103,10.7052,10.7103,10.6595,10.6392,10.6036,10.5325,10.4715,10.4563,10.4105,10.3597,10.3089,10.3038,10.2683,10.2327,10.2276,10.2276,10.2276,10.2276,10.2276,10.2276,10.2226,10.2073,10.1311,10.1311,10.1006,10.0447,10.0346,10.0346,10.06,10.1463,10.253,10.3699,10.4766,10.5884,10.7001,10.7103,10.7103,10.7136,10.8118,10.9091,11.101,11.4047,11.607,11.8491,11.9969,12.0143,12.1511,12.2555,12.0926,11.9471,11.8455,11.7788,11.7148,11.5551,11.4097,11.3399,11.2585,11.1447,11.0368,11.0193,11.0051,11.0018,10.9786,10.9229,10.8938,10.8647,10.8356,10.7517,10.7342,10.7458,10.74,10.7342,10.7342,10.7342,10.7342,10.7342,10.7342,10.7342,10.7342,10.7342,10.7342,10.7342,11.0017,10.9999,10.9999,11.0118,11.0169,11.0202,11.0304,11.0474,11.0575,11.0423,11.0677,11.0525,11.0575,11.0626,11.0626,11.0525,11.0423,11.0321,11.0202,11.0152,10.9847,10.9237,10.8594,10.8442,10.8036,10.7611,10.7306,10.7103,10.7205,10.7205,10.7103,10.7001,10.6951,10.6849,10.6544,10.5648,10.5223,10.5052,10.434,10.375,10.3547,10.3261,10.2632,10.2073,10.1768,10.1514,10.0854,10.0752,10.0701,10.0549,10.0447,10.0346,10.0295,10.0295,10.0295,10.0295,10.0295,10.0295,10.0346,10.0295,10.0295,10.0498,10.1108,10.1667,10.2378,10.3597,10.5172,10.6646,10.6849,10.6798,10.7422,10.882,11.1182,11.2874,11.3711,11.6364,11.977,11.8573,11.9537,12.0777,12.0463,11.9036,11.7407,11.6709,11.5868,11.4562,11.3399,11.2585,11.1771,11.0808,10.9728,10.9204,10.8913,10.8714,10.8564,10.8273,10.7866,10.7691,10.7633,10.7517,10.7342,10.7342,10.7342,10.7342,10.7342,10.7342,10.7342,10.7342,10.7342,10.7342,10.7342,10.7342,10.7342,10.7342,10.7342,10.7764,10.7764,10.7731,10.8272,10.8932,10.9001,10.9542,11.0271,11.0321,11.0271,11.0423,11.0321,11.0271,11.0372,11.0321,11.0321,11.0355,10.9306,10.9052,10.8848,10.8373,10.7814,10.7459,10.7357,10.7325,10.7103,10.7103,10.7103,10.7103,10.7001,10.7052,10.6798,10.6036,10.5731,10.5477,10.4664,10.4258,10.4055,10.3832,10.3242,10.2378,10.1514,10.0803,10.0651,10.0651,10.0651,10.0346,10.0295,10.0295,10.0295,10.0295,10.0295,10.0295,10.0295,10.0295,10.0295,10.0295,10.0295,10.0295,10.0295,10.0295,10.0295,10.0549,10.0651,10.1108,10.2226,10.3648,10.5223,10.5731,10.5985,10.659,10.6798,10.7933,10.9788,11.0531,11.1405,11.5416,11.7798,11.8698,11.8231,11.8207,11.7,11.5228,11.4298,11.3251,11.2029,11.1098,11.0342,10.9819,10.8913,10.868,10.8157,10.7866,10.7608,10.7517,10.7342,10.7342,10.7342,10.7342,10.7342,10.7342,10.7342,10.7342,10.7342,10.7342,10.7342,10.7342,10.7342,10.7342,10.7342,10.7342,10.7342,10.7342,10.7342,10.7342,10.7103,10.7103,10.7103,10.7459,10.7865,10.7916,10.8272,10.8747,10.8831,10.8831,10.8831,10.8798,10.8831,10.8798,10.8831,10.8831,10.8678,10.8119,10.7934,10.7865,10.7408,10.7103,10.7154,10.7103,10.7103,10.7052,10.7103,10.7103,10.7052,10.6595,10.6189,10.5985,10.5172,10.4614,10.4359,10.3547,10.3038,10.2784,10.2358,10.1748,10.1209,10.0701,10.0346,10.0346,10.0346,10.0295,10.0295,10.0295,10.0295,10.0295,10.0295,10.0295,10.0295,10.0295,10.0295,10.0295,10.0295,10.0295,10.0295,10.0295,10.0295,10.0295,10.0346,10.0295,10.06,10.1311,10.2581,10.3597,10.4105,10.4868,10.5477,10.5033,10.5937,10.7736,10.9282,11.1371,11.4121,11.6097,11.5821,11.4843,11.4679,11.3975,11.2553,11.1738,11.0658,10.9669,10.8797,10.8215,10.7808,10.7691,10.7808,10.7517,10.7575,10.7458,10.74,10.7342,10.7342,10.7342,10.7342,10.7342,10.7342,10.7342,10.7342,10.7342,10.7342,10.7342,10.7342,10.7342,10.7342,10.7342,10.7342,10.7342,10.7342,10.7342,10.7342,10.7103,10.7103,10.7103,10.7103,10.7103,10.7103,10.7205,10.7103,10.7256,10.7103,10.7205,10.7154,10.7256,10.7205,10.7103,10.7154,10.7408,10.7357,10.7223,10.7205,10.7154,10.7103,10.7103,10.7103,10.69,10.69,10.6443,10.629,10.6087,10.568,10.5172,10.4836,10.4055,10.3547,10.3191,10.2429,10.1799,10.1697,10.1088,10.0701,10.0498,10.0346,10.0295,10.0295,10.0295,10.0295,10.0295,10.0295,10.0295,10.0295,10.0295,10.0295,10.0295,10.0295,10.0295,10.0295,10.0295,10.0295,10.0295,10.0295,10.0295,10.0295,10.0295,10.0295,10.0498,10.1159,10.1616,10.2175,10.2784,10.368,10.3781,10.4399,10.5465,10.7535,10.9595,11.1643,11.4036,11.5255,11.4959,11.2236,11.1273,11.0542,11.0077,10.9378,10.8913,10.8448,10.7924,10.7575,10.7342,10.7342,10.7342,10.7342,10.7342,10.7342,10.7342,10.7342,10.7342,10.7342,10.7342,10.7342,10.7342,10.7342,10.7342,10.7342,10.7342,10.7342,10.7342,10.7342,10.7342,10.7342,10.7342,10.7342,10.7342,10.7342,10.7342,10.7103,10.7103,10.7103,10.7103,10.7103,10.7103,10.7103,10.7103,10.7103,10.7103,10.7103,10.7103,10.7103,10.7103,10.7103,10.7103,10.7103,10.7103,10.7103,10.7103,10.7103,10.7103,10.7001,10.6766,10.6392,10.5579,10.4969,10.4563,10.4512,10.4105,10.4004,10.3801,10.2886,10.2378,10.2073,10.124,10.0732,10.0752,10.0447,10.0295,10.0295,10.0295,10.0295,10.0295,10.0295,10.0295,10.0295,10.0295,10.0295,10.0295,10.0295,10.0295,10.0295,10.0295,10.0295,10.0274,10.0041,9.9939,9.9888,10.0041,10.0092,10.0295,10.0244,10.0193,10.0142,10.0295,10.0396,10.0803,10.126,10.2358,10.3703,10.3797,10.5779,10.7851,10.898,11.0811,11.2474,11.2417,11.1855,10.9753,10.9378,10.9088,10.8331,10.7924,10.7633,10.74,10.74,10.7342,10.7342,10.7342,10.7342,10.7342,10.7342,10.7342,10.7342,10.7342,10.7342,10.7342,10.7342,10.7342,10.7342,10.7342,10.7342,10.7342,10.7342,10.7342,10.7342,10.7342,10.7342,10.7342,10.7342,10.7342,10.7342,10.7342,10.7342,10.6189,10.6239,10.6817,10.7103,10.7103,10.7103,10.7103,10.7103,10.7103,10.7103,10.7103,10.7103,10.7103,10.7103,10.7103,10.7052,10.7103,10.7103,10.7052,10.7052,10.7052,10.7052,10.7001,10.5953,10.5122,10.4582,10.3953,10.3883,10.3597,10.3293,10.2886,10.2734,10.1697,10.126,10.0955,10.06,10.0346,10.0295,10.0295,10.0295,10.0295,10.0295,10.0295,10.0295,10.0295,10.0295,10.0295,10.0295,10.0295,10.0295,10.0295,10.0295,10.0295,9.9817,9.9482,9.936,9.9004,9.8567,9.8567,9.8546,9.8648,9.8517,9.8517,9.8567,9.8517,9.8517,9.8546,9.8699,9.9156,9.9584,10.0132,10.1001,10.1299,10.2929,10.4885,10.6869,10.7956,10.8737,10.8738,10.8448,10.8273,10.7866,10.7633,10.7517,10.7342,10.7342,10.7342,10.7342,10.7342,10.7342,10.7342,10.7342,10.7342,10.7342,10.7342,10.7342,10.7342,10.7342,10.7342,10.7342,10.7342,10.7342,10.7342,10.7342,10.7342,10.7342,10.7342,10.7342,10.7342,10.7342,10.7342,10.7342,10.7342,10.7342,10.7342,10.502,10.5122,10.6068,10.6392,10.6424,10.6392,10.6341,10.629,10.6341,10.6189,10.6341,10.6309,10.629,10.629,10.6156,10.6392,10.6189,10.6156,10.6392,10.6392,10.6392,10.6392,10.5935,10.441,10.3527,10.3293,10.3191,10.2988,10.2816,10.2022,10.1667,10.1565,10.0854,10.0346,10.0396,10.0346,10.0295,10.0295,10.0295,10.0295,10.0295,10.0295,10.0295,10.0295,10.0295,10.0295,10.0295,10.0295,10.0071,9.9715,9.9482,9.9279,9.9258,9.875,9.8364,9.8191,9.7581,9.7123,9.7073,9.7174,9.7073,9.7225,9.7276,9.7022,9.7022,9.7174,9.7123,9.7022,9.7022,9.7377,9.7648,9.7564,9.871,9.9954,10.2424,10.4564,10.3878,10.5223,10.6783,10.7204,10.74,10.7342,10.7342,10.7342,10.7342,10.7342,10.7342,10.7342,10.7342,10.7342,10.7342,10.7342,10.7342,10.7342,10.7342,10.7342,10.7342,10.7342,10.7342,10.7342,10.7342,10.7342,10.7342,10.7342,10.7342,10.7342,10.7342,10.7342,10.7342,10.7342,10.7342,10.7342,10.7342,10.7342,10.7342,10.3984,10.3984,10.4105,10.4156,10.4239,10.4156,10.4359,10.4207,10.4359,10.4359,10.4359,10.4207,10.4461,10.4156,10.4563,10.4289,10.4258,10.4512,10.4359,10.4442,10.4442,10.4207,10.4055,10.2734,10.2276,10.2124,10.1108,10.0905,10.0955,10.0803,10.0549,10.06,10.0498,10.0295,10.0295,10.0295,10.0295,10.0295,10.0295,10.0295,10.0142,10.0244,10.0193,10.0193,10.0193,10.0295,10.0295,10.0142,9.941,9.7479,9.7297,9.753,9.7479,9.7377,9.7225,9.7073,9.692,9.6717,9.6869,9.6666,9.6818,9.6717,9.6768,9.7022,9.6717,9.6615,9.6615,9.6564,9.6971,9.6717,9.69,9.8743,9.9189,9.9578,10.2688,10.3574,10.2214,10.284,10.4973,10.6915,10.7259,10.7342,10.7342,10.7342,10.7342,10.7342,10.7342,10.7342,10.7342,10.7342,10.7342,10.7342,10.7342,10.7342,10.7342,10.7342,10.7342,10.7342,10.7342,10.7342,10.7342,10.7342,10.7342,10.7342,10.7342,10.7342,10.7342,10.7342,10.7342,10.7342,10.7342,10.7342,10.7342,10.7342,10.6993,10.2784,10.2835,10.3496,10.3832,10.3832,10.3832,10.3832,10.3832,10.3832,10.3832,10.3832,10.3832,10.3832,10.3832,10.3801,10.3832,10.3832,10.3832,10.375,10.375,10.373,10.2988,10.1921,10.1362,10.1006,10.0955,10.0498,10.0346,10.0295,10.0295,10.0295,10.0295,10.0295,10.0295,10.0295,10.0295,10.0295,10.0295,10.0295,9.9939,9.9533,10.002,9.9939,9.9563,9.999,10.0295,10.0193,9.9685,9.8669,9.7428,9.6971,9.7022,9.6971,9.6463,9.6107,9.6056,9.5446,9.509,9.509,9.509,9.5062,9.5062,9.5062,9.509,9.5141,9.509,9.509,9.5141,9.509,9.509,9.5292,9.5957,9.6583,9.7149,9.9047,10.054,10.0688,10.2384,10.4696,10.6487,10.7342,10.7342,10.7342,10.7342,10.7342,10.7342,10.7342,10.7342,10.7342,10.7342,10.7342,10.7342,10.7342,10.7342,10.7342,10.7342,10.7342,10.7342,10.7342,10.7342,10.7342,10.7342,10.7342,10.7342,10.7342,10.7342,10.7342,10.7342,10.7342,10.7342,10.7342,10.7342,10.7342,10.7284,10.676,10.1616,10.1697,10.253,10.2886,10.2917,10.2886,10.2835,10.2866,10.2866,10.2683,10.2835,10.2917,10.2734,10.2835,10.2784,10.2886,10.2765,10.2816,10.2886,10.2886,10.2917,10.1768,10.06,10.0295,10.0346,10.0346,10.0346,10.0295,10.0295,10.0295,10.0295,10.0295,10.0295,10.0295,10.0295,10.0295,10.0295,10.0295,10.0295,9.9817,9.9105,9.9563,9.9329,9.8496,9.8923,9.9329,9.9329,9.8669,9.7784,9.6717,9.631,9.6107,9.5954,9.5345,9.4989,9.4887,9.4226,9.3718,9.3769,9.3769,9.3769,9.3667,9.3921,9.3667,9.3667,9.3718,9.3718,9.3667,9.3667,9.3769,9.3718,9.3854,9.3854,9.3894,9.5464,9.7489,9.989,10.2021,10.4107,10.6718,10.7235,10.7342,10.7342,10.7342,10.7342,10.7342,10.7342,10.7342,10.7342,10.7342,10.7342,10.7342,10.7342,10.7342,10.7342,10.7342,10.7342,10.7342,10.7342,10.7342,10.7342,10.7342,10.7342,10.7284,10.7284,10.7226,10.7284,10.7051,10.7284,10.7342,10.7051,10.6445,10.6678,10.6411,10.5771,10.0396,10.0396,10.0498,10.0651,10.0701,10.0701,10.0752,10.0651,10.0651,10.0752,10.0701,10.0854,10.0701,10.06,10.0905,10.0905,10.0549,10.0803,10.0833,10.0579,10.0478,10.0346,9.9939,9.9888,9.9888,9.999,10.0041,10.0092,9.9939,9.9969,10.0325,10.0041,9.9939,10.0193,9.999,10.0274,10.0193,10.0142,10.0244,9.9766,9.875,9.8902,9.8313,9.7225,9.7327,9.7479,9.7479,9.7094,9.6513,9.5548,9.4633,9.4226,9.3972,9.382,9.3921,9.3921,9.3769,9.3667,9.3667,9.3667,9.3667,9.3667,9.3667,9.3667,9.3667,9.3667,9.3667,9.3667,9.3667,9.3667,9.3667,9.3667,9.3667,9.3696,9.4064,9.5892,9.9597,10.0394,10.2595,10.589,10.7235,10.7284,10.7259,10.7284,10.7342,10.7342,10.7342,10.7342,10.7342,10.7342,10.7342,10.7342,10.7342,10.7342,10.7342,10.7342,10.7342,10.7342,10.7342,10.7342,10.7342,10.7342,10.7342,10.7226,10.7226,10.7168,10.7051,10.6644,10.6528,10.6353,10.5946,10.5631,10.5224,10.4724,10.4142,10.0295,10.0295,10.0295,10.0295,10.0295,10.0295,10.0295,10.0295,10.0295,10.0295,10.0295,10.0295,10.0295,10.0295,10.0295,10.0295,10.0295,10.0295,9.9533,9.8394,9.8212,9.8212,9.8212,9.8241,9.8212,9.8212,9.8212,9.8241,9.8241,9.8212,9.8212,9.8212,9.8212,9.8263,9.8263,9.8872,9.9309,9.9431,9.9888,9.9431,9.8161,9.8364,9.7915,9.6412,9.6666,9.6971,9.692,9.5599,9.4735,9.4328,9.3972,9.3718,9.3667,9.3667,9.3667,9.3667,9.3667,9.3667,9.3667,9.3667,9.3667,9.3667,9.3667,9.3667,9.3667,9.3667,9.3667,9.3667,9.3667,9.3667,9.3667,9.3667,9.3667,9.3667,9.3667,9.4487,9.5806,9.7409,10.0288,10.37,10.5175,10.5882,10.6841,10.7342,10.7342,10.7342,10.7342,10.7342,10.7342,10.7342,10.7342,10.7342,10.7342,10.7342,10.7342,10.7342,10.7342,10.7109,10.6935,10.6702,10.6702,10.6644,10.6702,10.6586,10.6237,10.612,10.5539,10.5388,10.5388,10.4806,10.4375,10.4177,10.4002,10.3386,10.2688,10.0295,10.0295,10.0295,10.0295,10.0295,10.0295,10.0295,10.0295,9.9888,9.9787,9.9736,9.9431,9.9228,9.9279,9.9309,9.9228,9.9309,9.9258,9.8496,9.7276,9.7022,9.7073,9.7073,9.7022,9.7022,9.7022,9.7022,9.7022,9.7073,9.7073,9.7022,9.7022,9.7022,9.7022,9.7123,9.7784,9.8191,9.8263,9.8872,9.8394,9.6789,9.7327,9.6818,9.5192,9.5599,9.5925,9.5904,9.4531,9.3718,9.3718,9.3667,9.3667,9.3667,9.3667,9.3667,9.3667,9.3667,9.3667,9.3667,9.3667,9.3667,9.3667,9.3667,9.3667,9.3667,9.3667,9.3667,9.3667,9.3667,9.3667,9.3667,9.3667,9.3667,9.3667,9.3667,9.3752,9.4318,9.5809,9.8685,10.2021,10.3418,10.4468,10.5808,10.7137,10.7235,10.7342,10.7342,10.7342,10.7342,10.7342,10.7284,10.7284,10.7342,10.7342,10.7342,10.7342,10.6528,10.5713,10.548,10.5248,10.5422,10.548,10.5655,10.5539,10.5073,10.4608,10.391,10.3701,10.3933,10.3642,10.3095,10.2862,10.2781,10.2257,10.1501,10.0193,10.0142,10.0295,10.0041,9.999,9.999,10.0193,9.9888,9.9126,9.875,9.8648,9.7653,9.7348,9.7196,9.7428,9.7043,9.7022,9.7022,9.6869,9.6717,9.6717,9.6717,9.6717,9.6666,9.6666,9.6666,9.6869,9.6869,9.6717,9.6666,9.6666,9.6869,9.6717,9.6564,9.692,9.7104,9.7198,9.7161,9.7519,9.69,9.5628,9.5758,9.5228,9.4228,9.4154,9.4256,9.4069,9.3826,9.3667,9.3667,9.3667,9.3667,9.3667,9.3667,9.3667,9.3667,9.3667,9.3667,9.3667,9.3667,9.3667,9.3667,9.3667,9.3667,9.3667,9.3667,9.3667,9.3667,9.3667,9.3667,9.3667,9.3667,9.3667,9.3667,9.3667,9.3667,9.4064,9.5642,9.7846,9.9916,10.2036,10.3567,10.4279,10.5554,10.6629,10.676,10.6819,10.676,10.6702,10.6644,10.7051,10.7051,10.6644,10.6353,10.6819,10.7109,10.5539,10.4375,10.4142,10.4142,10.4433,10.4491,10.4608,10.4433,10.4026,10.3444,10.2828,10.2339,10.2513,10.2339,10.1931,10.1501,10.1326,10.1036,10.0279,9.8089,9.8059,9.8059,9.8059,9.8059,9.8089,9.8059,9.8008,9.7704,9.7581,9.753,9.7145,9.7022,9.7022,9.7022,9.6259,9.4836,9.4785,9.4785,9.4785,9.4735,9.4785,9.4785,9.4735,9.4785,9.4785,9.4735,9.4735,9.4785,9.4735,9.4706,9.4785,9.4785,9.4757,9.5174,9.7081,9.7352,9.6636,9.827,9.8786,9.765,9.623,9.5552,9.5878,9.5896,9.5948,9.592,9.4464,9.3667,9.3667,9.3667,9.3667,9.3667,9.3667,9.3667,9.3667,9.3667,9.3667,9.3667,9.3667,9.3667,9.3667,9.3667,9.3667,9.3667,9.3667,9.3667,9.3667,9.3667,9.3667,9.3667,9.3667,9.3667,9.3667,9.3667,9.3667,9.3724,9.4351,9.5141,9.6209,9.8468,10.1054,10.3077,10.4147,10.4604,10.469,10.4666,10.469,10.4666,10.4666,10.469,10.4666,10.484,10.4899,10.4666,10.4666,10.3537,10.3386,10.327,10.3526,10.3701,10.3642,10.3584,10.3351,10.292,10.2339,10.1815,10.1268,10.0919,10.0664,10.0547,10.0431,10.0024,9.9733,9.9442,9.7022,9.7022,9.7022,9.7022,9.7022,9.7022,9.7022,9.6942,9.6615,9.6463,9.6361,9.6005,9.5773,9.5802,9.5802,9.5011,9.3769,9.3667,9.3667,9.3667,9.3667,9.3667,9.3667,9.3667,9.3667,9.3667,9.3667,9.3667,9.3667,9.3667,9.3667,9.3752,9.4435,9.4885,9.5408,9.79,9.8686,9.7623,9.9317,10.0174,9.9262,9.7991,9.8035,9.9249,9.8685,9.7926,9.7,9.5306,9.3899,9.3108,9.2674,9.2526,9.2498,9.2526,9.2498,9.2498,9.2498,9.2498,9.2498,9.2498,9.2498,9.2498,9.2498,9.2397,9.2549,9.2826,9.308,9.3131,9.3385,9.3159,9.2803,9.2498,9.2498,9.2498,9.2448,9.2397,9.2498,9.2498,9.2498,9.2843,9.4178,9.7099,9.9823,10.18,10.2544,10.322,10.341,10.3468,10.3468,10.341,10.3584,10.341,10.341,10.3119,10.2373,10.2024,10.2024,10.2024,10.2024,10.199,10.1873,10.1699,10.1641,10.1326,10.1268,10.078,10.0687,10.0198,10.014,9.9908,9.9908,9.9675,9.8954,9.8664,9.8489,9.6869,9.6818,9.6818,9.6687,9.6818,9.6768,9.6768,9.6564,9.5722,9.5345,9.5192,9.4277,9.3718,9.382,9.3921,9.3718,9.3667,9.3667,9.3667,9.3667,9.3667,9.3667,9.3667,9.3667,9.3667,9.3667,9.3667,9.3667,9.3667,9.3667,9.3667,9.3809,9.5781,9.6863,9.719,9.9411,10.0607,10.0239,10.064,10.0715,10.066,10.0737,10.1679,10.3117,10.1594,9.9325,9.7365,9.6029,9.4312,9.2134,9.108,9.0493,9.0493,9.0493,9.0544,9.0544,9.0493,9.0493,9.0544,9.0595,9.0567,9.0544,9.0669,9.0493,9.077,9.1454,9.1884,9.1907,9.2724,9.2549,9.1001,9.077,9.0696,9.0618,9.0516,9.0567,9.0516,9.072,9.0442,9.0598,9.1097,9.3017,9.6193,9.8654,10.0666,10.2034,10.2942,10.2979,10.2828,10.3002,10.2944,10.292,10.2746,10.2339,10.0198,10.014,9.9966,9.9791,9.9849,9.9559,9.9442,9.9384,9.9326,9.9268,9.9152,9.9152,9.9245,9.921,9.8977,9.8919,9.8825,9.857,9.772,9.7559,9.7349,9.4582,9.4582,9.4582,9.4582,9.4633,9.4582,9.4582,9.4582,9.4277,9.4176,9.4125,9.382,9.3667,9.3667,9.3667,9.3667,9.3667,9.3667,9.3667,9.3667,9.3667,9.3667,9.3667,9.3667,9.3667,9.3667,9.3667,9.3667,9.3667,9.3667,9.3667,9.4007,9.5868,9.6973,9.7383,10.1027,10.2098,10.0816,10.2098,10.2874,10.2968,10.3667,10.4338,10.4544,10.1851,9.9944,9.918,9.5893,9.37,9.3058,9.1338,9.0442,9.0442,9.0442,9.0442,9.0442,9.0442,9.0442,9.0442,9.0442,9.0442,9.0442,9.0442,9.0442,9.0415,9.0669,9.0821,9.0821,9.1075,9.1126,9.0415,9.0442,9.0442,9.0442,9.0442,9.0442,9.034,9.0442,9.034,9.0477,9.0659,9.1993,9.3236,9.5647,9.7868,9.8749,9.9852,10.0605,10.0605,10.0664,10.0664,10.0628,10.0628,10.0256,9.9733,9.9326,9.9013,9.8606,9.814,9.7872,9.7008,9.6892,9.6892,9.751,9.6986,9.6928,9.7277,9.7102,9.6776,9.6834,9.6834,9.6659,9.6404,9.6368,9.6135,9.3667,9.3667,9.3667,9.3667,9.3667,9.3667,9.3667,9.3667,9.3667,9.3667,9.3667,9.3667,9.3667,9.3667,9.3667,9.3667,9.3667,9.3667,9.3667,9.3667,9.3667,9.3667,9.3667,9.3667,9.3667,9.3667,9.3667,9.3667,9.3667,9.3667,9.4177,9.5225,9.828,9.9756,10.0076,10.3418,10.462,10.3342,10.457,10.4685,10.3862,10.4248,10.4584,10.4348,10.2563,10.1064,9.9906,9.7239,9.4652,9.2834,9.1229,8.9906,8.9045,8.8965,8.8965,8.8965,8.8965,8.8965,8.8992,8.8992,8.8938,8.8992,8.8965,8.8938,8.8965,8.9422,8.9473,8.9066,8.8992,8.8965,8.8914,8.8965,8.8965,8.8965,8.8965,8.8965,8.8965,8.8941,8.8965,8.8995,8.9475,9.0006,9.1271,9.3481,9.565,9.7667,9.8653,9.9652,9.9617,9.9559,9.9559,9.942,9.857,9.8127,9.7975,9.8011,9.7662,9.7116,9.6884,9.6767,9.6077,9.5808,9.5808,9.5866,9.5983,9.5983,9.5692,9.5808,9.5808,9.5925,9.5866,9.5633,9.511,9.503,9.4739,9.3667,9.3667,9.3667,9.3667,9.3667,9.3667,9.3667,9.3667,9.3667,9.3667,9.3436,9.3566,9.3566,9.3667,9.3566,9.3464,9.3464,9.3413,9.3413,9.3464,9.3487,9.3617,9.3667,9.3667,9.3667,9.3667,9.3667,9.3667,9.3667,9.3667,9.4801,9.7327,10.1522,10.3649,10.3955,10.6064,10.7152,10.706,10.7051,10.5771,10.356,10.3293,10.3211,10.3235,10.3095,10.2078,10.014,9.8701,9.6055,9.2131,9.0562,8.8885,8.689,8.6575,8.6626,8.6575,8.6575,8.6575,8.6575,8.6575,8.6575,8.6549,8.6677,8.6804,8.6855,8.7641,8.7719,8.688,8.6575,8.6703,8.6754,8.6855,8.693,8.7134,8.7134,8.693,8.7083,8.693,8.6855,8.6778,8.6936,8.7385,8.9087,9.099,9.391,9.6729,9.796,9.8744,9.8825,9.8767,9.8803,9.8593,9.7393,9.6135,9.6019,9.5866,9.5961,9.5728,9.5633,9.5437,9.5146,9.5088,9.5401,9.4681,9.5168,9.503,9.5146,9.5459,9.5284,9.4913,9.4913,9.503,9.4077,9.3728,9.3088,9.3667,9.3667,9.3667,9.3667,9.3667,9.3667,9.3667,9.3667,9.3667,9.3182,9.2392,9.2313,9.2849,9.3566,9.2747,9.2313,9.2211,9.1505,9.1556,9.2262,9.2341,9.2826,9.3617,9.3667,9.3667,9.3667,9.3667,9.3667,9.3667,9.3667,9.4829,9.73,10.1577,10.3827,10.3878,10.6139,10.6794,10.5805,10.484,10.4026,10.341,10.2432,10.1908,10.185,10.0977,10.0143,9.9541,9.6838,9.4175,9.1663,8.8875,8.641,8.4545,8.4341,8.4341,8.4366,8.4341,8.4341,8.4341,8.429,8.4341,8.4366,8.518,8.5714,8.5663,8.5128,8.462,8.4392,8.4417,8.4798,8.5485,8.5688,8.6018,8.6778,8.693,8.6778,8.688,8.693,8.6601,8.5841,8.5714,8.5461,8.5487,8.6809,8.9287,9.2184,9.4709,9.6504,9.6637,9.6659,9.6637,9.6543,9.6274,9.5648,9.5808,9.567,9.5241,9.439,9.431,9.3896,9.3113,9.2828,9.2834,9.3009,9.2892,9.2923,9.2871,9.2913,9.303,9.3088,9.303,9.2755,9.2427,9.2311,9.1671,9.2193,9.2193,9.2193,9.2143,9.2193,9.2221,9.2143,9.2143,9.1607,9.0993,9.0536,9.102,9.1607,9.2092,9.1505,9.1223,9.1173,9.0669,9.0946,9.1907,9.193,9.2544,9.3617,9.3667,9.3667,9.3667,9.3667,9.3667,9.3667,9.3667,9.4829,9.711,10.0526,10.3061,10.4507,10.58,10.5805,10.4491,10.3211,10.2222,10.1617,10.0954,10.0547,10.0547,9.9303,9.8664,9.8583,9.6339,9.375,9.0789,8.8893,8.6613,8.3781,8.3122,8.2868,8.2893,8.241,8.2081,8.2056,8.2056,8.2259,8.2893,8.3884,8.4138,8.3122,8.3351,8.3605,8.3605,8.3605,8.3858,8.4443,8.457,8.4748,8.5306,8.5382,8.5382,8.5382,8.5356,8.5179,8.4646,8.4544,8.4647,8.4937,8.5925,8.7607,9.0728,9.2836,9.4838,9.5757,9.4913,9.376,9.3008,9.3501,9.3631,9.2842,9.3356,9.3298,9.1893,9.2395,9.2277,9.093,9.0593,9.1014,9.1672,9.1142,9.0999,9.1957,9.1941,9.1941,9.1882,9.1533,9.1068,9.0952,9.0487,8.9751,9.0442,9.0442,9.0442,9.0313,9.0161,9.0161,9.0086,8.9805,8.8684,8.8352,8.8708,8.9676,9.0211,9.0391,9.0211,9.0161,9.0161,8.9957,9.0489,9.145,9.1473,9.2087,9.3238,9.321,9.321,9.321,9.321,9.321,9.321,9.321,9.4509,9.6961,9.9003,10.1689,10.4828,10.5083,10.4351,10.2862,10.1734,10.0664,9.9536,9.9361,9.9303,9.95,9.814,9.7362,9.7537,9.6266,9.3838,9.0298,8.9899,8.7911,8.3899,8.2753,8.1917,8.134,8.0402,7.9795,7.9795,7.9846,8.0252,8.1291,8.2461,8.2182,8.01,8.1548,8.2614,8.2614,8.2411,8.2767,8.3147,8.3097,8.3224,8.3579,8.3655,8.3605,8.3681,8.3706,8.3655,8.3401,8.3351,8.4054,8.5055,8.5733,8.7272,9.0422,9.1492,9.2867,9.373,9.282,9.0699,8.9564,9.0353,9.0523,8.9849,9.0417,9.0613,8.9106,9.009,9.0187,8.9143,8.8722,8.9101,9.095,9.0002,8.9663,9.085,9.138,9.1205,9.101,9.035,8.9768,8.971,8.8509,8.7463,9.0442,9.0442,9.0442,8.9856,8.8938,8.8938,8.8457,8.7595,8.64,0.0,0.0,8.8887,8.9446,9.0262,8.9422,8.8938,8.8887,8.7973,8.8098,8.9215,8.9215,8.9879,9.0923,9.1001,9.1001,9.0974,9.0974,9.0974,9.0974,9.0974,9.2945,9.654,9.7292,9.9567,10.3474,10.3735,10.2548,10.0338,9.9966,9.9791,9.95,9.8467,9.8431,9.95,9.7335,9.6615,9.7514,9.5452,9.3656,9.2381,9.1277,8.8543,8.3795,8.3248,8.1578,7.823,7.7685,7.7584,7.756,7.756,7.7685,7.7838,7.9744,7.9947,7.7713,7.7916,7.8119,7.8146,7.8119,7.8932,8.0659,8.0862,8.1548,8.3376,8.3605,8.3554,8.3554,8.3605,8.3071,8.2511,8.2257,8.2125,8.1699,8.2923,8.4186,8.5199,8.7821,8.9928,8.9955,8.9063,8.7983,8.7959,8.8418,8.8658,8.8355,8.8716,8.8582,8.8183,8.7325,8.7008,8.7624,8.6987,8.6841,8.8651,8.8521,8.8433,8.8661,8.8937,8.8704,8.8762,8.853,8.8413,8.8239,8.6532,8.5059,8.6959,8.6932,8.6906,8.6601,0.0,8.6067,8.5179,8.3604,8.302,8.3731,8.5307,8.5839,8.6398,8.6959,8.6347,8.6067,8.6067,8.6119,8.6729,8.7847,8.843,8.9242,9.0442,9.0442,9.0442,9.0442,9.0442,9.0442,9.0446,9.1431,9.3041,9.5143,9.7376,9.9585,10.167,10.2169,10.1443,9.9559,9.8896,9.8547,9.8467,9.6687,9.6011,9.6615,9.4833,0.0,0.0,0.0,0.0,0.0,0.0,0.0,0.0,8.0661,0.0,7.6258,7.6087,7.5884,7.5348,7.5325,7.5551,7.6013,7.7103,7.7076,7.5427,7.6341,7.7001,7.7001,7.7001,7.7408,7.8474,7.8627,7.9009,8.0073,8.0252,8.0252,8.0228,8.0252,8.0252,8.0199,8.0301,8.0327,8.0252,8.1169,8.2027,8.3134,8.4917,8.6791,8.8336,8.6717,8.5031,8.5327,8.6069,8.6647,8.6626,8.7297,8.7863,8.6852,8.6647,8.6688,8.6663,8.5841,8.5826,8.7541,8.7158,8.6954,8.7724,8.8006,8.8006,8.8006,8.7541,8.6959,8.6125,8.5039,8.4148,8.3605,8.3605,8.3605,8.3427,8.3224,8.3097,8.1904,8.0303,8.0506,8.1165,8.2104,8.3122,8.3605,8.3605,8.3605,8.3605,8.363,8.4621,8.5536,8.645,8.7262,8.8176,8.9093,8.9324,8.9398,8.9425,8.9652,8.9727,8.9781,9.1404,9.2676,9.3593,9.7044,9.923,9.9977,0.0,0.0,0.0,9.7792,9.7268,9.7152,9.5023,9.4019,9.4193,9.2718,0.0,9.1941,9.1708,9.0319,8.775,8.6242,0.0,0.0,0.0,0.0,0.0,0.0,0.0,0.0,0.0,0.0,0.0,7.4157,7.3903,7.3141,7.4817,7.6138,7.6341,7.6364,7.6392,7.6618,7.6669,7.6748,7.6951,7.7001,7.7001,7.7001,7.7076,7.7255,7.8146,7.8271,7.8627,7.944,7.9643,8.0265,8.153,8.2338,8.3996,8.726,8.4259,8.2313,8.2936,8.3945,8.4618,8.4896,8.6267,8.6575,8.5571,8.6183,8.6166,8.5195,8.4778,8.5123,8.6792,8.602,8.5534,8.693,8.7308,8.7114,8.7308,8.6494,8.5466,8.44,8.4226,8.4148,8.3605,8.3605,8.3605,8.3071,8.213,8.114,8.0557,8.0354,8.1368,8.1926,8.2104,8.3173,8.3605,8.3605,8.3605,8.3605,8.3605,8.3731,8.3909,8.4062,8.4163,8.429,8.4519,8.5536,8.5968,8.6019,8.6906,8.7312,8.7312,8.7577,8.9692,9.3179,9.3926,9.605,9.9379,9.755,9.6485,9.6332,9.6157,9.6019,9.6019,9.4659,9.4426,9.5459,9.3263,9.1941,9.1962,9.0815,9.0072,8.9649,8.9384,8.7203,8.2706,8.1247,7.8088,0.0,7.1385,0.0,0.0,0.0,0.0,0.0,0.0,0.0,0.0,7.177,7.2967,7.3976,7.4129,7.4484,7.5376,7.5427,7.5907,7.6849,7.7001,7.7001,7.6951,7.7001,7.7076,7.7177,7.7154,7.7205,7.7459,7.7408,7.7431,7.802,7.9352,8.1142,8.2783,8.0856,7.995,8.3105,8.2739,8.2567,8.3667,8.434,8.4632,8.4243,8.3689,8.2884,8.4045,8.3078,8.2681,8.4242,8.4417,8.4379,8.4613,8.4768,8.4768,8.4865,8.4594,8.4342,8.4206,8.4148,8.4148,8.1751,8.1776,8.1776,8.0785,7.9234,7.9311,7.8958,7.8525,7.9616,7.9742,7.9284,7.9669,7.9923,7.9897,7.9897,8.0252,8.0811,8.1471,8.2081,8.274,8.33,8.3605,8.3605,8.4138,8.4316,8.4392,8.4874,8.5077,8.5181,8.7291,8.9351,9.1247,9.3579,9.528,9.6338,9.6019,9.5808,9.5808,9.5808,9.5459,9.4717,9.2797,9.202,9.2543,9.074,8.9751,8.9772,8.9286,8.8568,8.783,8.6941,8.4819,8.1269,7.8833,7.5734,0.0,0.0,0.0,0.0,0.0,0.0,0.0,0.0,0.0,0.0,0.0,7.05,7.1639,7.1741,7.2198,7.3316,7.3417,7.3875,7.5043,7.5122,7.5122,7.5145,7.5122,7.5376,7.5958,7.6009,7.624,7.69,7.7001,7.7001,7.7025,7.7489,7.8491,7.9967,7.9471,7.8667,7.9376,7.9836,8.0143,7.9698,8.1434,8.3059,8.3877,8.3509,8.2902,8.2745,8.2151,8.1835,8.2567,8.2764,8.302,8.3994,8.4148,8.4148,8.4052,8.3411,8.3177,8.3974,8.4148,8.4148,7.9466,7.944,7.8932,7.7763,7.624,7.7052,7.7052,7.6669,7.7408,7.7459,7.6951,7.6697,7.6544,7.6544,7.629,7.6748,7.7763,7.8678,7.9718,8.0884,8.1902,8.2385,8.2436,8.2944,8.3223,8.3223,8.36,8.3825,8.4,8.7081,8.8883,8.9558,9.2479,9.3458,9.2564,9.3517,9.412,9.4448,9.4448,9.4099,9.3379,9.1475,9.0466,9.0466,8.9207,8.8355,8.8085,8.7774,8.6997,8.5659,8.3612,8.141,7.9279,7.5457,0.0,0.0,0.0,0.0,0.0,0.0,0.0,0.0,0.0,6.3948,6.5969,0.0,6.8307,0.0,6.984,7.0521,7.1414,7.1516,0.0,0.0,7.2859,7.2786,7.2859,7.3062,7.3548,7.4383,7.4688,7.5196,7.611,7.6212,7.6437,7.7295,7.6743,7.7075,7.9217,7.9258,7.8518,7.7985,7.8885,7.8906,7.7711,7.9568,8.1915,8.2823,8.2883,8.2451,8.1213,8.0991,8.0991,8.0991,8.0991,8.1474,8.2549,8.2942,8.3,8.3353,8.2547,8.2151,8.3819,8.4148,8.4148,7.7228,7.7076,7.5043,7.4078,7.3903,7.4027,7.4535,7.5376,7.5404,7.6059,7.69,7.5833,7.5376,7.5297,7.436,0.0,7.5478,7.5579,7.624,7.7431,7.8424,7.8908,7.9033,8.1114,8.2155,8.223,8.3724,8.4449,8.4493,8.5446,8.6876,8.8851,8.8794,8.8608,8.855,8.8608,8.9286,9.0466,9.0466,9.101,9.2078,9.1882,9.1845,9.1708,9.0524,8.9265,8.8085,8.6901,8.564,8.4284,8.0878,7.8634,7.7777,0.0,0.0,0.0,0.0,0.0,0.0,0.0,0.0,0.0,0.0,0.0,0.0,0.0,0.0,0.0,6.8997,0.0,7.0297,7.0318,0.0,0.0,0.0,7.0449,7.0449,7.1385,7.2096,7.2198,0.0,0.0,7.3926,7.3926,7.5163,7.8339,7.7288,7.7425,8.093,8.0061,7.9485,8.0849,8.1294,8.0712,7.8947,8.0321,8.1233,8.0061,7.9341,7.9547,7.932,7.9196,7.9134,7.9134,7.9134,7.9279,7.9341,7.9478,7.9856,8.1502,8.1678,8.2057,8.3549,8.3993,8.3935,7.436,7.1842,7.0957,7.0238,6.9658,7.0318,7.0471,7.0217,7.0928,7.108,7.0856,7.042,7.0166,7.0166,6.9759,0.0,0.0,0.0,7.3519,7.5935,7.6341,7.69,7.7611,7.8525,7.9575,8.06,8.13,8.2148,8.3168,8.4634,8.5285,8.5251,0.0,0.0,8.5288,8.6361,8.7272,8.8034,8.9289,9.0233,9.0777,9.1512,9.1592,9.0757,8.8722,8.7405,8.6881,8.566,8.3664,8.0873,7.9339,7.7002,0.0,0.0,0.0,0.0,0.0,0.0,0.0,0.0,0.0,0.0,0.0,5.5855,5.8312,0.0,0.0,0.0,6.4253,6.5979,6.796,6.8184,0.0,0.0,0.0,0.0,0.0,0.0,0.0,7.0877,7.2838,7.4251,7.4273,7.5099,7.6606,7.9069,7.9434,8.0347,8.2823,0.0,8.1954,8.1711,8.1651,8.1011,7.9238,8.0463,8.1394,8.0667,8.0585,8.0204,7.9134,7.8006,7.733,7.7287,7.7309,7.7594,7.8739,7.7622,7.7179,7.8908,7.9299,7.9918,8.1579,8.1899,8.1957,7.0572,0.0,0.0,0.0,0.0,6.6812,6.6863,6.6528,6.732,6.7371,6.6863,6.6558,0.0,0.0,0.0,0.0,0.0,0.0,7.1029,7.3316,7.4665,7.5775,7.676,7.745,7.8717,8.0417,8.0576,8.1291,8.2511,8.3119,8.2621,8.1214,0.0,0.0,0.0,0.0,8.5467,8.6226,8.7972,8.9225,8.998,9.0545,9.0545,8.998,8.7463,8.6125,8.6125,8.3838,8.1454,7.9147,7.6606,0.0,0.0,0.0,0.0,0.0,0.0,0.0,0.0,0.0,0.0,0.0,0.0,0.0,0.0,0.0,0.0,0.0,0.0,0.0,6.5065,6.5421,6.5624,0.0,0.0,0.0,0.0,0.0,0.0,0.0,0.0,0.0,7.4543,7.6071,7.8003,0.0,0.0,8.1795,8.3878,8.4148,8.3761,8.2547,8.2369,0.0,7.9958,8.0809,8.1398,8.0462,8.027,7.9593,7.747,7.6439,7.5576,7.4576,7.5216,7.625,7.7389,7.5902,7.5326,7.7123,7.7335,7.7813,7.9888,8.05,8.0558,0.0,0.0,0.0,0.0,0.0,0.0,0.0,0.0,6.541,6.5918,0.0,6.5664,0.0,0.0,0.0,0.0,6.5562,6.7687,0.0,0.0,7.3259,7.5626,7.6362,7.8556,8.0453,8.2139,8.2675,8.2948,8.297,8.0433,0.0,0.0,0.0,0.0,0.0,0.0,8.3533,8.4782,8.5817,8.7501,8.9826,8.8821,8.8742,8.9847,8.7463,8.6067,8.5893,8.1375,7.9223,8.019,7.2176,0.0,0.0,0.0,0.0,0.0,0.0,0.0,0.0,0.0,0.0,0.0,0.0,0.0,0.0,0.0,0.0,0.0,0.0,0.0,0.0,6.1961,0.0,0.0,0.0,0.0,0.0,0.0,0.0,0.0,0.0,7.3133,7.4044,7.6204,7.8877,8.1829,0.0,0.0,0.0,0.0,8.4148,8.4071,8.4071,8.345,8.1775,8.1595,8.0623,7.7722,0.0,0.0,7.3427,7.4154,7.4053,7.103,7.3063,7.5072,7.5112,7.394,7.4027,7.6991,7.6643,7.6735,7.957,8.019,8.0307,0.0,0.0,0.0,0.0,0.0,0.0,0.0,0.0,0.0,6.2208,0.0,6.1357,0.0,0.0,0.0,0.0,0.0,0.0,0.0,0.0,7.2945,7.5183,7.7108,7.79,7.8792,0.0,7.9936,7.9866,0.0,0.0,0.0,0.0,0.0,0.0,0.0,0.0,8.1561,8.3173,8.565,8.7437,8.8298,8.8392,8.8252,8.7842,8.6709,8.4555,8.124,8.0472,7.7865,0.0,0.0,0.0,0.0,0.0,0.0,0.0,0.0,0.0,0.0,0.0,0.0,0.0,0.0,0.0,0.0,0.0,0.0,0.0,0.0,0.0,0.0,0.0,5.9396,0.0,0.0,0.0,0.0,0.0,0.0,0.0,0.0,0.0,7.1687,7.5038,7.7955,7.967,8.0098,8.0854,8.2773,0.0,0.0,0.0,0.0,0.0,0.0,0.0,8.0514,7.939,7.9257,7.8186,7.5012,7.3036,7.1839,7.1828,0.0,0.0,7.2917,7.4172,7.5593,7.6787,7.653,7.6532,7.7711,7.7926,7.7943,0.0,0.0,0.0,0.0,0.0,0.0,0.0,0.0,0.0,6.0157,6.0473,0.0,0.0,0.0,0.0,0.0,0.0,0.0,0.0,0.0,0.0,0.0,7.6602,7.6952,0.0,0.0,0.0,0.0,0.0,0.0,0.0,0.0,0.0,0.0,0.0,0.0,8.0376,8.1572,8.5002,8.7019,8.7491,8.7534,8.7398,8.6987,8.6168,8.3542,7.9,0.0,0.0,0.0,0.0,0.0,0.0,0.0,0.0,0.0,0.0,0.0,0.0,0.0,0.0,0.0,0.0,0.0,0.0,0.0,0.0,0.0,0.0,0.0,0.0,0.0,5.5623,0.0,0.0,0.0,0.0,0.0,0.0,0.0,0.0,0.0,0.0,0.0,7.6016,7.7807,7.9189,8.0508,8.1792,8.1874,8.2128,0.0,0.0,0.0,0.0,0.0,0.0,0.0,0.0,0.0,0.0,0.0,0.0,0.0,0.0,7.0676,7.0768,7.2193,7.3478,7.3944,0.0,0.0,0.0,0.0,0.0,0.0,0.0,0.0,0.0,0.0,0.0,0.0,0.0,0.0,0.0,6.1219,0.0,0.0,6.1492,0.0,0.0,0.0,0.0,0.0,0.0,0.0,0.0,0.0,0.0,0.0,0.0,0.0,0.0,0.0,0.0,0.0,0.0,0.0,0.0,0.0,0.0,8.0027,8.0129,8.3738,8.619,8.7234,8.6192,8.6133,8.7255,8.5791,8.319,7.954,0.0,0.0,0.0,0.0,0.0,0.0,0.0,0.0,0.0,0.0,0.0,0.0,0.0,0.0,0.0,0.0,0.0,0.0,0.0,0.0,0.0,0.0,0.0,0.0,0.0,0.0,5.0718,5.0393,5.1838,0.0,0.0,0.0,0.0,0.0,0.0,0.0,0.0,0.0,7.6602,7.8218,7.9484,8.0837,8.072,8.0757,8.1412,8.1231,8.1012,8.1031,8.0936,8.0544,0.0,0.0,0.0,0.0,0.0,0.0,0.0,0.0,0.0,0.0,0.0,0.0,0.0,0.0,0.0,0.0,0.0,0.0,0.0,0.0,0.0,0.0,0.0,0.0,0.0,0.0,0.0,0.0,0.0,0.0,0.0,0.0,0.0,0.0,0.0,0.0,0.0,0.0,0.0,0.0,0.0,0.0,0.0,0.0,0.0,0.0,0.0,0.0,0.0,0.0,0.0,0.0,0.0,0.0,7.912,7.9197,8.3936,8.5652,8.4244,8.5315,8.5719,8.5185,8.4381,8.2604,0.0,0.0,0.0,0.0,0.0,0.0,0.0,0.0,0.0,0.0,0.0,0.0,0.0,0.0,0.0,0.0,0.0,0.0,0.0,0.0,0.0,0.0,0.0,0.0,0.0,0.0,0.0,0.0,5.4149,5.6009,5.7238,0.0,0.0,0.0,0.0,0.0,0.0,0.0,0.0,0.0,0.0,7.6509,7.9663,7.9969,8.0299,8.1343,8.0444,7.979,8.004,7.8909,7.7989,7.8181,0.0,0.0,0.0,0.0,0.0,0.0,0.0,0.0,0.0,0.0,0.0,0.0,0.0,0.0,0.0,0.0,0.0,0.0,0.0,0.0,0.0,0.0,0.0,0.0,0.0,0.0,0.0,0.0,0.0,0.0,0.0,0.0,0.0,0.0,0.0,0.0,0.0,0.0,0.0,0.0,0.0,0.0,0.0,0.0,0.0,0.0,0.0,0.0,0.0,0.0,0.0,0.0,0.0,7.7974,7.8034,8.3265,8.4923,8.2973,8.4628,8.5193,8.4418,8.3501,8.1584,0.0,0.0,0.0,0.0,0.0,0.0,0.0,0.0,0.0,0.0,0.0,0.0,0.0,0.0,0.0,0.0,0.0,0.0,0.0,0.0,0.0,0.0,0.0,0.0,0.0,0.0,0.0,0.0,5.2569,5.4586,5.527,0.0,0.0,0.0,0.0,0.0,0.0,0.0,0.0,0.0,0.0,7.4795,7.7253,7.7472,0.0,0.0,7.8156,7.7133,7.891,7.7662,7.6573,7.6932,7.5825,0.0,0.0,0.0,0.0,0.0,0.0,0.0,0.0,0.0,0.0,0.0,0.0,0.0,0.0,0.0,0.0,0.0,0.0,0.0,0.0,0.0,0.0,0.0,0.0,0.0,0.0,0.0,0.0,0.0,0.0,0.0,0.0,0.0,0.0,0.0,0.0,0.0,0.0,0.0,0.0,0.0,0.0,0.0,0.0,0.0,0.0,0.0,0.0,0.0,0.0,0.0,0.0,0.0,7.6855,8.1931,8.3906,8.2614,8.3864,8.46,8.4481,8.2987,8.0483,0.0,0.0,0.0,0.0,0.0,0.0,0.0,0.0,0.0,0.0,0.0,0.0,0.0,0.0,0.0,0.0,0.0,0.0,0.0,0.0,0.0,0.0,0.0,0.0,0.0,0.0,0.0,0.0,0.0,0.0,0.0,0.0,0.0,0.0,0.0,0.0,0.0,0.0,0.0,0.0,0.0,7.3897,7.4372,7.3973,7.4759,0.0,7.495,7.3567,7.7259,7.6717,7.5812,7.5538,0.0,0.0,0.0,0.0,0.0,0.0,0.0,0.0,0.0,0.0,0.0,0.0,0.0,0.0,0.0,0.0,0.0,0.0,0.0,0.0,0.0,0.0,0.0,0.0,0.0,0.0,0.0,0.0,0.0,0.0,0.0,0.0,0.0,0.0,0.0,0.0,0.0,0.0,0.0,0.0,0.0,0.0,0.0,0.0,0.0,0.0,0.0,0.0,0.0,0.0,0.0,0.0,0.0,0.0,7.5419,8.058,8.2135,7.9888,8.2093,8.2829,8.1854,8.1408,0.0,0.0,0.0,0.0,0.0,0.0,0.0,0.0,0.0,0.0,0.0,0.0,0.0,0.0,0.0,0.0,0.0,0.0,0.0,0.0,0.0,0.0,0.0,0.0,0.0,0.0,0.0,4.709,0.0,0.0,0.0,0.0,0.0,0.0,0.0,0.0,0.0,0.0,0.0,0.0,0.0,0.0,7.0619,7.547,7.4375,7.3734,0.0,0.0,7.2398,7.2739,7.2835,7.2687,0.0,0.0,0.0,0.0,0.0,0.0,0.0,0.0,0.0,0.0,0.0,0.0,0.0,0.0,0.0,0.0,0.0,0.0,0.0,0.0,0.0,0.0,0.0,0.0,0.0,0.0,0.0,0.0,0.0,0.0,0.0,0.0,0.0,0.0,0.0,0.0,0.0,0.0,0.0,0.0,0.0,0.0,0.0,0.0,0.0,0.0,0.0,0.0,0.0,0.0,0.0,0.0,0.0,0.0,7.5319,7.5798,7.9744,8.136,8.0533,8.1983,8.2467,8.1697,8.0545,7.9145,0.0,0.0,0.0,0.0,0.0,0.0,0.0,0.0,0.0,0.0,0.0,0.0,0.0,0.0,0.0,0.0,0.0,0.0,0.0,0.0,0.0,0.0,0.0,0.0,0.0,0.0,0.0,0.0,0.0,0.0,0.0,0.0,0.0,0.0,0.0,0.0,0.0,0.0,0.0,0.0,0.0,0.0,7.2236,7.1817,0.0,0.0,0.0,7.0469,7.1607,0.0,0.0,0.0,0.0,0.0,0.0,0.0,0.0,0.0,0.0,0.0,0.0,0.0,0.0,0.0,0.0,0.0,0.0,0.0,0.0,0.0,0.0,0.0,0.0,0.0,0.0,0.0,0.0,0.0,0.0,0.0,0.0,0.0,0.0,0.0,0.0,0.0,0.0,0.0,0.0,0.0,0.0,0.0,0.0,0.0,0.0,0.0,0.0,0.0,0.0,0.0,0.0,0.0,0.0,0.0,0.0,0.0,7.6741,7.9383,8.1338,8.2548,8.253,8.2656,8.2725,8.0145,7.8685,0.0,0.0,0.0,0.0,0.0,0.0,0.0,0.0,0.0,0.0,0.0,0.0,0.0,0.0,0.0,0.0,0.0,0.0,0.0,0.0,0.0,0.0,0.0,0.0,0.0,0.0,0.0,0.0,0.0,0.0,0.0,0.0,0.0,0.0,0.0,0.0,0.0,0.0,0.0,0.0,0.0,6.9198,6.7537,6.8001,6.9033,0.0,0.0,6.785,7.1203,7.068,0.0,0.0,0.0,0.0,0.0,0.0,0.0,0.0,0.0,0.0,0.0,0.0,0.0,0.0,0.0,0.0,0.0,0.0,0.0,0.0,0.0,0.0,0.0,0.0,0.0,0.0,0.0,0.0,0.0,0.0,0.0,0.0,0.0,0.0,0.0,0.0,0.0,0.0,0.0,0.0,0.0,0.0,0.0,0.0,0.0,0.0,0.0,0.0,0.0,0.0,0.0,0.0,0.0,0.0,0.0,0.0,7.6833,7.9306,8.1276,8.2501,8.1617,8.1628,8.2586,8.0094,7.8684,0.0,0.0,0.0,0.0,0.0,0.0,0.0,0.0,0.0,0.0,0.0,0.0,0.0,0.0,0.0,0.0,0.0,0.0,0.0,0.0,0.0,0.0,0.0,0.0,0.0,0.0,0.0,0.0,0.0,0.0,0.0,0.0,0.0,0.0,0.0,0.0,0.0,0.0,0.0,0.0,0.0,6.4409,6.8061,6.6983,0.0,0.0,0.0,0.0,6.4875,6.3857,0.0,0.0,0.0,0.0,0.0,0.0,0.0,0.0,0.0,0.0,0.0,0.0,0.0,0.0,0.0,0.0,0.0,0.0,0.0,0.0,0.0,0.0,0.0,0.0,0.0,0.0,0.0,0.0,0.0,0.0,0.0,0.0,0.0,0.0,0.0,0.0,0.0,0.0,0.0,0.0,0.0,0.0,0.0,0.0,0.0,0.0,0.0,0.0,0.0,0.0,0.0,0.0,0.0,0.0,0.0,0.0,7.671,7.8705,8.0938,8.3416,8.2896,8.2881,8.3465,8.0976,7.9332,0.0,0.0,0.0,0.0,0.0,0.0,0.0,0.0,0.0,0.0,0.0,0.0,0.0,0.0,0.0,0.0,0.0,0.0,0.0,0.0,0.0,0.0,0.0,0.0,0.0,0.0,0.0,0.0,0.0,0.0,0.0,0.0,0.0,0.0,0.0,0.0,0.0,0.0,0.0,0.0,6.1224,6.2973,6.5712,0.0,0.0,0.0,0.0,0.0,0.0,6.1895,6.1476,0.0,0.0,0.0,0.0,0.0,0.0,0.0,0.0,0.0,0.0,0.0,0.0,0.0,0.0,0.0,0.0,0.0,0.0,0.0,0.0,0.0,0.0,0.0,0.0,0.0,0.0,0.0,0.0,0.0,0.0,0.0,0.0,0.0,0.0,0.0,0.0,0.0,0.0,0.0,0.0,0.0,0.0,0.0,0.0,0.0,0.0,0.0,0.0,0.0,0.0,0.0,0.0,0.0,0.0,0.0,7.6732,7.845,8.1181,8.4807,8.4649,8.4534,8.4462,8.2025,7.9806,7.7716,0.0,0.0,0.0,0.0,0.0,0.0,0.0,0.0,0.0,0.0,0.0,0.0,0.0,0.0,0.0,0.0,0.0,0.0,0.0,0.0,0.0,0.0,0.0,0.0,0.0,0.0,0.0,0.0,0.0,0.0,0.0,0.0,0.0,0.0,0.0,0.0,0.0,0.0,0.0,6.054,6.2122,0.0,0.0,0.0,0.0,0.0,0.0,0.0,0.0,6.0745,0.0,0.0,0.0,0.0,0.0,0.0,0.0,0.0,0.0,0.0,0.0,0.0,0.0,0.0,0.0,0.0,0.0,0.0,0.0,0.0,0.0,0.0,0.0,0.0,0.0,0.0,0.0,0.0,0.0,0.0,0.0,0.0,0.0,0.0,0.0,0.0,0.0,0.0,0.0,0.0,0.0,0.0,0.0,0.0,0.0,0.0,0.0,0.0,0.0,0.0,0.0,0.0,0.0,0.0,0.0,0.0,8.0132,8.3299,8.613,8.5207,8.4534,8.4491,8.2025,7.894,7.5142,0.0,0.0,0.0,0.0,0.0,0.0,0.0,0.0,0.0,0.0,0.0,0.0,0.0,0.0,0.0,0.0,0.0,0.0,0.0,0.0,0.0,0.0,0.0,0.0,0.0,0.0,0.0,0.0,0.0,0.0,0.0,0.0,0.0,0.0,0.0,0.0,0.0,0.0,5.5742,5.7082,0.0,0.0,0.0,0.0,0.0,0.0,0.0,0.0,5.86,0.0,0.0,0.0,0.0,0.0,0.0,0.0,0.0,0.0,0.0,0.0,0.0,0.0,0.0,0.0,0.0,0.0,0.0,0.0,0.0,0.0,0.0,0.0,0.0,0.0,0.0,0.0,0.0,0.0,0.0,0.0,0.0,0.0,0.0,0.0,0.0,0.0,0.0,0.0,0.0,0.0,0.0,0.0,0.0,0.0,0.0,0.0,0.0,0.0,0.0,0.0,0.0,0.0,0.0,0.0,0.0,0.0,0.0,8.2113,8.5359,8.49,8.4241,8.3468,8.1534,7.8271,0.0,0.0,0.0,0.0,0.0,0.0,0.0,0.0,0.0,0.0,0.0,0.0,0.0,0.0,0.0,0.0,0.0,0.0,0.0,0.0,0.0,0.0,0.0,0.0,0.0,0.0,0.0,0.0,0.0,0.0,0.0,0.0,0.0,0.0,0.0,0.0,0.0,0.0,0.0,0.0,0.0,0.0,0.0,0.0,0.0,0.0,0.0,0.0,0.0,0.0,0.0,0.0,0.0,0.0,0.0,0.0,0.0,0.0,0.0,0.0,0.0,0.0,0.0,0.0,0.0,0.0,0.0,0.0,0.0,0.0,0.0,0.0,0.0,0.0,0.0,0.0,0.0,0.0,0.0,0.0,0.0,0.0,0.0,0.0,0.0,0.0,0.0,0.0,0.0,0.0,0.0,0.0,0.0,0.0,0.0,0.0,0.0,0.0,0.0,0.0,0.0,0.0,0.0,0.0,0.0,0.0,0.0,0.0,8.0854,8.4441,8.4262,8.3597,8.2586,8.0523,7.7232,0.0,0.0,0.0,0.0,0.0,0.0,0.0,0.0,0.0,0.0,0.0,0.0,0.0,0.0,0.0,0.0,0.0,0.0,0.0,0.0,0.0,0.0,0.0,0.0,0.0,0.0,0.0,0.0,0.0,0.0,0.0,0.0,0.0,0.0,0.0,0.0,0.0,0.0,0.0,0.0,0.0,0.0,0.0,0.0,0.0,0.0,0.0,0.0,5.6819,0.0,0.0,0.0,0.0,0.0,0.0,0.0,0.0,0.0,0.0,0.0,0.0,0.0,0.0,0.0,0.0,0.0,0.0,0.0,0.0,0.0,0.0,0.0,0.0,0.0,0.0,0.0,0.0,0.0,0.0,0.0,0.0,0.0,0.0,0.0,0.0,0.0,0.0,0.0,0.0,0.0,0.0,0.0,0.0,0.0,0.0,0.0,0.0,0.0,0.0,0.0,0.0,0.0,0.0,0.0,0.0,0.0,0.0,0.0,8.1548,8.4484,8.3333,8.2532,8.2325,7.8691,7.5149,0.0,0.0,0.0,0.0,0.0,0.0,0.0,0.0,0.0,0.0,0.0,0.0,0.0,0.0,0.0,0.0,0.0,0.0,0.0,0.0,0.0,0.0,0.0,0.0,0.0,0.0,0.0,0.0,0.0,0.0,0.0,0.0,0.0,0.0,0.0,0.0,0.0,0.0,0.0,0.0,0.0,0.0,0.0,0.0,0.0,0.0,0.0,0.0,0.0,0.0,0.0,0.0,0.0,0.0,0.0,0.0,0.0,0.0,0.0,0.0,0.0,0.0,0.0,0.0,0.0,0.0,0.0,0.0,0.0,0.0,0.0,0.0,0.0,0.0,0.0,0.0,0.0,0.0,0.0,0.0,0.0,0.0,0.0,0.0,0.0,0.0,0.0,0.0,0.0,0.0,0.0,0.0,0.0,0.0,0.0,0.0,0.0,0.0,0.0,0.0,0.0,0.0,0.0,0.0,0.0,0.0,0.0,0.0,8.023,8.4355,8.3091,8.2417,8.2271,7.8182,7.4721,0.0,0.0,0.0,0.0,0.0,0.0,0.0,0.0,0.0,0.0,0.0,0.0,0.0,0.0,0.0,0.0,0.0,0.0,0.0,0.0,0.0,0.0,0.0,0.0,0.0,0.0,0.0,0.0,0.0,0.0,0.0,0.0,0.0,0.0,0.0,0.0,0.0,0.0,0.0,0.0,0.0,0.0,0.0,0.0,0.0,0.0,0.0,0.0,0.0,0.0,0.0,0.0,0.0,0.0,0.0,0.0,0.0,0.0,0.0,0.0,0.0,0.0,0.0,0.0,0.0,0.0,0.0,0.0,0.0,0.0,0.0,0.0,0.0,0.0,0.0,0.0,0.0,0.0,0.0,0.0,0.0,0.0,0.0,0.0,0.0,0.0,0.0,0.0,0.0,0.0,0.0,0.0,0.0,0.0,0.0,0.0,0.0,0.0,0.0,0.0,0.0,0.0,0.0,0.0,0.0,0.0,0.0,0.0,0.0,8.3059,8.2677,8.2149,8.1568,7.7463,7.4144,0.0,0.0,0.0,0.0,0.0,0.0,0.0,0.0,0.0,0.0,0.0,0.0,0.0,0.0,0.0,0.0,0.0,0.0,0.0,0.0,0.0,0.0,0.0,0.0,0.0,0.0,0.0,0.0,0.0,0.0,0.0,0.0,0.0,0.0,0.0,0.0,0.0,0.0,0.0,0.0,0.0,0.0,0.0,0.0,0.0,0.0,0.0,0.0,0.0,0.0,0.0,0.0,0.0,0.0,0.0,0.0,0.0,0.0,0.0,0.0,0.0,0.0,0.0,0.0,0.0,0.0,0.0,0.0,0.0,0.0,0.0,0.0,0.0,0.0,0.0,0.0,0.0,0.0,0.0,0.0,0.0,0.0,0.0,0.0,0.0,0.0,0.0,0.0,0.0,0.0,0.0,0.0,0.0,0.0,0.0,0.0,0.0,0.0,0.0,0.0,0.0,0.0,0.0,0.0,0.0,0.0,0.0,0.0,0.0,8.0505,8.1648,8.1555,8.0213,7.607,7.2652,0.0,0.0,0.0,0.0,0.0,0.0,0.0,0.0,0.0,0.0,0.0,0.0,0.0,0.0,0.0,0.0,0.0,0.0,0.0,0.0,0.0,0.0,0.0,0.0,0.0,0.0,0.0,0.0,0.0,0.0,0.0,0.0,0.0,0.0,0.0,0.0,0.0,0.0,0.0,0.0,0.0,0.0,0.0,0.0,0.0,0.0,0.0,0.0,0.0,0.0,0.0,0.0,0.0,0.0,0.0,0.0,0.0,0.0,0.0,0.0,0.0,0.0,0.0,0.0,0.0,0.0,0.0,0.0,0.0,0.0,0.0,0.0,0.0,0.0,0.0,0.0,0.0,0.0,0.0,0.0,0.0,0.0,0.0,0.0,0.0,0.0,0.0,0.0,0.0,0.0,0.0,0.0,0.0,0.0,0.0,0.0,0.0,0.0,0.0,0.0,0.0,0.0,0.0,0.0,0.0,0.0,0.0,0.0,0.0,7.625,7.837,7.9276,7.8803,7.5425,7.2521,7.018,0.0,0.0,0.0,0.0,0.0,0.0,0.0,0.0,0.0,0.0,0.0,0.0,0.0,0.0,0.0,0.0,0.0,0.0,0.0,0.0,0.0,0.0,0.0,0.0,0.0,0.0,0.0,0.0,0.0,0.0,0.0,0.0,0.0,0.0,0.0,0.0,0.0,0.0,0.0,0.0,0.0,0.0,0.0,0.0,0.0,0.0,0.0,0.0,0.0,0.0,0.0,0.0,0.0,0.0,0.0,0.0,0.0,0.0,0.0,0.0,0.0,0.0,0.0,0.0,0.0,0.0,0.0,0.0,0.0,0.0,0.0,0.0,0.0,0.0,0.0,0.0,0.0,0.0,0.0,0.0,0.0,0.0,0.0,0.0,0.0,0.0,0.0,0.0,0.0,0.0,0.0,0.0,0.0,0.0,0.0,0.0,0.0,0.0,0.0,0.0,0.0,0.0,0.0,0.0,0.0,0.0,0.0,0.0,7.4392,7.6698,7.7775,7.7237,7.4516,7.1682,0.0,0.0,0.0,0.0,0.0,0.0,0.0,0.0,0.0,0.0,0.0,0.0,0.0,0.0,0.0,0.0,0.0,0.0,0.0,0.0,0.0,0.0,0.0,0.0,0.0,0.0,0.0,0.0,0.0,0.0,0.0,0.0,0.0,0.0,0.0,0.0,0.0,0.0,0.0,0.0,0.0,0.0,0.0,0.0,0.0,0.0,0.0,0.0,0.0,0.0,0.0,0.0,0.0,0.0,0.0,0.0,0.0,0.0,0.0,0.0,0.0,0.0,0.0,0.0,0.0,0.0,0.0,0.0,0.0,0.0,0.0,0.0,0.0,0.0,0.0,0.0,0.0,0.0,0.0,0.0,0.0,0.0,0.0,0.0,0.0,0.0,0.0,0.0,0.0,0.0,0.0,0.0,0.0,0.0,0.0,0.0,0.0,0.0,0.0,0.0,0.0,0.0,0.0,0.0,0.0,0.0,0.0,0.0,7.1925,7.5563,7.7159,7.7159,7.5843,7.3158,6.9797,0.0,0.0,0.0,0.0,0.0,0.0,0.0,0.0,0.0,0.0,0.0,0.0,0.0,0.0,0.0,0.0,0.0,0.0,0.0,0.0,0.0,0.0,0.0,0.0,0.0,0.0,0.0,0.0,0.0,0.0,0.0,0.0,0.0,0.0,0.0,0.0,0.0,0.0,0.0,0.0,0.0,0.0,0.0,0.0,0.0,0.0,0.0,0.0,0.0,0.0,0.0,0.0,0.0,0.0,0.0,0.0,0.0,0.0,0.0,0.0,0.0,0.0,0.0,0.0,0.0,0.0,0.0,0.0,0.0,0.0,0.0,0.0,0.0,0.0,0.0,0.0,0.0,0.0,0.0,0.0,0.0,0.0,0.0,0.0,0.0,0.0,0.0,0.0,0.0,0.0,0.0,0.0,0.0,0.0,0.0,0.0,0.0,0.0,0.0,0.0,0.0,0.0,0.0,0.0,0.0,0.0,0.0,0.0,0.0,7.3276,0.0,7.5317,0.0,7.2938,7.0678,0.0,0.0,0.0,0.0,0.0,0.0,0.0,0.0,0.0,0.0,0.0,0.0,0.0,0.0,0.0,0.0,0.0,0.0,0.0,0.0,0.0,0.0,0.0,0.0,0.0,0.0,0.0,0.0,0.0,0.0,0.0,0.0,0.0,0.0,0.0,0.0,0.0,0.0,0.0,0.0,0.0,0.0,0.0,0.0,0.0,0.0,0.0,0.0,0.0,0.0,0.0,0.0,0.0,0.0,0.0,0.0,0.0,0.0,0.0,0.0,0.0,0.0,0.0,0.0,0.0,0.0,0.0,0.0,0.0,0.0,0.0,0.0,0.0,0.0,0.0,0.0,0.0,0.0,0.0,0.0,0.0,0.0,0.0,0.0,0.0,0.0,0.0,0.0,0.0,0.0,0.0,0.0,0.0,0.0,0.0,0.0,0.0,0.0,0.0,0.0,0.0,0.0,0.0,0.0,0.0,0.0,0.0,0.0,0.0,7.4282,7.5325,7.4725,7.2411,7.2126,7.0476,0.0,0.0,0.0,0.0,0.0,0.0,0.0,0.0,0.0,0.0,0.0,0.0,0.0,0.0,0.0,0.0,0.0,0.0,0.0,0.0,0.0,0.0,0.0,0.0,0.0,0.0,0.0,0.0,0.0,0.0,0.0,0.0,0.0,0.0,0.0,0.0,0.0,0.0,0.0,0.0,0.0,0.0,0.0,0.0,0.0,0.0,0.0,0.0,0.0,0.0,0.0,0.0,0.0,0.0,0.0,0.0,0.0,0.0,0.0,0.0,0.0,0.0,0.0,0.0,0.0,0.0,0.0,0.0,0.0,0.0,0.0,0.0,0.0,0.0,0.0,0.0,0.0,0.0,0.0,0.0,0.0,0.0,0.0,0.0,0.0,0.0,0.0,0.0,0.0,0.0,0.0,0.0,0.0,0.0,0.0,0.0,0.0,0.0,0.0,0.0,0.0,0.0,0.0,0.0,0.0,0.0,0.0,0.0,0.0,0.0,7.6632,7.5162,7.3781,7.0865,6.9211,0.0,0.0,0.0,0.0,0.0,0.0,0.0,0.0,0.0,0.0,0.0,0.0,0.0,0.0,0.0,0.0,0.0,0.0,0.0,0.0,0.0,0.0,0.0,0.0,0.0,0.0,0.0,0.0,0.0,0.0,0.0,0.0,0.0,0.0,0.0,0.0,0.0,0.0,0.0,0.0,0.0,0.0,0.0,0.0,0.0,0.0,0.0,0.0,0.0,0.0,0.0,0.0,0.0,0.0,0.0,0.0,0.0,0.0,0.0,0.0,0.0,0.0,0.0,0.0,0.0,0.0,0.0,0.0,0.0,0.0,0.0,0.0,0.0,0.0,0.0,0.0,0.0,0.0,0.0,0.0,0.0,0.0,0.0,0.0,0.0,0.0,0.0,0.0,0.0,0.0,0.0,0.0,0.0,0.0,0.0,0.0,0.0,0.0,0.0,0.0,0.0,0.0,0.0,0.0,0.0,0.0,0.0,0.0,0.0,0.0,7.6541,0.0,7.5108,7.2411,6.9912,6.7742,0.0,0.0,0.0,0.0,0.0,0.0,0.0,0.0,0.0,0.0,0.0,0.0,0.0,0.0,0.0,0.0,0.0,0.0,0.0,0.0,0.0,0.0,0.0,0.0,0.0,0.0,0.0,0.0,0.0,0.0,0.0,0.0,0.0,0.0,0.0,0.0,0.0,0.0,0.0,0.0,0.0,0.0,0.0,0.0,0.0,0.0,0.0,0.0,0.0,0.0,0.0,0.0,0.0,0.0,0.0,0.0,0.0,0.0,0.0,0.0,0.0,0.0,0.0,0.0,0.0,0.0,0.0,0.0,0.0,0.0,0.0,0.0,0.0,0.0,0.0,0.0,0.0,0.0,0.0,0.0,0.0,0.0,0.0,0.0,0.0,0.0,0.0,0.0,0.0,0.0,0.0,0.0,0.0,0.0,0.0,0.0,0.0,0.0,0.0,0.0,0.0,0.0,0.0,0.0,0.0,0.0,0.0,0.0,0.0,0.0,0.0,7.5843,7.3607,7.1305,0.0,0.0,0.0,0.0,0.0,0.0,0.0,0.0,0.0,0.0,0.0,0.0,0.0,0.0,0.0,0.0,0.0,0.0,0.0,0.0,0.0,0.0,0.0,0.0,0.0,0.0,0.0,0.0,0.0,0.0,0.0,0.0,0.0,0.0,0.0,0.0,0.0,0.0,0.0,0.0,0.0,0.0,0.0,0.0,0.0,0.0,0.0,0.0,0.0,0.0,0.0,0.0,0.0,0.0,0.0,0.0,0.0,0.0,0.0,0.0,0.0,0.0,0.0,0.0,0.0,0.0,0.0,0.0,0.0,0.0,0.0,0.0,0.0,0.0,0.0,0.0,0.0,0.0,0.0,0.0,0.0,0.0,0.0,0.0,0.0,0.0,0.0,0.0,0.0,0.0,0.0,0.0,0.0,0.0,0.0,0.0,0.0,0.0,0.0,0.0,0.0,0.0,0.0,0.0,0.0,0.0,0.0,0.0,0.0,0.0,0.0,7.5843,7.5568,7.4439,0.0,7.125,0.0,0.0,0.0,0.0,0.0,0.0,0.0,0.0,0.0,0.0,0.0,0.0,0.0,0.0,0.0,0.0,0.0,0.0,0.0,0.0,0.0,0.0,0.0,0.0,0.0,0.0,0.0,0.0,0.0,0.0,0.0,0.0,0.0,0.0,0.0,0.0,0.0,0.0,0.0,0.0,0.0,0.0,0.0,0.0,0.0,0.0,0.0,0.0,0.0,0.0,0.0,0.0,0.0,0.0,0.0,0.0,0.0,0.0,0.0,0.0,0.0,0.0,0.0,0.0,0.0,0.0,0.0,0.0,0.0,0.0,0.0,0.0,0.0,0.0,0.0,0.0,0.0,0.0,0.0,0.0,0.0,0.0,0.0,0.0,0.0,0.0,0.0,0.0,0.0,0.0,0.0,0.0,0.0,0.0,0.0,0.0,0.0,0.0,0.0,0.0,0.0,0.0,0.0,0.0,0.0,0.0,0.0,0.0,0.0,0.0,0.0,0.0,7.4911,7.3584,6.9879,0.0,0.0,0.0,0.0,0.0,0.0,0.0,0.0,0.0,0.0,0.0,0.0,0.0,0.0,0.0,0.0,0.0,0.0,0.0,0.0,0.0,0.0,0.0,0.0,0.0,0.0,0.0,0.0,0.0,0.0,0.0,0.0,0.0,0.0,0.0,0.0,0.0,0.0,0.0,0.0,0.0,0.0,0.0,0.0,0.0,0.0,0.0,0.0,0.0,0.0,0.0,0.0,0.0,0.0,0.0,0.0,0.0,0.0,0.0,0.0,0.0,0.0,0.0,0.0,0.0,0.0,0.0,0.0,0.0,0.0,0.0,0.0,0.0,0.0,0.0,0.0,0.0,0.0,0.0,0.0,0.0,0.0,0.0,0.0,0.0,0.0,0.0,0.0,0.0,0.0,0.0,0.0,0.0,0.0,0.0,0.0,0.0,0.0,0.0,0.0,0.0,0.0,0.0,0.0,0.0,0.0,0.0,0.0,0.0,0.0,7.6567,7.3823,7.503,7.3727,6.9408,0.0,0.0,0.0,0.0,0.0,0.0,0.0,0.0,0.0,0.0,0.0,0.0,0.0,0.0,0.0,0.0,0.0,0.0,0.0,0.0,0.0,0.0,0.0,0.0,0.0,0.0,0.0,0.0,0.0,0.0,0.0,0.0,0.0,0.0,0.0,0.0,0.0,0.0,0.0,0.0,0.0,0.0,0.0,0.0,0.0,0.0,0.0,0.0,0.0,0.0,0.0,0.0,0.0,0.0,0.0,0.0,0.0,0.0,0.0,0.0,0.0,0.0,0.0,0.0,0.0,0.0,0.0,0.0,0.0,0.0,0.0,0.0,0.0,0.0,0.0,0.0,0.0,0.0,0.0,0.0,0.0,0.0,0.0,0.0,0.0,0.0,0.0,0.0,0.0,0.0,0.0,0.0,0.0,0.0,0.0,0.0,0.0,0.0,0.0,0.0,0.0,0.0,0.0,0.0,0.0,0.0,0.0,0.0,0.0,0.0,0.0,0.0,0.0,0.0,6.9408,0.0,0.0,0.0,0.0,0.0,0.0,0.0,0.0,0.0,0.0,0.0,0.0,0.0,0.0,0.0,0.0,0.0,0.0,0.0,0.0,0.0,0.0,0.0,0.0,0.0,0.0,0.0,0.0,0.0,0.0,0.0,0.0,0.0,0.0,0.0,0.0,0.0,0.0,0.0,0.0,0.0,0.0,0.0,0.0,0.0,0.0,0.0,0.0,0.0,0.0,0.0,0.0,0.0,0.0,0.0,0.0,0.0,0.0,0.0,0.0,0.0,0.0,0.0,0.0,0.0,0.0,0.0,0.0,0.0,0.0,0.0,0.0,0.0,0.0,0.0,0.0,0.0,0.0,0.0,0.0,0.0,0.0,0.0,0.0,0.0,0.0,0.0,0.0,0.0,0.0,0.0,0.0,0.0,0.0,0.0,0.0,0.0,0.0,0.0,0.0,0.0,0.0,0.0,0.0,0.0,0.0,0.0,0.0,0.0,0.0,0.0,0.0,0.0,0.0,0.0,0.0,0.0,0.0,0.0,0.0,0.0,0.0,0.0,0.0,0.0,0.0,0.0,0.0,0.0,0.0,0.0,0.0,0.0,0.0,0.0,0.0,0.0,0.0,0.0,0.0,0.0,0.0,0.0,0.0,0.0,0.0,0.0,0.0,0.0,0.0,0.0,0.0,0.0,0.0,0.0,0.0,0.0,0.0,0.0,0.0,0.0,0.0,0.0,0.0,0.0,0.0,0.0,0.0,0.0,0.0,0.0,0.0,0.0,0.0,0.0,0.0,0.0,0.0,0.0,0.0,0.0,0.0,0.0,0.0,0.0,0.0,0.0,0.0,0.0,0.0,0.0,0.0,0.0,0.0,0.0,0.0,0.0,0.0,0.0,0.0,0.0,0.0,0.0,0.0,0.0,0.0,0.0,0.0,0.0,0.0,0.0,0.0,0.0,0.0,0.0,0.0,0.0,0.0,0.0,0.0,0.0,0.0,0.0,0.0,0.0,0.0,0.0,0.0,0.0,0.0,0.0,0.0,0.0,0.0,0.0,0.0,0.0,0.0,0.0,0.0,0.0,0.0,0.0,0.0,0.0,0.0,0.0,0.0,0.0,0.0,0.0,0.0,0.0,0.0,0.0,0.0,0.0,0.0,0.0,0.0,0.0,0.0,0.0,0.0,0.0,0.0,0.0,0.0,0.0,0.0,0.0,0.0,0.0,0.0,0.0,0.0,0.0,0.0,0.0,0.0,0.0,0.0,0.0,0.0,0.0,0.0,0.0,0.0,0.0,0.0,0.0,0.0,0.0,0.0,0.0,0.0,0.0,0.0,0.0,0.0,0.0,0.0,0.0,0.0,0.0,0.0,0.0,0.0,0.0,0.0,0.0,0.0,0.0,0.0,0.0,0.0,0.0,0.0,0.0,0.0,0.0,0.0,0.0,0.0,0.0,0.0,0.0,0.0,0.0,0.0,0.0,0.0,0.0,0.0,0.0,0.0,0.0,0.0,0.0,0.0,0.0,0.0,0.0,0.0,0.0,0.0,0.0,0.0,0.0,0.0,0.0,0.0,0.0,0.0,0.0,0.0,0.0,0.0,0.0,0.0,0.0,0.0,0.0,0.0,0.0,0.0,0.0,0.0,0.0,0.0,0.0,0.0,0.0,0.0,0.0,0.0,0.0,0.0,0.0,0.0,0.0,0.0,0.0,0.0,0.0,0.0,0.0,0.0,0.0,0.0,0.0,0.0,0.0,0.0,0.0,0.0,0.0,0.0,0.0,0.0,0.0,0.0,0.0,0.0,0.0,0.0,0.0,0.0,0.0,0.0,0.0,0.0,0.0,0.0,0.0,0.0,0.0,0.0,0.0,0.0,0.0,0.0,0.0,0.0,0.0,0.0,0.0,0.0,0.0,0.0,0.0,0.0,0.0,0.0,0.0,0.0,0.0,0.0,0.0,0.0,0.0,0.0,0.0,0.0,0.0,0.0,0.0,0.0,0.0,0.0,0.0,0.0,0.0,0.0,0.0,0.0,0.0,0.0,0.0,0.0,0.0,0.0,0.0,0.0,0.0,0.0,0.0,0.0,0.0,0.0,0.0,0.0,0.0,0.0,0.0,0.0,0.0,0.0,0.0,0.0,0.0,0.0,0.0,0.0,0.0,0.0,0.0,0.0,0.0,0.0,0.0,0.0,0.0,0.0,0.0,0.0,0.0,0.0,0.0,0.0,0.0,0.0,0.0,0.0,0.0,0.0,0.0,0.0,0.0,0.0,0.0,0.0,0.0,0.0,0.0,0.0,0.0,0.0,0.0,0.0,0.0,0.0,0.0,0.0,0.0,0.0,0.0,0.0,0.0,0.0,0.0,0.0,0.0,0.0,0.0,0.0,0.0,0.0,0.0,0.0,0.0,0.0,0.0,0.0,0.0,0.0,0.0,0.0,0.0,0.0,0.0,0.0,0.0,0.0,0.0,0.0,0.0,0.0,0.0,0.0,0.0,0.0,0.0,0.0,0.0,0.0,0.0,0.0,0.0,0.0,0.0,0.0,0.0,0.0,0.0,0.0,0.0,0.0,0.0,0.0,0.0,0.0,0.0,0.0,0.0,0.0,0.0,0.0,0.0,0.0,0.0,0.0,0.0,0.0,0.0,0.0,0.0,0.0,0.0,0.0,0.0,0.0,0.0,0.0,0.0,0.0,0.0,0.0,0.0,0.0,0.0,0.0,0.0,0.0,0.0,0.0,0.0,0.0,0.0,0.0,0.0,0.0,0.0,0.0,0.0,0.0,0.0,0.0,0.0,0.0,0.0,0.0,0.0,0.0,0.0,0.0,0.0,0.0,0.0,0.0,0.0,0.0,0.0,0.0,0.0,0.0,0.0,0.0,0.0,0.0,0.0,0.0,0.0,0.0,0.0,0.0,0.0,0.0,0.0,0.0,0.0,0.0,0.0,0.0,0.0,0.0,0.0,0.0,0.0,0.0,0.0,0.0,0.0,0.0,0.0,0.0,0.0,0.0,0.0,0.0,0.0,0.0,0.0,0.0,0.0,0.0,0.0,0.0,0.0,0.0,0.0,0.0,0.0,0.0,0.0,0.0,0.0,0.0,0.0,0.0,0.0,0.0,0.0,0.0,0.0,0.0,0.0,0.0,0.0,0.0,0.0,0.0,0.0,0.0,0.0,0.0,0.0,0.0,0.0,0.0,0.0,0.0,0.0,0.0,0.0,0.0,0.0,0.0,0.0,0.0,0.0,0.0,0.0,0.0,0.0,0.0,0.0,0.0,0.0,0.0,0.0,0.0,0.0,0.0,0.0,0.0,0.0,0.0,0.0,0.0,0.0,0.0,0.0,0.0,0.0,0.0,0.0,0.0,0.0,0.0,0.0,0.0,0.0,0.0,0.0,0.0,0.0,0.0,0.0,0.0,0.0,0.0,0.0,0.0,0.0,0.0,0.0,0.0,0.0,0.0,0.0,0.0,0.0,0.0,0.0,0.0,0.0,0.0,0.0,0.0,0.0,0.0,0.0,0.0,0.0,0.0,0.0,0.0,0.0,0.0,0.0,0.0,0.0,0.0,0.0,0.0,0.0,0.0,0.0,0.0,0.0,0.0,0.0,0.0,0.0,0.0,0.0,0.0,0.0,0.0,0.0,0.0,0.0,0.0,0.0,0.0,0.0,0.0,0.0,0.0,0.0,0.0,0.0,0.0,0.0,0.0,0.0,0.0,0.0,0.0,0.0,0.0,0.0,0.0,0.0,0.0,0.0,0.0,0.0,0.0,0.0,0.0,0.0,0.0,0.0,0.0,0.0,0.0,0.0,0.0,0.0,0.0,0.0,0.0,0.0,0.0,0.0,0.0,0.0,0.0,0.0,0.0,0.0,0.0,0.0,0.0,0.0,0.0,0.0,0.0,0.0,0.0,0.0,0.0,0.0,0.0,0.0,0.0,0.0,0.0,0.0,0.0,0.0,0.0,0.0,0.0,0.0,0.0,0.0,0.0,0.0,0.0,0.0,0.0,0.0,0.0,0.0,0.0,0.0,0.0,0.0,0.0,0.0,0.0,0.0,0.0,0.0,0.0,0.0,0.0,0.0,0.0,0.0,0.0,0.0,0.0,0.0,0.0,0.0,0.0,0.0,0.0,0.0,0.0,0.0,0.0,0.0,0.0,0.0,0.0,0.0,0.0,0.0,0.0,0.0,0.0,0.0,0.0,0.0,0.0,0.0,0.0,0.0,0.0,0.0,0.0,0.0,0.0,0.0,0.0,0.0,0.0,0.0,0.0,0.0,0.0,0.0,0.0,0.0,0.0,0.0,0.0,0.0,0.0,0.0,0.0,0.0,0.0,0.0,0.0,0.0,0.0,0.0,0.0,0.0,0.0,0.0,0.0]}],[{"header":{"parameterUnit":"kt","parameterCategory":2,"dx":1,"dy":1,"la1":29.587661999999998,"la2":31.0,"lo1":-88.76705300000003,"lo2":-86.6583820000003,"nx":115,"ny":88,"refTime":"2022-10-06T12:00:00:Z","depth":0,"parameterNumber":2,"parameterNumberName":"V-component_of_WINDS"},"data":[13.4053,13.4519,13.4487,13.4845,13.5364,13.5428,13.5461,13.5461,13.5428,13.5461,13.5364,13.5331,13.491,13.3734,13.4291,13.4519,13.4617,13.4975,13.5783,13.6163,13.5741,13.5965,13.5619,13.4198,13.3002,13.2063,13.1365,13.0659,12.9383,12.986,12.9619,12.8358,12.8909,12.8912,12.8369,12.8399,12.8491,12.843,12.8399,12.8399,12.8673,12.8945,12.8854,12.9216,12.9787,12.9937,12.9997,12.9937,12.9907,12.9821,12.9647,12.9359,12.9158,12.9014,12.8984,12.8635,12.8286,12.7996,12.7763,12.7298,12.689,12.6336,12.5554,12.509,12.4771,12.4394,12.3443,12.2927,12.2667,12.1832,12.1374,12.0744,12.0314,11.9738,11.9129,11.7692,11.621,11.6688,11.7278,11.7071,11.7041,11.7663,11.8161,11.784,11.781,11.7308,11.7249,11.6807,11.5344,11.5314,11.5404,11.5223,11.4982,11.63,11.7604,11.7486,11.6613,11.6356,11.5716,11.4389,11.3329,11.2749,11.2104,11.0819,11.0511,11.1224,11.1389,11.1389,11.1389,11.1389,11.1389,11.1389,11.1389,11.1332,11.1107,13.3791,13.3856,13.3889,13.3955,13.402,13.4053,13.4086,13.4086,13.402,13.4029,13.4151,13.4151,13.3955,13.3758,13.3856,13.3856,13.394,13.4171,13.4333,13.4527,13.4004,13.4045,13.3505,13.2444,13.1596,13.0628,12.955,12.8316,12.7352,12.7939,12.8281,12.7843,12.7973,12.8339,12.8308,12.8247,12.8095,12.7912,12.7912,12.7943,12.8369,12.8854,12.889,12.9068,12.9337,12.9397,12.9129,12.8887,12.8524,12.8303,12.8062,12.7727,12.7442,12.7472,12.7356,12.7298,12.6949,12.66,12.6368,12.6048,12.5614,12.512,12.4427,12.3849,12.3474,12.2754,12.1518,12.1088,12.1116,12.0801,12.0514,12.0112,11.9881,11.9448,11.8864,11.7984,11.6509,11.5465,11.5495,11.5374,11.591,11.6628,11.6539,11.606,11.5525,11.477,11.4351,11.4138,11.4077,11.4229,11.4527,11.4351,11.3619,11.3925,11.4957,11.4405,11.3087,11.3037,11.3467,11.1838,11.067,11.0607,11.0143,10.9201,11.0011,11.1087,11.1389,11.1389,11.1389,11.1389,11.1389,11.1332,11.1219,11.0824,11.0628,13.3725,13.3725,13.3725,13.3725,13.3725,13.3725,13.3725,13.3725,13.3725,13.3725,13.3725,13.3725,13.3725,13.3725,13.3725,13.3565,13.284,13.3133,13.3085,13.2686,13.2209,13.2102,13.1399,13.0408,12.9764,12.9097,12.7759,12.7107,12.6729,12.6904,12.7058,12.6904,12.7391,12.7575,12.7207,12.7207,12.7146,12.7269,12.7391,12.7488,12.7759,12.7863,12.8022,12.7668,12.7468,12.7096,12.6889,12.6457,12.6218,12.6167,12.6381,12.6104,12.6252,12.6106,12.6193,12.6077,12.5554,12.509,12.4657,12.3993,12.3128,12.2264,12.1516,12.163,12.1373,12.1518,12.0285,12.0457,12.0515,12.0256,12.0025,11.9823,11.9621,11.936,11.8806,11.8484,11.7545,11.594,11.5012,11.4649,11.4284,11.4952,11.4921,11.4321,11.2913,11.218,11.4077,11.4345,11.3589,11.3259,11.368,11.3619,11.2273,11.218,11.2177,11.1182,10.9749,11.0421,11.128,10.969,10.8219,10.8293,10.8987,10.9843,11.0619,11.1087,11.1197,11.1389,11.1389,11.0866,11.0865,11.0861,11.0628,11.0177,10.8971,13.3725,13.3725,13.3725,13.3725,13.3725,13.3725,13.3725,13.3725,13.3725,13.3725,13.3668,13.3476,13.325,13.3024,13.2742,13.2211,13.1654,13.1775,13.1561,13.1139,13.0426,13.0256,12.9966,12.8632,12.7903,12.7383,12.6963,12.6486,12.6379,12.6657,12.6811,12.6528,12.6719,12.6904,12.659,12.6559,12.659,12.6595,12.6564,12.6477,12.6136,12.614,12.6383,12.5882,12.5692,12.5264,12.4919,12.4432,12.4258,12.4325,12.4738,12.5062,12.5555,12.5294,12.5207,12.5062,12.3933,12.3358,12.2811,12.2207,12.1461,12.0427,11.9966,11.9505,11.9361,11.9622,11.9882,12.017,12.0227,11.994,11.9709,11.9535,11.9418,11.9156,11.8921,11.8921,11.8862,11.7041,11.5133,11.4071,11.2882,11.2821,11.3006,11.2087,11.0496,11.0685,11.2234,11.2389,11.0998,11.1622,11.1924,11.1848,11.0632,10.9218,10.8873,10.7965,10.6362,10.6577,10.6944,10.651,10.578,10.6037,10.6632,10.8753,11.0094,10.9566,10.9427,11.0232,11.0452,10.9954,10.9649,10.8843,10.8618,10.7284,10.6214,13.3725,13.3668,13.3725,13.3725,13.3725,13.3725,13.3612,13.3725,13.3499,13.3668,13.3363,13.2549,13.2098,13.1928,13.1251,13.0631,13.0332,13.0339,13.0184,13.0081,12.899,12.8537,12.8167,12.7189,12.6906,12.6624,12.643,12.6373,12.6348,12.6441,12.659,12.6404,12.6528,12.6528,12.6373,12.6373,12.6034,12.5814,12.5391,12.498,12.4125,12.4094,12.4491,12.3929,12.381,12.3639,12.3463,12.3224,12.3038,12.3238,12.3343,12.3098,12.3157,12.2983,12.2492,12.206,12.1919,12.1546,12.1231,12.0973,12.0285,11.994,11.9681,11.9564,11.9419,11.9535,11.9418,11.9563,11.9737,11.9563,11.9389,11.9243,11.9185,11.901,11.8775,11.8543,11.7722,11.5795,11.3711,11.1581,11.0549,11.0203,11.0266,10.8904,10.7223,10.6738,10.7256,10.7126,10.7269,10.9254,10.9688,10.9909,10.7799,10.5834,10.5579,10.4829,10.3095,10.227,10.2002,10.1894,10.296,10.3728,10.4344,10.5653,10.6945,10.6974,10.78,10.8088,10.8398,10.8092,10.7485,10.6767,10.5338,10.3642,10.2577,13.2662,13.2775,13.3419,13.3725,13.3725,13.3725,13.2831,13.159,13.1533,13.1477,13.1421,13.1001,13.0832,13.0719,13.0211,12.959,12.8938,12.8881,12.8543,12.8179,12.7307,12.7189,12.7019,12.6599,12.6373,12.6373,12.6373,12.6373,12.6373,12.6373,12.6373,12.6373,12.6373,12.6373,12.626,12.6034,12.5496,12.4546,12.3902,12.3363,12.3141,12.3182,12.2681,12.2106,12.1906,12.1396,12.0801,12.057,12.0508,12.066,12.1047,12.0999,12.1058,12.1288,12.1087,12.103,12.0744,12.0515,12.017,12.0113,11.9766,11.9447,11.9243,11.9301,11.9301,11.936,11.9156,11.9067,11.9127,11.9185,11.9039,11.8894,11.8894,11.8894,11.8572,11.8164,11.6449,11.4527,11.2079,10.9571,10.8265,10.7835,10.6886,10.5354,10.4384,10.4714,10.4714,10.4779,10.6236,10.7038,10.6848,10.6747,10.4598,10.2752,10.2324,10.1884,10.1581,10.14,10.0212,9.9838,10.0345,10.1118,10.1859,10.2782,10.3875,10.5574,10.7122,10.702,10.575,10.5679,10.5106,10.2814,10.0461,9.9401,9.9018,13.1453,13.1509,13.2323,13.2686,13.2686,13.2629,13.1759,13.0155,13.0042,13.0042,12.9985,12.9671,12.9502,12.9477,12.9139,12.8373,12.7891,12.7496,12.6963,12.6737,12.6655,12.643,12.6373,12.6373,12.6373,12.6373,12.6373,12.6373,12.6373,12.6373,12.6373,12.6373,12.6373,12.5947,12.5721,12.5439,12.389,12.2735,12.2283,12.1775,12.1579,12.1383,12.1014,12.0535,12.0336,12.0084,11.9575,11.9261,11.938,11.9411,11.9706,11.994,11.9968,12.04,12.0515,12.0457,12.0256,12.0083,11.9593,11.9506,11.9389,11.9125,11.9038,11.895,11.895,11.9008,11.9008,11.8979,11.9038,11.9039,11.9008,11.8611,11.8329,11.8273,11.8186,11.783,11.7249,11.5012,11.2118,10.9507,10.6218,10.5779,10.5306,10.4003,10.3671,10.3638,10.397,10.4714,10.5304,10.4052,10.3475,10.2963,10.1425,10.0471,9.9906,9.9711,10.0174,10.0395,9.9279,9.8594,9.9065,9.9321,9.9504,10.0355,10.1628,10.3593,10.5421,10.3966,10.1891,10.1978,10.1479,9.8307,9.5763,9.5488,9.516,13.0098,13.0098,13.0155,13.0268,13.0179,13.0211,13.013,12.9985,12.9961,12.9873,12.9873,12.8543,12.8173,12.7947,12.7076,12.6712,12.6624,12.6568,12.6486,12.6373,12.6373,12.6373,12.6373,12.6373,12.6373,12.6373,12.6373,12.6373,12.6373,12.6373,12.6373,12.6373,12.6116,12.5183,12.4167,12.3408,12.2253,12.1293,12.0756,12.0417,12.0022,11.96,11.9571,11.9458,11.9345,11.9176,11.9063,11.8979,11.9185,11.9361,11.9651,12.0055,12.0343,12.0687,12.0285,11.9853,11.9301,11.9214,11.9039,11.9069,11.8979,11.8979,11.8837,11.8837,11.8724,11.8386,11.816,11.816,11.8104,11.8386,11.8555,11.8047,11.7539,11.7593,11.7593,11.6878,11.6585,11.4588,11.1591,10.8681,10.5354,10.4119,10.3771,10.3505,10.3187,10.3187,10.3372,10.4102,10.3822,10.2367,10.1586,10.095,9.9812,9.8559,9.7923,9.7796,9.8142,9.8436,9.7568,9.7513,9.7761,9.8082,9.7944,9.8225,9.9504,10.0194,10.0808,9.9948,9.8446,9.7422,9.7111,9.4694,9.3569,9.2864,9.2741,12.8825,12.885,12.9703,13.0042,12.9816,12.8292,12.7615,12.7615,12.7615,12.7615,12.7615,12.7276,12.7019,12.6906,12.6599,12.6373,12.6373,12.6373,12.6373,12.6373,12.6373,12.6373,12.6373,12.6373,12.6373,12.6373,12.6373,12.6373,12.6373,12.6373,12.6229,12.6004,12.5465,12.4055,12.2588,12.1685,12.0842,12.0052,11.974,11.9401,11.9119,11.895,11.895,11.895,11.895,11.895,11.895,11.8979,11.9038,11.9098,11.9214,11.9387,11.9445,11.9561,11.9418,11.9301,11.9038,11.9008,11.8894,11.8894,11.8781,11.8781,11.8047,11.7736,11.7652,11.7426,11.7088,11.6919,11.6467,11.6524,11.6524,11.6354,11.6211,11.6623,11.6035,11.4137,11.3302,11.1217,10.8425,10.6023,10.3372,10.3205,10.2987,10.282,10.2722,10.2722,10.2771,10.292,10.2938,10.2008,10.1129,10.0202,9.908,9.8006,9.7176,9.6688,9.6542,9.6444,9.6583,9.6753,9.6953,9.6937,9.6333,9.6136,9.6762,9.7146,9.7,9.6789,9.639,9.5403,9.392,9.2644,9.1468,9.1059,9.0856,12.7496,12.7552,12.843,12.88,12.8574,12.6994,12.6373,12.6373,12.6373,12.6373,12.6373,12.6373,12.6373,12.6373,12.6373,12.6373,12.6373,12.6373,12.6373,12.6373,12.6373,12.6373,12.6373,12.6373,12.6373,12.6373,12.6373,12.6373,12.6317,12.5721,12.5691,12.5352,12.428,12.2701,12.1207,12.0135,11.9853,11.9119,11.895,11.895,11.895,11.895,11.895,11.895,11.895,11.895,11.895,11.895,11.8979,11.9008,11.9038,11.9067,11.9067,11.9067,11.9008,11.8979,11.8979,11.895,11.8894,11.8442,11.8329,11.8216,11.7991,11.7991,11.7709,11.6862,11.6636,11.6749,11.7201,11.7088,11.6185,11.6129,11.6156,11.6569,11.5347,11.3354,11.1723,10.9383,10.6867,10.4779,10.2953,10.282,10.282,10.282,10.2429,10.2332,10.2072,10.2088,10.1731,10.1032,10.0349,9.9275,9.8379,9.7371,9.6737,9.659,9.6444,9.6346,9.6346,9.6182,9.5938,9.588,9.5317,9.4547,9.4425,9.4333,9.4281,9.4151,9.4039,9.3574,9.2129,9.0791,9.0556,9.0323,9.0021,12.643,12.6373,12.6486,12.6486,12.6599,12.6373,12.6373,12.6373,12.6373,12.6373,12.6373,12.6373,12.6373,12.6373,12.6373,12.6373,12.6373,12.6373,12.6373,12.6373,12.6373,12.6373,12.6373,12.6373,12.6373,12.6373,12.606,12.5947,12.6147,12.4988,12.4506,12.4055,12.2926,12.1659,12.0643,11.9514,11.9006,11.895,11.895,11.895,11.895,11.895,11.895,11.895,11.895,11.895,11.895,11.895,11.895,11.895,11.895,11.895,11.895,11.895,11.8781,11.8724,11.8724,11.8668,11.8668,11.7596,11.7257,11.7257,11.7596,11.7991,11.8555,11.8499,11.7878,11.7031,11.7709,11.8104,11.8047,11.7596,11.7596,11.7247,11.5727,11.4127,11.3079,11.1301,10.8361,10.5877,10.4185,10.282,10.282,10.2673,10.2268,10.1926,10.1438,10.0934,10.0397,9.9763,9.9177,9.8347,9.7615,9.6834,9.659,9.6444,9.6249,9.6298,9.6053,9.5499,9.5157,9.4882,9.4199,9.332,9.3069,9.2915,9.2299,9.1682,9.1705,9.1739,9.0323,9.0021,9.0021,9.0021,9.0021,12.6373,12.6373,12.6373,12.6373,12.6373,12.6373,12.6373,12.6373,12.6373,12.6373,12.6373,12.6373,12.6373,12.6373,12.6373,12.6373,12.6373,12.6373,12.6373,12.6373,12.6373,12.6373,12.6373,12.6317,12.6091,12.6147,12.5665,12.4983,12.4957,12.3803,12.3239,12.2475,12.1207,12.0248,11.9458,11.9119,11.895,11.895,11.895,11.895,11.895,11.895,11.895,11.8837,11.8837,11.8781,11.8668,11.8555,11.8668,11.8668,11.8724,11.8837,11.8894,11.8837,11.8442,11.7963,11.7512,11.7088,11.658,11.6072,11.6185,11.6524,11.6862,11.7088,11.7088,11.6806,11.7144,11.6862,11.6693,11.6298,11.61,11.6265,11.6572,11.6484,11.5044,11.3221,11.2361,11.0841,10.8393,10.6641,10.4714,10.282,10.2771,10.2625,10.2414,10.2365,10.1731,10.095,9.9958,9.8868,9.8201,9.742,9.6786,9.6542,9.6298,9.5907,9.5517,9.5517,9.5157,9.4669,9.4132,9.3808,9.3241,9.2412,9.1826,9.1436,9.1173,9.0861,9.0441,9.0021,9.0021,9.0021,9.0021,9.0021,9.0021,12.6373,12.6373,12.6373,12.6373,12.6373,12.6373,12.6373,12.6373,12.6373,12.6373,12.6373,12.6373,12.6373,12.6373,12.6373,12.6373,12.6373,12.6373,12.6373,12.6373,12.626,12.6004,12.5609,12.5496,12.5326,12.4736,12.4198,12.3686,12.3573,12.2475,12.1884,12.1038,11.9909,11.9063,11.895,11.9006,11.895,11.895,11.895,11.895,11.895,11.895,11.8724,11.8329,11.8246,11.8047,11.7652,11.7539,11.7568,11.7512,11.7426,11.7314,11.7257,11.7342,11.6975,11.6467,11.6354,11.6072,11.548,11.4464,11.4436,11.5169,11.5959,11.658,11.7878,11.7314,11.6806,11.6693,11.7031,11.737,11.6519,11.5858,11.531,11.4808,11.3577,11.1571,10.9951,10.8278,10.6348,10.6316,10.4779,10.2987,10.2673,10.2512,10.2512,10.2527,10.1877,10.0999,9.9372,9.8135,9.7208,9.6378,9.5889,9.5596,9.4784,9.4736,9.4784,9.4492,9.4181,9.3467,9.2802,9.2558,9.2265,9.1533,9.0821,9.0753,9.0509,9.0118,9.0021,9.0021,9.0021,9.0021,9.0021,9.0021,9.0021,12.626,12.6091,12.6034,12.6034,12.6173,12.626,12.626,12.6373,12.6373,12.6373,12.6373,12.6373,12.6373,12.6373,12.6373,12.6373,12.6373,12.626,12.606,12.6004,12.6004,12.5126,12.4619,12.4167,12.3829,12.3099,12.2618,12.2505,12.2223,12.1207,12.0079,11.9119,11.9119,11.9006,11.895,11.895,11.895,11.895,11.8611,11.8611,11.8611,11.8329,11.7934,11.7088,11.6806,11.6439,11.5395,11.5621,11.5734,11.579,11.5847,11.579,11.5959,11.5903,11.5677,11.5282,11.5113,11.4831,11.4182,11.2997,11.2404,11.3477,11.5,11.658,11.7934,11.8499,11.8837,11.8499,11.8216,11.8442,11.7883,11.7045,11.6163,11.5495,11.4303,11.2144,10.993,10.7656,10.6073,10.5975,10.4977,10.3338,10.2722,10.1682,10.1487,10.1389,10.0755,9.9177,9.7794,9.7061,9.6134,9.5255,9.4864,9.4327,9.3418,9.332,9.3534,9.3418,9.3095,9.246,9.1699,9.1357,9.1211,9.0626,9.0382,9.0216,9.0021,9.0021,9.0021,9.0021,9.0021,9.0021,9.0021,9.0021,9.0021,12.5301,12.3577,12.3521,12.4085,12.4901,12.4901,12.5439,12.626,12.626,12.6317,12.6373,12.626,12.626,12.6317,12.6204,12.6091,12.6204,12.5296,12.5014,12.4562,12.4055,12.3521,12.3182,12.3069,12.29,12.2704,12.1602,12.1207,12.0812,12.0135,11.9345,11.895,11.895,11.895,11.895,11.8837,11.8781,11.8668,11.7934,11.7539,11.737,11.6749,11.6185,11.5847,11.5677,11.5564,11.5339,11.5141,11.5169,11.5113,11.5,11.4887,11.4944,11.4831,11.4549,11.3928,11.3815,11.3533,11.263,11.2095,11.1727,11.2235,11.3477,11.5395,11.7031,11.7539,11.7765,11.8894,11.895,11.895,11.8804,11.8364,11.7071,11.594,11.4527,11.2913,11.081,10.7752,10.5845,10.5141,10.4003,10.282,10.1649,10.0755,10.03,10.0153,9.8982,9.7354,9.6475,9.5889,9.4913,9.3857,9.3564,9.3369,9.29,9.2802,9.243,9.2333,9.204,9.1552,9.087,9.0509,9.0431,9.0284,9.0118,9.0021,9.0021,9.0021,9.0021,9.0021,9.0021,9.0021,9.0021,9.0021,9.0021,12.3946,12.2704,12.2704,12.3069,12.3603,12.366,12.4085,12.468,12.4706,12.4793,12.4706,12.4736,12.4736,12.4623,12.4706,12.4793,12.4623,12.3972,12.366,12.3434,12.3069,12.2422,12.1941,12.1801,12.1406,12.0955,12.0304,12.0022,11.9796,11.9289,11.895,11.895,11.895,11.8894,11.895,11.8386,11.816,11.7765,11.6975,11.6298,11.6129,11.5621,11.5057,11.4492,11.4436,11.4041,11.3646,11.3589,11.3589,11.3589,11.3589,11.3589,11.3589,11.3533,11.3364,11.2517,11.2517,11.2179,11.1558,11.1445,11.1445,11.1727,11.2687,11.3872,11.5169,11.6354,11.7596,11.8837,11.895,11.895,11.8921,11.7925,11.6922,11.4891,11.1768,10.9666,10.7159,10.5616,10.4957,10.3838,10.2722,10.1356,10.0137,9.934,9.8836,9.8299,9.7012,9.5792,9.5206,9.4522,9.3515,9.2558,9.2412,9.2344,9.2265,9.207,9.1552,9.1309,9.1065,9.0821,9.0167,9.0021,9.0118,9.007,9.0021,9.0021,9.0021,9.0021,9.0021,9.0021,9.0021,9.0021,9.0021,9.0021,9.0021,12.2253,12.2166,12.2166,12.2366,12.2422,12.2392,12.2505,12.2761,12.2874,12.2704,12.2987,12.2817,12.2874,12.293,12.293,12.2817,12.2704,12.2592,12.2392,12.2336,12.1997,12.132,12.0672,12.0503,12.0052,11.9514,11.9176,11.895,11.9063,11.9063,11.895,11.8837,11.8781,11.8668,11.8329,11.7399,11.6862,11.6608,11.5818,11.5226,11.5,11.4746,11.3984,11.3364,11.3025,11.2743,11.2009,11.1897,11.184,11.1671,11.1558,11.1445,11.1389,11.1389,11.1389,11.1389,11.1389,11.1389,11.1445,11.1389,11.1389,11.1614,11.2292,11.2912,11.3702,11.5057,11.6806,11.8442,11.8668,11.8611,11.8457,11.6759,11.4194,11.2199,11.0591,10.7684,10.4344,10.4214,10.3455,10.2358,10.1081,9.9828,9.8462,9.7876,9.7225,9.6182,9.5206,9.4522,9.3839,9.2979,9.2021,9.1582,9.1338,9.1222,9.1045,9.0802,9.046,9.0314,9.0265,9.0167,9.0021,9.0021,9.0021,9.0021,9.0021,9.0021,9.0021,9.0021,9.0021,9.0021,9.0021,9.0021,9.0021,9.0021,9.0021,11.9684,11.9684,11.9713,12.0248,12.0981,12.1124,12.1659,12.2535,12.2592,12.2535,12.2704,12.2592,12.2535,12.2648,12.2592,12.2592,12.2561,12.1463,12.118,12.0955,12.0361,11.974,11.9345,11.9232,11.9261,11.895,11.895,11.895,11.895,11.8837,11.8894,11.8611,11.7765,11.7426,11.7144,11.6242,11.579,11.5564,11.5254,11.4662,11.3702,11.2743,11.1953,11.1784,11.1784,11.1784,11.1445,11.1389,11.1389,11.1389,11.1389,11.1389,11.1389,11.1389,11.1389,11.1389,11.1389,11.1389,11.1389,11.1389,11.1389,11.1389,11.1671,11.1784,11.2292,11.3533,11.5113,11.6862,11.7426,11.7709,11.8186,11.7383,11.5302,11.3008,11.0893,10.8822,10.5124,10.2909,10.222,10.0312,9.9517,9.812,9.6688,9.5907,9.5029,9.4004,9.3223,9.2588,9.2149,9.1338,9.1143,9.0704,9.046,9.0294,9.0167,9.0021,9.0021,9.0021,9.0021,9.0021,9.0021,9.0021,9.0021,9.0021,9.0021,9.0021,9.0021,9.0021,9.0021,9.0021,9.0021,9.0021,9.0021,9.0021,9.0021,11.895,11.895,11.895,11.9345,11.9796,11.9853,12.0248,12.0842,12.0869,12.0869,12.0869,12.0898,12.0869,12.0898,12.0869,12.0869,12.0699,12.0079,11.9939,11.9796,11.9289,11.895,11.9006,11.895,11.895,11.8894,11.895,11.895,11.8894,11.8386,11.7934,11.7709,11.6806,11.6185,11.5903,11.5,11.4436,11.4154,11.3618,11.2941,11.2404,11.184,11.1445,11.1445,11.1445,11.1389,11.1389,11.1389,11.1389,11.1389,11.1389,11.1389,11.1389,11.1389,11.1389,11.1389,11.1389,11.1389,11.1389,11.1389,11.1389,11.1389,11.1445,11.1389,11.1727,11.2517,11.3928,11.5057,11.5621,11.6467,11.7144,11.6523,11.4979,11.2666,11.0421,10.755,10.4515,10.2545,9.9742,9.6792,9.628,9.5583,9.4443,9.376,9.2802,9.1973,9.1241,9.0753,9.0411,9.0314,9.0411,9.0167,9.0216,9.0118,9.007,9.0021,9.0021,9.0021,9.0021,9.0021,9.0021,9.0021,9.0021,9.0021,9.0021,9.0021,9.0021,9.0021,9.0021,9.0021,9.0021,9.0021,9.0021,9.0021,9.0021,11.895,11.895,11.895,11.895,11.895,11.895,11.9063,11.895,11.9119,11.895,11.9063,11.9006,11.9119,11.9063,11.895,11.9006,11.9289,11.9232,11.9149,11.9063,11.9006,11.895,11.895,11.895,11.8724,11.8724,11.8216,11.8047,11.7821,11.737,11.6806,11.6496,11.5564,11.5,11.4605,11.3759,11.2997,11.2885,11.2208,11.184,11.1614,11.1445,11.1389,11.1389,11.1389,11.1389,11.1389,11.1389,11.1389,11.1389,11.1389,11.1389,11.1389,11.1389,11.1389,11.1389,11.1389,11.1389,11.1389,11.1389,11.1389,11.1389,11.1389,11.1389,11.1614,11.2348,11.2856,11.3477,11.4154,11.5085,11.5198,11.4432,11.3036,11.0327,10.7523,10.4508,10.1893,9.9584,9.689,9.4229,9.3369,9.2704,9.2314,9.1729,9.1338,9.0948,9.0509,9.0216,9.0021,9.0021,9.0021,9.0021,9.0021,9.0021,9.0021,9.0021,9.0021,9.0021,9.0021,9.0021,9.0021,9.0021,9.0021,9.0021,9.0021,9.0021,9.0021,9.0021,9.0021,9.0021,9.0021,9.0021,9.0021,9.0021,9.0021,11.895,11.895,11.895,11.895,11.895,11.895,11.895,11.895,11.895,11.895,11.895,11.895,11.895,11.895,11.895,11.895,11.895,11.895,11.895,11.895,11.895,11.895,11.8837,11.8641,11.816,11.7257,11.658,11.6129,11.6072,11.5621,11.5508,11.5282,11.4267,11.3702,11.3364,11.2377,11.1813,11.1897,11.1558,11.1389,11.1389,11.1389,11.1389,11.1389,11.1389,11.1389,11.1389,11.1389,11.1389,11.1389,11.1389,11.1389,11.1389,11.1389,11.1389,11.1305,11.1107,11.0994,11.0937,11.1107,11.1163,11.1389,11.1332,11.1276,11.1219,11.1389,11.1502,11.1953,11.2461,11.3618,11.4859,11.2718,10.9597,10.6913,10.2686,9.912,9.6647,9.4958,9.3857,9.1991,9.1729,9.1485,9.085,9.0509,9.0265,9.007,9.007,9.0021,9.0021,9.0021,9.0021,9.0021,9.0021,9.0021,9.0021,9.0021,9.0021,9.0021,9.0021,9.0021,9.0021,9.0021,9.0021,9.0021,9.0021,9.0021,9.0021,9.0021,9.0021,9.0021,9.0021,9.0021,9.0021,9.0021,9.0021,11.7934,11.7991,11.8697,11.895,11.895,11.895,11.895,11.895,11.895,11.895,11.895,11.895,11.895,11.895,11.895,11.8894,11.895,11.895,11.8894,11.8894,11.8894,11.8894,11.8837,11.7738,11.6749,11.6214,11.5452,11.531,11.5057,11.4718,11.4267,11.4097,11.2885,11.2461,11.2122,11.1727,11.1445,11.1389,11.1389,11.1389,11.1389,11.1389,11.1389,11.1389,11.1389,11.1389,11.1389,11.1389,11.1389,11.1389,11.1389,11.1389,11.1389,11.0797,11.0486,11.0289,10.9895,10.947,10.947,10.9387,10.95,10.9414,10.9414,10.947,10.9414,10.9414,10.9387,10.9556,11.0064,11.0599,11.1025,10.9202,10.8511,10.6122,10.2566,9.9385,9.7525,9.4004,9.1192,9.0948,9.0802,9.046,9.0265,9.0167,9.0021,9.0021,9.0021,9.0021,9.0021,9.0021,9.0021,9.0021,9.0021,9.0021,9.0021,9.0021,9.0021,9.0021,9.0021,9.0021,9.0021,9.0021,9.0021,9.0021,9.0021,9.0021,9.0021,9.0021,9.0021,9.0021,9.0021,9.0021,9.0021,9.0021,9.0021,11.6636,11.6749,11.7736,11.816,11.8131,11.816,11.8104,11.8047,11.8104,11.7934,11.8104,11.8133,11.8047,11.8047,11.7963,11.816,11.7934,11.7963,11.816,11.816,11.816,11.816,11.7652,11.5959,11.4915,11.4718,11.4605,11.4379,11.4126,11.3307,11.2912,11.2799,11.2009,11.1445,11.1502,11.1445,11.1389,11.1389,11.1389,11.1389,11.1389,11.1389,11.1389,11.1389,11.1389,11.1389,11.1389,11.1389,11.1079,11.0684,11.0486,11.026,11.0177,10.9613,10.9244,10.8992,10.8315,10.7807,10.7751,10.7864,10.7751,10.792,10.7977,10.7694,10.7694,10.7864,10.7807,10.7694,10.7694,10.8089,10.8152,10.7409,10.6667,10.5502,10.2033,9.8957,9.8577,9.4432,9.1151,9.0304,9.007,9.0021,9.0021,9.0021,9.0021,9.0021,9.0021,9.0021,9.0021,9.0021,9.0021,9.0021,9.0021,9.0021,9.0021,9.0021,9.0021,9.0021,9.0021,9.0021,9.0021,9.0021,9.0021,9.0021,9.0021,9.0021,9.0021,9.0021,9.0021,9.0021,9.0021,9.0021,9.0021,9.0021,9.0021,11.5423,11.5423,11.5621,11.5677,11.5705,11.5677,11.5903,11.5734,11.5903,11.5903,11.5903,11.5734,11.6016,11.5677,11.6129,11.5762,11.579,11.6072,11.5903,11.5931,11.5931,11.5734,11.5564,11.4097,11.3589,11.342,11.2292,11.2066,11.2122,11.1953,11.1671,11.1727,11.1614,11.1389,11.1389,11.1389,11.1389,11.1389,11.1389,11.1389,11.1219,11.1332,11.1276,11.1276,11.1276,11.1389,11.1389,11.1219,11.0346,10.8202,10.8059,10.8259,10.8202,10.8089,10.792,10.7751,10.7582,10.7356,10.7525,10.73,10.7469,10.7356,10.7412,10.7694,10.7356,10.7243,10.7243,10.7187,10.7638,10.7356,10.7088,10.56,10.4867,10.4078,9.9598,9.6796,9.6469,9.4908,9.2313,9.041,9.0001,9.0021,9.0021,9.0021,9.0021,9.0021,9.0021,9.0021,9.0021,9.0021,9.0021,9.0021,9.0021,9.0021,9.0021,9.0021,9.0021,9.0021,9.0021,9.0021,9.0021,9.0021,9.0021,9.0021,9.0021,9.0021,9.0021,9.0021,9.0021,9.0021,9.0021,9.0021,9.0021,9.0021,8.9728,11.4154,11.421,11.4944,11.5254,11.5254,11.5254,11.5254,11.5254,11.5254,11.5254,11.5254,11.5254,11.5254,11.5254,11.5282,11.5254,11.5254,11.5254,11.5226,11.5226,11.5141,11.4379,11.3194,11.2574,11.2179,11.2122,11.1614,11.1445,11.1389,11.1389,11.1389,11.1389,11.1389,11.1389,11.1389,11.1389,11.1389,11.1389,11.1389,11.0994,11.0542,11.1023,11.0994,11.0515,11.105,11.1389,11.1276,11.0712,10.9583,10.8146,10.7638,10.7694,10.7638,10.7074,10.6679,10.6623,10.5946,10.5551,10.5551,10.5551,10.5577,10.5577,10.5577,10.5551,10.5607,10.5551,10.5551,10.5607,10.5551,10.5551,10.5369,10.4661,10.4083,10.3555,10.0572,9.7995,9.6969,9.4954,9.2627,9.0798,9.0021,9.0021,9.0021,9.0021,9.0021,9.0021,9.0021,9.0021,9.0021,9.0021,9.0021,9.0021,9.0021,9.0021,9.0021,9.0021,9.0021,9.0021,9.0021,9.0021,9.0021,9.0021,9.0021,9.0021,9.0021,9.0021,9.0021,9.0021,9.0021,9.0021,9.0021,9.0021,9.0021,8.9972,8.9533,11.2856,11.2885,11.3872,11.4267,11.4238,11.4267,11.421,11.4182,11.4182,11.4041,11.421,11.4238,11.4097,11.421,11.4154,11.4267,11.4069,11.4126,11.4267,11.4267,11.4238,11.3025,11.1727,11.1389,11.1445,11.1445,11.1445,11.1389,11.1389,11.1389,11.1389,11.1389,11.1389,11.1389,11.1389,11.1389,11.1389,11.1389,11.1389,11.0797,11.0007,11.0515,11.0317,10.933,10.9865,11.0317,11.0317,10.9583,10.8541,10.7356,10.6905,10.6679,10.651,10.5833,10.5438,10.5325,10.4592,10.4028,10.4084,10.4084,10.4084,10.3971,10.4253,10.3971,10.3971,10.4028,10.4028,10.3971,10.3971,10.4084,10.4028,10.4007,10.4007,10.3767,10.2428,10.0185,9.7574,9.5344,9.3175,9.0643,9.0031,9.0021,9.0021,9.0021,9.0021,9.0021,9.0021,9.0021,9.0021,9.0021,9.0021,9.0021,9.0021,9.0021,9.0021,9.0021,9.0021,9.0021,9.0021,9.0021,9.0021,9.0021,9.0021,8.9972,8.9972,8.9923,8.9972,8.9777,8.9972,9.0021,8.9777,8.9318,8.9513,8.924,8.8703,11.1502,11.1502,11.1614,11.1784,11.184,11.184,11.1897,11.1784,11.1784,11.1897,11.184,11.2009,11.184,11.1727,11.2066,11.2066,11.1671,11.1953,11.1925,11.1643,11.1531,11.1445,11.0994,11.0937,11.0937,11.105,11.1107,11.1163,11.0994,11.0966,11.1361,11.1107,11.0994,11.1276,11.105,11.1305,11.1276,11.1219,11.1332,11.0741,10.9613,10.9782,10.9188,10.792,10.8033,10.8202,10.8202,10.7834,10.713,10.6058,10.5043,10.4592,10.431,10.414,10.4253,10.4253,10.4084,10.3971,10.3971,10.3971,10.3971,10.3971,10.3971,10.3971,10.3971,10.3971,10.3971,10.3971,10.3971,10.3971,10.3971,10.3971,10.3971,10.3946,10.3613,10.1714,9.7873,9.7055,9.4838,9.1493,9.0031,8.9972,9.0001,8.9972,9.0021,9.0021,9.0021,9.0021,9.0021,9.0021,9.0021,9.0021,9.0021,9.0021,9.0021,9.0021,9.0021,9.0021,9.0021,9.0021,9.0021,9.0021,9.0021,8.9923,8.9923,8.9874,8.9777,8.9435,8.9338,8.9191,8.885,8.8635,8.8293,8.7825,8.7337,11.1389,11.1389,11.1389,11.1389,11.1389,11.1389,11.1389,11.1389,11.1389,11.1389,11.1389,11.1389,11.1389,11.1389,11.1389,11.1389,11.1389,11.1389,11.0542,10.9218,10.9075,10.9075,10.9075,10.9048,10.9075,10.9075,10.9075,10.9048,10.9048,10.9075,10.9075,10.9075,10.9075,10.9132,10.9132,10.9809,11.0233,11.0429,11.0937,11.0429,10.9019,10.9244,10.8627,10.7017,10.73,10.7638,10.7582,10.6115,10.5156,10.4704,10.431,10.4028,10.3971,10.3971,10.3971,10.3971,10.3971,10.3971,10.3971,10.3971,10.3971,10.3971,10.3971,10.3971,10.3971,10.3971,10.3971,10.3971,10.3971,10.3971,10.3971,10.3971,10.3971,10.3971,10.3971,10.3227,10.19,10.0157,9.7165,9.3628,9.2084,9.1385,9.0498,9.0021,9.0021,9.0021,9.0021,9.0021,9.0021,9.0021,9.0021,9.0021,9.0021,9.0021,9.0021,9.0021,9.0021,8.9826,8.9679,8.9484,8.9484,8.9435,8.9484,8.9387,8.9094,8.8996,8.8508,8.8333,8.8333,8.7845,8.7532,8.7415,8.7268,8.6703,8.6118,11.1389,11.1389,11.1389,11.1389,11.1389,11.1389,11.1389,11.1389,11.0937,11.0824,11.0768,11.0429,11.0204,11.026,11.0233,11.0204,11.0233,11.0177,10.933,10.7977,10.7694,10.7751,10.7751,10.7694,10.7694,10.7694,10.7694,10.7694,10.7751,10.7751,10.7694,10.7694,10.7694,10.7694,10.7807,10.8541,10.8992,10.9132,10.9809,10.9218,10.7495,10.8033,10.7469,10.5664,10.6115,10.6536,10.6453,10.493,10.4028,10.4028,10.3971,10.3971,10.3971,10.3971,10.3971,10.3971,10.3971,10.3971,10.3971,10.3971,10.3971,10.3971,10.3971,10.3971,10.3971,10.3971,10.3971,10.3971,10.3971,10.3971,10.3971,10.3971,10.3971,10.3971,10.3971,10.3894,10.3382,10.1792,9.8793,9.5344,9.3939,9.2884,9.1472,9.0148,9.0031,9.0021,9.0021,9.0021,9.0021,9.0021,8.9972,8.9972,9.0021,9.0021,9.0021,9.0021,8.9338,8.8655,8.846,8.8264,8.8411,8.846,8.8606,8.8508,8.8118,8.7728,8.7142,8.6919,8.7114,8.687,8.6459,8.6264,8.6243,8.5804,8.5169,11.1276,11.1219,11.1389,11.1107,11.105,11.105,11.1276,11.0937,11.0091,10.9613,10.95,10.8454,10.8116,10.7947,10.8146,10.7777,10.7694,10.7694,10.7525,10.7356,10.7356,10.7356,10.7356,10.73,10.73,10.73,10.7525,10.7525,10.7356,10.73,10.73,10.7525,10.7356,10.7187,10.7582,10.7314,10.7536,10.7671,10.7655,10.7088,10.6089,10.6175,10.5529,10.4079,10.394,10.4053,10.4017,10.4033,10.3971,10.3971,10.3971,10.3971,10.3971,10.3971,10.3971,10.3971,10.3971,10.3971,10.3971,10.3971,10.3971,10.3971,10.3971,10.3971,10.3971,10.3971,10.3971,10.3971,10.3971,10.3971,10.3971,10.3971,10.3971,10.3971,10.3971,10.3971,10.3613,10.1949,9.9623,9.7547,9.4994,9.3662,9.2868,9.0952,8.9571,8.9533,8.9582,8.9533,8.9484,8.9435,8.9777,8.9777,8.9435,8.9191,8.9582,8.9826,8.8508,8.7532,8.7337,8.7337,8.7581,8.763,8.7728,8.7581,8.724,8.6752,8.6187,8.5825,8.5971,8.5825,8.5483,8.5169,8.5023,8.4779,8.4144,10.8879,10.8906,10.8906,10.8906,10.8906,10.8879,10.8906,10.8849,10.8511,10.8315,10.8259,10.789,10.7694,10.7694,10.7694,10.6848,10.5269,10.5212,10.5212,10.5212,10.5156,10.5212,10.5212,10.5156,10.5212,10.5212,10.5156,10.5156,10.5212,10.5156,10.5182,10.5212,10.5212,10.5238,10.5066,10.4449,10.5027,10.6097,10.5728,10.4726,10.3918,10.5131,10.462,10.2144,10.1606,10.1662,10.1688,10.3145,10.3971,10.3971,10.3971,10.3971,10.3971,10.3971,10.3971,10.3971,10.3971,10.3971,10.3971,10.3971,10.3971,10.3971,10.3971,10.3971,10.3971,10.3971,10.3971,10.3971,10.3971,10.3971,10.3971,10.3971,10.3971,10.3971,10.3971,10.3971,10.392,10.3248,10.2417,10.0996,9.7612,9.326,8.9752,8.8509,8.7968,8.7748,8.7776,8.7748,8.7776,8.7776,8.7748,8.7776,8.7923,8.7972,8.7776,8.7776,8.6878,8.6703,8.6605,8.6772,8.6919,8.687,8.6821,8.6626,8.6313,8.5825,8.5386,8.4974,8.4681,8.4514,8.4416,8.4318,8.3976,8.3732,8.3488,10.7694,10.7694,10.7694,10.7694,10.7694,10.7694,10.7694,10.7664,10.7243,10.7074,10.6961,10.6566,10.6367,10.634,10.634,10.552,10.4084,10.3971,10.3971,10.3971,10.3971,10.3971,10.3971,10.3971,10.3971,10.3971,10.3971,10.3971,10.3971,10.3971,10.3971,10.3894,10.3171,10.2758,10.248,10.1267,10.1139,10.248,10.2008,10.1273,10.068,10.1917,10.1242,9.8226,9.8793,9.9651,10.0447,10.1535,10.2529,10.3351,10.2925,10.2648,10.2674,10.2648,10.2674,10.2674,10.2674,10.2674,10.2674,10.2674,10.2674,10.2674,10.2674,10.2561,10.273,10.3094,10.3376,10.3432,10.3715,10.3407,10.3012,10.2674,10.2674,10.2674,10.2617,10.2561,10.2674,10.2674,10.2674,10.2157,9.9678,9.5107,9.1121,8.8444,8.7581,8.69,8.6675,8.6724,8.6724,8.6675,8.6821,8.6675,8.6675,8.6431,8.5901,8.5609,8.5609,8.5609,8.5609,8.5532,8.5434,8.5288,8.5239,8.5023,8.4974,8.4611,8.4486,8.4123,8.4074,8.3879,8.3879,8.3684,8.3125,8.288,8.2734,10.7525,10.7469,10.7469,10.7382,10.7469,10.7412,10.7412,10.7187,10.631,10.5833,10.5664,10.4648,10.4028,10.414,10.4253,10.4028,10.3971,10.3971,10.3971,10.3971,10.3971,10.3971,10.3971,10.3971,10.3971,10.3971,10.3971,10.3971,10.3971,10.3971,10.3971,10.3843,10.1819,10.0579,10.0369,9.8278,9.6943,9.7542,9.7347,9.6941,9.6889,9.6699,9.5598,9.3819,9.5466,9.75,9.935,9.9062,9.9656,10.1877,10.0988,10.0392,10.0392,10.0392,10.0449,10.0449,10.0392,10.0392,10.0449,10.0505,10.053,10.0449,10.0643,10.0392,10.0756,10.157,10.2103,10.2185,10.2981,10.273,10.0956,10.0756,10.0618,10.0586,10.0473,10.053,10.0473,10.0699,10.0336,10.0399,9.9742,9.722,9.3861,9.1494,8.8817,8.7242,8.6523,8.6361,8.6187,8.6333,8.6285,8.6313,8.6166,8.5825,8.4123,8.4074,8.3928,8.3781,8.383,8.3586,8.3488,8.3439,8.3391,8.3342,8.3244,8.3244,8.3369,8.3293,8.3098,8.3049,8.2924,8.2756,8.1997,8.1952,8.1731,10.4987,10.4987,10.4987,10.4987,10.5043,10.4987,10.4987,10.4987,10.4648,10.4535,10.4479,10.414,10.3971,10.3971,10.3971,10.3971,10.3971,10.3971,10.3971,10.3971,10.3971,10.3971,10.3971,10.3971,10.3971,10.3971,10.3971,10.3971,10.3971,10.3971,10.3971,10.3664,10.1633,10.0473,10.0076,9.6396,9.526,9.6616,9.526,9.4422,9.4095,9.2071,9.05,9.0031,9.1255,9.2336,9.3045,9.5893,9.7827,9.8438,9.9624,10.0336,10.0336,10.0336,10.0336,10.0336,10.0336,10.0336,10.0336,10.0336,10.0336,10.0336,10.0336,10.0336,10.0361,10.0643,10.0812,10.0812,10.1094,10.115,10.0361,10.0336,10.0336,10.0336,10.0336,10.0336,10.0223,10.0336,10.0223,10.01,9.8289,9.5992,9.4465,9.0815,8.7735,8.6743,8.547,8.4465,8.4465,8.4514,8.4514,8.4437,8.4437,8.4172,8.3732,8.3391,8.3173,8.2832,8.2441,8.217,8.1309,8.1212,8.1212,8.1775,8.1336,8.1287,8.158,8.1434,8.1114,8.1163,8.1163,8.1017,8.0848,8.0773,8.0578,10.3971,10.3971,10.3971,10.3971,10.3971,10.3971,10.3971,10.3971,10.3971,10.3971,10.3971,10.3971,10.3971,10.3971,10.3971,10.3971,10.3971,10.3971,10.3971,10.3971,10.3971,10.3971,10.3971,10.3971,10.3971,10.3971,10.3971,10.3971,10.3971,10.3971,10.351,10.2339,9.9195,9.7603,9.7383,9.3939,9.2713,9.4023,9.277,9.1605,9.0585,8.8742,8.7756,8.7801,8.8374,8.9169,9.0351,9.2226,9.4342,9.6237,9.7032,9.7847,9.8732,9.8805,9.8805,9.8805,9.8805,9.8805,9.8781,9.8781,9.883,9.8781,9.8805,9.883,9.8805,9.9313,9.937,9.8918,9.8781,9.8805,9.8749,9.8805,9.8805,9.8805,9.8805,9.8805,9.8805,9.8725,9.8805,9.8676,9.7005,9.5575,9.4051,9.0768,8.7695,8.5558,8.4537,8.3711,8.3635,8.3586,8.3586,8.3515,8.2756,8.2339,8.2165,8.2241,8.1948,8.1535,8.134,8.1242,8.0529,8.0259,8.0259,8.0308,8.0405,8.0405,8.0162,8.0259,8.0259,8.0357,8.0308,8.0113,7.9674,7.9651,7.9407,10.3971,10.3971,10.3971,10.3971,10.3971,10.3971,10.3971,10.3971,10.3971,10.3971,10.3771,10.3858,10.3858,10.3971,10.3858,10.3745,10.3745,10.3689,10.3689,10.3745,10.3827,10.3915,10.3971,10.3971,10.3971,10.3971,10.3971,10.3971,10.3971,10.3971,10.2836,10.0236,9.5764,9.3685,9.3345,9.129,9.0011,8.9884,8.9777,8.8703,8.6849,8.6577,8.6557,8.6529,8.6459,8.7424,8.9182,8.8627,9.0162,9.4061,9.3575,9.4024,9.5973,9.6257,9.6313,9.6257,9.6257,9.6257,9.6257,9.6257,9.6257,9.628,9.637,9.6459,9.6515,9.7442,9.7475,9.6596,9.6257,9.6346,9.6403,9.6515,9.6652,9.6878,9.6878,9.6652,9.6821,9.6652,9.6515,9.6483,9.6341,9.5625,9.3622,9.1239,8.8342,8.5016,8.3712,8.2902,8.2924,8.2875,8.2951,8.2729,8.1677,8.0578,8.048,8.0308,8.0432,8.0236,8.0113,7.9993,7.9749,7.97,7.9918,7.9358,7.9723,7.9651,7.9749,7.9967,7.982,7.9554,7.9554,7.9651,7.8896,7.8604,7.8067,10.3971,10.3971,10.3971,10.3971,10.3971,10.3971,10.3971,10.3971,10.3971,10.3489,10.2668,10.2636,10.3176,10.3858,10.3063,10.2636,10.2523,10.1627,10.1683,10.258,10.2611,10.3094,10.3915,10.3971,10.3971,10.3971,10.3971,10.3971,10.3971,10.3971,10.281,10.0263,9.5816,9.3487,9.343,9.1203,8.9611,8.8781,8.7923,8.724,8.6675,8.595,8.5511,8.5462,8.473,8.4543,8.5016,8.5581,8.7055,8.9587,9.0341,9.1556,9.3589,9.3773,9.3773,9.375,9.3773,9.3773,9.3773,9.3716,9.3773,9.375,9.455,9.5091,9.5034,9.4596,9.4032,9.3829,9.3806,9.4178,9.4888,9.5114,9.5532,9.6483,9.6652,9.6483,9.6596,9.6652,9.6233,9.5283,9.5091,9.4603,9.3038,9.1178,8.8753,8.5963,8.3058,8.1201,8.1043,8.1017,8.1043,8.0919,8.0649,8.0214,8.0259,8.0188,7.9872,7.9115,7.9092,7.8876,7.8391,7.8022,7.7897,7.8043,7.7946,7.8145,7.7971,7.7921,7.8018,7.8067,7.8018,7.7874,7.7555,7.7458,7.6921,10.2335,10.2335,10.2335,10.2279,10.2335,10.231,10.2279,10.2279,10.174,10.1168,10.066,10.1144,10.174,10.2222,10.1627,10.1369,10.1313,10.0643,10.1006,10.2185,10.2266,10.2837,10.3915,10.3971,10.3971,10.3971,10.3971,10.3971,10.3971,10.3971,10.281,10.0341,9.6918,9.3768,9.1348,8.9964,8.8781,8.763,8.6557,8.5727,8.5267,8.4758,8.4416,8.4416,8.3418,8.288,8.2858,8.2919,8.4366,8.7435,8.8072,8.9789,9.2641,9.2316,9.2034,9.2011,9.1526,9.121,9.1232,9.1232,9.1458,9.2011,9.3162,9.3445,9.2316,9.2621,9.2903,9.2903,9.2903,9.3185,9.3783,9.3873,9.4122,9.4845,9.4879,9.4879,9.4879,9.4902,9.4653,9.4009,9.3896,9.3189,9.1583,9.0447,8.8713,8.5629,8.3452,8.1403,8.0438,7.9554,7.9155,7.9921,7.9461,7.9308,7.9998,7.9514,7.9114,7.9355,7.8652,7.8205,7.861,7.8535,7.8164,7.7391,7.8015,7.8065,7.7289,7.719,7.719,7.7141,7.6848,7.6458,7.636,7.5969,7.531,10.0336,10.0336,10.0336,10.0248,10.0079,10.0079,9.9941,9.9684,9.8547,9.8233,9.8628,9.9595,10.0135,10.028,10.0135,10.0079,10.0079,9.9853,10.0498,10.1677,10.1758,10.2329,10.3438,10.3463,10.3463,10.3463,10.3463,10.3463,10.3463,10.3463,10.2071,9.9533,9.7502,9.3692,8.8645,8.8224,8.7561,8.6264,8.5365,8.4514,8.3613,8.3467,8.3418,8.3537,8.2441,8.1833,8.1979,8.0777,8.1978,8.5971,8.606,8.7767,9.161,9.0806,9.0232,9.014,8.9247,8.867,8.867,8.8726,8.9178,9.0184,9.1583,9.1323,8.9009,9.0668,9.1853,9.1853,9.1627,9.2023,9.2395,9.2339,9.2531,9.2926,9.296,9.2903,9.3039,9.3016,9.296,9.2677,9.2621,9.188,9.0121,8.9265,8.7654,8.4735,8.3014,8.2162,8.0363,7.8621,7.8065,7.8675,7.7768,7.757,7.8234,7.7694,7.7348,7.8965,7.7841,7.7496,7.8349,7.8711,7.8397,7.6952,7.7594,7.7986,7.6952,7.6677,7.653,7.6409,7.5896,7.5408,7.5359,7.4309,7.3431,10.0336,10.0336,10.0336,9.974,9.883,9.883,9.8241,9.7178,9.5904,0.0,0.0,9.8773,9.9394,10.0191,9.9313,9.883,9.8773,9.7757,9.795,9.9193,9.9193,9.9821,10.0925,10.0956,10.0956,10.0981,10.0981,10.0981,10.0981,10.0981,9.8857,9.5025,9.4365,9.1737,8.7307,8.6996,8.6048,8.4193,8.3928,8.3781,8.3537,8.2761,8.2685,8.3537,8.1629,8.107,8.2006,8.0093,8.0565,8.3729,8.3138,8.407,8.6915,8.6915,8.672,8.6503,8.6278,8.6165,8.6187,8.6187,8.6278,8.6448,8.8614,8.8839,8.6356,8.6582,8.6807,8.6885,8.6807,8.7711,8.963,8.9855,9.0668,9.27,9.2903,9.2847,9.2847,9.2903,9.226,9.1538,9.1256,9.0761,8.9403,8.7957,8.6325,8.5432,8.3066,8.044,8.0068,7.9013,7.7713,7.6125,7.5475,7.4723,7.4964,7.4772,7.4577,7.5399,7.6161,7.6178,7.5585,7.6201,7.6367,7.4966,7.4649,7.4989,7.4601,7.4627,7.4432,7.4481,7.4285,7.4188,7.4041,7.2649,7.1452,9.6524,9.6548,9.6572,9.6233,0.0,9.5692,9.4653,9.2801,9.2203,9.2993,9.4742,9.5387,9.6007,9.6524,9.5951,9.5692,9.5692,9.5645,9.6322,9.7564,9.8265,9.9168,10.0336,10.0336,10.0336,10.0336,10.0336,10.0336,10.023,9.9126,9.7511,9.5247,9.2963,9.0705,8.8478,8.6732,8.5121,8.3586,8.3076,8.2783,8.2761,8.122,8.0608,8.107,7.9531,0.0,0.0,0.0,0.0,0.0,0.0,0.0,0.0,8.5184,0.0,8.46,8.455,8.4324,8.3683,8.3703,8.3908,8.4514,8.5679,8.5601,8.3816,8.4832,8.5566,8.5566,8.5566,8.6017,8.7203,8.7372,8.7845,8.893,8.9178,8.9178,8.92,8.9178,8.9178,8.9021,8.9134,8.9213,8.9178,8.8241,8.734,8.6182,8.4317,8.2497,8.0503,7.9461,7.8602,7.704,7.598,7.5321,7.5344,7.4683,7.4135,7.5084,7.5321,7.5274,7.5418,7.6238,7.6141,7.4397,7.4728,7.4966,7.4181,7.3846,7.3846,7.3846,7.3456,7.2967,7.2308,7.1475,7.0765,9.2903,9.2903,9.2903,9.2757,9.2531,9.2339,9.1063,8.9234,8.946,9.0093,9.1086,9.2316,9.2903,9.2903,9.2903,9.2903,9.2982,9.3929,9.4945,9.596,9.6967,9.7983,9.8894,9.9095,9.9232,9.9208,9.9514,9.9652,9.9603,9.7804,9.6494,9.5605,9.199,8.974,8.8793,0.0,0.0,0.0,8.2148,8.1708,8.1611,7.9778,7.8848,7.8994,7.7799,0.0,7.719,7.6995,7.7225,7.7976,7.9417,0.0,0.0,0.0,0.0,0.0,0.0,0.0,0.0,0.0,0.0,0.0,8.2405,8.2123,8.1276,8.3139,8.4606,8.4832,8.4811,8.4888,8.5093,8.515,8.5284,8.5509,8.5566,8.5566,8.5566,8.5601,8.5848,8.6885,8.6977,8.7372,8.8275,8.8501,8.7834,8.6244,8.5683,8.3951,8.0442,7.9871,7.9489,7.8618,7.6753,7.5898,7.5814,7.4251,7.3657,7.5167,7.4465,7.4368,7.525,7.5833,7.5559,7.3637,7.4653,7.5094,7.3592,7.326,7.3138,7.326,7.2577,7.1794,7.0938,7.0791,7.0765,9.2903,9.2903,9.2903,9.226,9.1165,9.0115,8.9517,8.9291,9.0319,9.0838,9.1086,9.2372,9.2903,9.2903,9.2903,9.2903,9.2903,9.3095,9.3242,9.3411,9.3524,9.3716,9.3919,9.4945,9.5373,9.5429,9.6572,9.7023,9.7023,9.6785,9.4723,9.0969,9.0308,8.8158,8.4504,8.2081,8.087,8.0698,8.0552,8.048,8.048,7.9384,7.9189,7.9967,7.8213,7.719,7.7165,7.6287,7.5873,7.602,7.6215,7.7448,7.9737,7.9061,7.9117,0.0,7.9281,0.0,0.0,0.0,0.0,0.0,0.0,0.0,0.0,7.9752,8.1127,8.2159,8.2328,8.2723,8.376,8.3816,8.4303,8.5396,8.5566,8.5566,8.5509,8.5566,8.5601,8.5714,8.5735,8.5791,8.6074,8.6017,8.5996,8.5565,8.4123,8.2077,8.0204,8.011,7.9298,7.5985,7.458,7.3977,7.273,7.1715,7.1488,7.1712,7.2589,7.3048,7.206,7.3058,7.3392,7.183,7.1741,7.1669,7.1274,7.1208,7.1208,7.1329,7.1297,7.1125,7.0814,7.0765,7.0765,9.0894,9.0871,9.0871,8.972,8.795,8.8084,8.7788,8.7259,8.8423,8.8514,8.8006,8.8579,8.8861,8.8783,8.8783,8.9178,8.9799,9.0533,9.121,9.1842,9.2565,9.2903,9.2903,9.3445,9.3693,9.3727,9.4314,9.454,9.4447,9.2187,9.0085,8.8164,8.5796,8.3328,8.0927,8.048,8.0259,8.0259,8.0259,7.9967,7.9433,7.7823,7.7214,7.7653,7.614,7.531,7.5286,7.492,7.4358,7.382,7.4748,7.5331,7.5289,7.5219,7.5569,0.0,0.0,0.0,0.0,0.0,0.0,0.0,0.0,0.0,0.0,0.0,7.8341,7.9563,7.9676,8.0184,8.1425,8.1538,8.2046,8.3344,8.3477,8.3477,8.3457,8.3477,8.376,8.436,8.4416,8.4719,8.5453,8.5566,8.5566,8.5545,8.2644,7.9786,7.8198,7.8053,7.8111,7.7282,7.5927,7.4939,7.5301,7.3646,7.1924,7.1086,7.1402,7.2105,7.2286,7.2961,7.3201,7.2489,7.2264,7.197,7.0949,7.0765,7.0765,7.088,7.1516,7.1788,7.0972,7.0765,7.0765,8.8353,8.8275,8.7711,8.6412,8.4719,8.5622,8.5622,8.515,8.6017,8.6074,8.5509,8.5227,8.5058,8.5058,8.4776,8.5284,8.6412,8.7428,8.8535,8.9733,9.0962,9.1549,9.1605,9.2169,9.2429,9.2429,9.1986,9.178,9.162,8.7844,8.5693,8.4987,8.0879,7.8334,7.7628,7.8383,7.8845,7.9163,7.9163,7.8871,7.8311,7.6799,7.5994,7.5994,7.4895,7.4139,7.3871,7.3651,7.304,7.2036,7.2562,7.2422,7.1501,7.0944,0.0,0.0,0.0,0.0,0.0,0.0,0.0,0.0,0.0,7.106,7.3225,0.0,7.582,0.0,7.7607,7.8322,7.9357,7.947,0.0,0.0,8.0918,8.0881,8.0918,8.1143,8.1728,8.261,8.2949,8.3513,8.4529,8.4642,8.4336,8.3343,8.0738,7.809,7.5916,7.5873,7.653,7.7181,7.6261,7.624,7.7457,7.5548,7.3112,7.2196,7.2128,7.2506,7.389,7.4133,7.4133,7.4133,7.4133,7.3602,7.2394,7.206,7.1992,7.1584,7.2512,7.2961,7.1155,7.0765,7.0765,8.577,8.5601,8.3344,8.2272,8.2123,8.2215,8.278,8.376,8.3837,8.4473,8.5453,8.4268,8.376,8.3626,8.2631,0.0,8.3872,8.3985,8.4719,8.5996,8.7146,8.7732,8.7823,9.0037,9.1143,9.1075,8.9392,8.8603,8.8456,8.54,8.2849,8.084,7.6552,7.431,7.4261,7.431,7.492,7.5994,7.5994,7.6409,7.7263,7.7141,7.7067,7.6995,7.6043,7.4944,7.3871,7.2919,7.194,7.084,6.8166,6.7755,6.9992,0.0,0.0,0.0,0.0,0.0,0.0,0.0,0.0,0.0,0.0,0.0,0.0,0.0,0.0,0.0,7.6629,0.0,7.8115,7.8096,0.0,0.0,0.0,7.8285,7.8285,7.9281,8.0071,8.0184,0.0,0.0,8.2103,8.2103,8.0867,7.7363,7.8093,7.7636,7.42,7.5026,7.5635,7.4288,7.3801,7.4325,7.6197,7.4859,7.3868,7.5026,7.5787,7.557,7.5808,7.5938,7.6003,7.6003,7.6003,7.5852,7.5787,7.5422,7.5244,7.3344,7.3262,7.2837,7.1004,7.0596,7.0547,8.2631,7.9789,7.8849,7.7964,7.7363,7.8096,7.8266,7.7983,7.8773,7.8943,7.8736,7.8209,7.7927,7.7927,7.7476,0.0,0.0,0.0,8.1651,8.438,8.4832,8.5453,8.6243,8.7259,8.7127,8.5868,8.5205,8.4282,8.3168,8.0799,7.7425,7.3336,0.0,0.0,7.0345,7.2025,7.3068,7.3339,7.4798,7.5799,7.6214,7.6873,7.6897,7.6238,7.4529,7.3382,7.2942,7.1917,7.028,6.7936,6.6574,6.5223,0.0,0.0,0.0,0.0,0.0,0.0,0.0,0.0,0.0,0.0,0.0,6.2101,6.4691,0.0,0.0,0.0,7.1399,7.3318,7.5519,7.5726,0.0,0.0,0.0,0.0,0.0,0.0,0.0,7.8717,7.8882,7.9018,7.8997,7.8107,7.6522,7.3975,7.4806,7.472,7.2196,0.0,7.3067,7.3452,7.3519,7.4111,7.5895,7.4706,7.3691,7.4486,7.4574,7.4873,7.6003,7.716,7.7838,7.788,7.7859,7.7467,7.6412,7.5164,7.3762,7.1911,7.1479,7.09,6.91,6.8721,6.877,7.8378,0.0,0.0,0.0,0.0,7.4203,7.4259,7.3846,7.4767,7.4823,7.4259,7.3921,0.0,0.0,0.0,0.0,0.0,0.0,7.8886,8.1425,8.2969,8.3604,8.3631,8.4337,8.3678,8.1833,8.0928,7.9885,7.8514,7.5293,7.1387,6.7171,0.0,0.0,0.0,0.0,7.1201,7.1356,7.3532,7.4993,7.5628,7.6018,7.6018,7.5628,7.3431,7.2308,7.2308,7.0426,6.8424,6.6449,6.428,0.0,0.0,0.0,0.0,0.0,0.0,0.0,0.0,0.0,0.0,0.0,0.0,0.0,0.0,0.0,0.0,0.0,0.0,0.0,7.2302,7.2697,7.2923,0.0,0.0,0.0,0.0,0.0,0.0,0.0,0.0,0.0,7.5361,7.4146,7.2779,0.0,0.0,7.2446,7.0968,7.0765,7.1223,7.2512,7.2714,0.0,7.5135,7.4332,7.3573,7.3811,7.3796,7.4303,7.5756,7.6689,7.7539,7.8501,7.7889,7.6877,7.5513,7.4427,7.306,7.0825,7.0593,7.0179,6.8042,6.7435,6.7484,0.0,0.0,0.0,0.0,0.0,0.0,0.0,0.0,7.2605,7.3169,0.0,7.2887,0.0,0.0,0.0,0.0,7.2774,7.505,0.0,0.0,8.1273,8.1991,7.9421,8.1525,8.1691,7.9886,7.7011,7.5593,7.5117,6.8924,0.0,0.0,0.0,0.0,0.0,0.0,6.9013,7.0005,7.1611,7.3503,7.5457,7.4529,7.4505,7.5432,7.3431,7.2259,7.2112,6.8282,6.6476,6.7213,6.0462,0.0,0.0,0.0,0.0,0.0,0.0,0.0,0.0,0.0,0.0,0.0,0.0,0.0,0.0,0.0,0.0,0.0,0.0,0.0,0.0,6.8966,0.0,0.0,0.0,0.0,0.0,0.0,0.0,0.0,0.0,7.4299,7.0998,7.0365,7.0015,6.9158,0.0,0.0,0.0,0.0,7.0765,7.0857,7.0857,7.147,7.3268,7.3468,7.3635,7.4403,0.0,0.0,7.5499,7.4357,7.4458,7.7346,7.5535,7.3212,7.3171,7.4141,7.3947,7.0743,7.112,7.1244,6.8297,6.7213,6.7311,0.0,0.0,0.0,0.0,0.0,0.0,0.0,0.0,0.0,6.9051,0.0,6.8182,0.0,0.0,0.0,0.0,0.0,0.0,0.0,0.0,7.67,7.6968,7.5691,7.651,7.5592,0.0,7.2133,7.0156,0.0,0.0,0.0,0.0,0.0,0.0,0.0,0.0,6.6268,6.7052,6.9785,7.1678,7.2424,7.3027,7.3195,7.2976,7.2556,7.0989,6.8206,6.7113,6.4904,0.0,0.0,0.0,0.0,0.0,0.0,0.0,0.0,0.0,0.0,0.0,0.0,0.0,0.0,0.0,0.0,0.0,0.0,0.0,0.0,0.0,0.0,0.0,6.5246,0.0,0.0,0.0,0.0,0.0,0.0,0.0,0.0,0.0,6.6303,6.5988,6.6213,6.6888,6.8146,6.9132,6.957,0.0,0.0,0.0,0.0,0.0,0.0,0.0,6.9644,6.9892,6.9928,7.0786,7.3273,7.5138,7.6283,7.6397,0.0,0.0,7.1072,6.9317,6.7878,6.664,6.682,6.6933,6.5678,6.5424,6.5402,0.0,0.0,0.0,0.0,0.0,0.0,0.0,0.0,0.0,6.4545,6.404,0.0,0.0,0.0,0.0,0.0,0.0,0.0,0.0,0.0,0.0,0.0,7.1276,7.168,0.0,0.0,0.0,0.0,0.0,0.0,0.0,0.0,0.0,0.0,0.0,0.0,6.4472,6.4922,6.8412,7.0388,7.077,7.1439,7.1606,7.1269,7.1427,6.9597,6.5558,0.0,0.0,0.0,0.0,0.0,0.0,0.0,0.0,0.0,0.0,0.0,0.0,0.0,0.0,0.0,0.0,0.0,0.0,0.0,0.0,0.0,0.0,0.0,0.0,0.0,5.9844,0.0,0.0,0.0,0.0,0.0,0.0,0.0,0.0,0.0,0.0,0.0,6.2733,6.4855,6.6044,6.707,6.8139,6.8396,6.8685,0.0,0.0,0.0,0.0,0.0,0.0,0.0,0.0,0.0,0.0,0.0,0.0,0.0,0.0,6.9453,6.6064,6.4047,6.2687,6.2253,0.0,0.0,0.0,0.0,0.0,0.0,0.0,0.0,0.0,0.0,0.0,0.0,0.0,0.0,0.0,5.8701,0.0,0.0,5.8195,0.0,0.0,0.0,0.0,0.0,0.0,0.0,0.0,0.0,0.0,0.0,0.0,0.0,0.0,0.0,0.0,0.0,0.0,0.0,0.0,0.0,0.0,6.3692,6.3809,6.7319,6.9601,7.0483,6.9719,6.9671,7.0579,7.0212,6.8235,6.4662,0.0,0.0,0.0,0.0,0.0,0.0,0.0,0.0,0.0,0.0,0.0,0.0,0.0,0.0,0.0,0.0,0.0,0.0,0.0,0.0,0.0,0.0,0.0,0.0,0.0,0.0,5.2463,5.2354,5.3914,0.0,0.0,0.0,0.0,0.0,0.0,0.0,0.0,0.0,6.3216,6.4478,6.5449,6.6674,6.7171,6.7127,6.6331,6.6553,6.6819,6.6796,6.6792,6.6432,0.0,0.0,0.0,0.0,0.0,0.0,0.0,0.0,0.0,0.0,0.0,0.0,0.0,0.0,0.0,0.0,0.0,0.0,0.0,0.0,0.0,0.0,0.0,0.0,0.0,0.0,0.0,0.0,0.0,0.0,0.0,0.0,0.0,0.0,0.0,0.0,0.0,0.0,0.0,0.0,0.0,0.0,0.0,0.0,0.0,0.0,0.0,0.0,0.0,0.0,0.0,0.0,0.0,0.0,6.2269,6.2294,6.6095,6.7598,6.6562,6.7901,6.849,6.8063,6.8216,6.7152,0.0,0.0,0.0,0.0,0.0,0.0,0.0,0.0,0.0,0.0,0.0,0.0,0.0,0.0,0.0,0.0,0.0,0.0,0.0,0.0,0.0,0.0,0.0,0.0,0.0,0.0,0.0,0.0,5.1922,5.183,5.2737,0.0,0.0,0.0,0.0,0.0,0.0,0.0,0.0,0.0,0.0,6.2371,6.4871,6.5337,6.5534,6.6054,6.5835,6.5555,6.525,6.5192,6.4755,6.3805,0.0,0.0,0.0,0.0,0.0,0.0,0.0,0.0,0.0,0.0,0.0,0.0,0.0,0.0,0.0,0.0,0.0,0.0,0.0,0.0,0.0,0.0,0.0,0.0,0.0,0.0,0.0,0.0,0.0,0.0,0.0,0.0,0.0,0.0,0.0,0.0,0.0,0.0,0.0,0.0,0.0,0.0,0.0,0.0,0.0,0.0,0.0,0.0,0.0,0.0,0.0,0.0,0.0,6.1023,6.107,6.4981,6.6312,6.4862,6.6566,6.7198,6.6587,6.6643,6.5515,0.0,0.0,0.0,0.0,0.0,0.0,0.0,0.0,0.0,0.0,0.0,0.0,0.0,0.0,0.0,0.0,0.0,0.0,0.0,0.0,0.0,0.0,0.0,0.0,0.0,0.0,0.0,0.0,4.7829,4.8081,4.8337,0.0,0.0,0.0,0.0,0.0,0.0,0.0,0.0,0.0,0.0,6.0265,6.2176,6.2631,0.0,0.0,6.3113,6.2566,6.3509,6.3241,6.2772,6.2333,6.2367,0.0,0.0,0.0,0.0,0.0,0.0,0.0,0.0,0.0,0.0,0.0,0.0,0.0,0.0,0.0,0.0,0.0,0.0,0.0,0.0,0.0,0.0,0.0,0.0,0.0,0.0,0.0,0.0,0.0,0.0,0.0,0.0,0.0,0.0,0.0,0.0,0.0,0.0,0.0,0.0,0.0,0.0,0.0,0.0,0.0,0.0,0.0,0.0,0.0,0.0,0.0,0.0,0.0,6.0113,6.3976,6.5518,6.4581,6.5448,6.5986,6.5892,6.5459,6.3484,0.0,0.0,0.0,0.0,0.0,0.0,0.0,0.0,0.0,0.0,0.0,0.0,0.0,0.0,0.0,0.0,0.0,0.0,0.0,0.0,0.0,0.0,0.0,0.0,0.0,0.0,0.0,0.0,0.0,0.0,0.0,0.0,0.0,0.0,0.0,0.0,0.0,0.0,0.0,0.0,0.0,5.8714,5.9092,5.9469,6.0068,0.0,5.9219,5.8518,6.1317,6.1023,6.0574,6.0795,0.0,0.0,0.0,0.0,0.0,0.0,0.0,0.0,0.0,0.0,0.0,0.0,0.0,0.0,0.0,0.0,0.0,0.0,0.0,0.0,0.0,0.0,0.0,0.0,0.0,0.0,0.0,0.0,0.0,0.0,0.0,0.0,0.0,0.0,0.0,0.0,0.0,0.0,0.0,0.0,0.0,0.0,0.0,0.0,0.0,0.0,0.0,0.0,0.0,0.0,0.0,0.0,0.0,0.0,5.899,6.2991,6.4207,6.2521,6.4138,6.4677,6.3951,6.3782,0.0,0.0,0.0,0.0,0.0,0.0,0.0,0.0,0.0,0.0,0.0,0.0,0.0,0.0,0.0,0.0,0.0,0.0,0.0,0.0,0.0,0.0,0.0,0.0,0.0,0.0,0.0,3.8732,0.0,0.0,0.0,0.0,0.0,0.0,0.0,0.0,0.0,0.0,0.0,0.0,0.0,0.0,5.5391,5.9295,5.8599,5.8062,0.0,0.0,5.7427,5.7118,5.8098,5.8403,0.0,0.0,0.0,0.0,0.0,0.0,0.0,0.0,0.0,0.0,0.0,0.0,0.0,0.0,0.0,0.0,0.0,0.0,0.0,0.0,0.0,0.0,0.0,0.0,0.0,0.0,0.0,0.0,0.0,0.0,0.0,0.0,0.0,0.0,0.0,0.0,0.0,0.0,0.0,0.0,0.0,0.0,0.0,0.0,0.0,0.0,0.0,0.0,0.0,0.0,0.0,0.0,0.0,0.0,5.8253,5.7378,6.0468,6.11,5.9286,6.1534,6.2532,6.1913,6.2294,6.0627,0.0,0.0,0.0,0.0,0.0,0.0,0.0,0.0,0.0,0.0,0.0,0.0,0.0,0.0,0.0,0.0,0.0,0.0,0.0,0.0,0.0,0.0,0.0,0.0,0.0,0.0,0.0,0.0,0.0,0.0,0.0,0.0,0.0,0.0,0.0,0.0,0.0,0.0,0.0,0.0,0.0,0.0,5.6405,5.6078,0.0,0.0,0.0,5.5459,5.5977,0.0,0.0,0.0,0.0,0.0,0.0,0.0,0.0,0.0,0.0,0.0,0.0,0.0,0.0,0.0,0.0,0.0,0.0,0.0,0.0,0.0,0.0,0.0,0.0,0.0,0.0,0.0,0.0,0.0,0.0,0.0,0.0,0.0,0.0,0.0,0.0,0.0,0.0,0.0,0.0,0.0,0.0,0.0,0.0,0.0,0.0,0.0,0.0,0.0,0.0,0.0,0.0,0.0,0.0,0.0,0.0,0.0,5.5724,5.7642,5.7784,5.6041,5.8597,5.9984,5.9759,6.0944,6.0105,0.0,0.0,0.0,0.0,0.0,0.0,0.0,0.0,0.0,0.0,0.0,0.0,0.0,0.0,0.0,0.0,0.0,0.0,0.0,0.0,0.0,0.0,0.0,0.0,0.0,0.0,0.0,0.0,0.0,0.0,0.0,0.0,0.0,0.0,0.0,0.0,0.0,0.0,0.0,0.0,0.0,5.4003,5.2676,5.3069,5.3844,0.0,0.0,5.2891,5.563,5.519,0.0,0.0,0.0,0.0,0.0,0.0,0.0,0.0,0.0,0.0,0.0,0.0,0.0,0.0,0.0,0.0,0.0,0.0,0.0,0.0,0.0,0.0,0.0,0.0,0.0,0.0,0.0,0.0,0.0,0.0,0.0,0.0,0.0,0.0,0.0,0.0,0.0,0.0,0.0,0.0,0.0,0.0,0.0,0.0,0.0,0.0,0.0,0.0,0.0,0.0,0.0,0.0,0.0,0.0,0.0,0.0,5.5726,5.7619,5.774,5.5975,5.7915,5.8292,5.6793,5.9877,5.9226,0.0,0.0,0.0,0.0,0.0,0.0,0.0,0.0,0.0,0.0,0.0,0.0,0.0,0.0,0.0,0.0,0.0,0.0,0.0,0.0,0.0,0.0,0.0,0.0,0.0,0.0,0.0,0.0,0.0,0.0,0.0,0.0,0.0,0.0,0.0,0.0,0.0,0.0,0.0,0.0,0.0,5.0266,5.3115,5.2274,0.0,0.0,0.0,0.0,5.0657,4.9863,0.0,0.0,0.0,0.0,0.0,0.0,0.0,0.0,0.0,0.0,0.0,0.0,0.0,0.0,0.0,0.0,0.0,0.0,0.0,0.0,0.0,0.0,0.0,0.0,0.0,0.0,0.0,0.0,0.0,0.0,0.0,0.0,0.0,0.0,0.0,0.0,0.0,0.0,0.0,0.0,0.0,0.0,0.0,0.0,0.0,0.0,0.0,0.0,0.0,0.0,0.0,0.0,0.0,0.0,0.0,0.0,5.5637,5.572,5.5303,5.4463,5.5389,5.5412,5.4527,5.816,5.7969,0.0,0.0,0.0,0.0,0.0,0.0,0.0,0.0,0.0,0.0,0.0,0.0,0.0,0.0,0.0,0.0,0.0,0.0,0.0,0.0,0.0,0.0,0.0,0.0,0.0,0.0,0.0,0.0,0.0,0.0,0.0,0.0,0.0,0.0,0.0,0.0,0.0,0.0,0.0,0.0,4.7806,4.9144,5.1311,0.0,0.0,0.0,0.0,0.0,0.0,4.8304,4.7977,0.0,0.0,0.0,0.0,0.0,0.0,0.0,0.0,0.0,0.0,0.0,0.0,0.0,0.0,0.0,0.0,0.0,0.0,0.0,0.0,0.0,0.0,0.0,0.0,0.0,0.0,0.0,0.0,0.0,0.0,0.0,0.0,0.0,0.0,0.0,0.0,0.0,0.0,0.0,0.0,0.0,0.0,0.0,0.0,0.0,0.0,0.0,0.0,0.0,0.0,0.0,0.0,0.0,0.0,0.0,5.4827,5.329,5.2468,5.2416,5.267,5.2855,5.297,5.6671,5.6794,5.2884,0.0,0.0,0.0,0.0,0.0,0.0,0.0,0.0,0.0,0.0,0.0,0.0,0.0,0.0,0.0,0.0,0.0,0.0,0.0,0.0,0.0,0.0,0.0,0.0,0.0,0.0,0.0,0.0,0.0,0.0,0.0,0.0,0.0,0.0,0.0,0.0,0.0,0.0,0.0,4.7325,4.8507,0.0,0.0,0.0,0.0,0.0,0.0,0.0,0.0,4.7433,0.0,0.0,0.0,0.0,0.0,0.0,0.0,0.0,0.0,0.0,0.0,0.0,0.0,0.0,0.0,0.0,0.0,0.0,0.0,0.0,0.0,0.0,0.0,0.0,0.0,0.0,0.0,0.0,0.0,0.0,0.0,0.0,0.0,0.0,0.0,0.0,0.0,0.0,0.0,0.0,0.0,0.0,0.0,0.0,0.0,0.0,0.0,0.0,0.0,0.0,0.0,0.0,0.0,0.0,0.0,0.0,5.1852,5.139,5.0513,5.2055,5.2855,5.2924,5.6671,5.6177,5.0863,0.0,0.0,0.0,0.0,0.0,0.0,0.0,0.0,0.0,0.0,0.0,0.0,0.0,0.0,0.0,0.0,0.0,0.0,0.0,0.0,0.0,0.0,0.0,0.0,0.0,0.0,0.0,0.0,0.0,0.0,0.0,0.0,0.0,0.0,0.0,0.0,0.0,0.0,4.3599,4.4598,0.0,0.0,0.0,0.0,0.0,0.0,0.0,0.0,4.5861,0.0,0.0,0.0,0.0,0.0,0.0,0.0,0.0,0.0,0.0,0.0,0.0,0.0,0.0,0.0,0.0,0.0,0.0,0.0,0.0,0.0,0.0,0.0,0.0,0.0,0.0,0.0,0.0,0.0,0.0,0.0,0.0,0.0,0.0,0.0,0.0,0.0,0.0,0.0,0.0,0.0,0.0,0.0,0.0,0.0,0.0,0.0,0.0,0.0,0.0,0.0,0.0,0.0,0.0,0.0,0.0,0.0,0.0,5.1997,5.1511,5.241,5.2608,5.2125,5.3456,5.3418,0.0,0.0,0.0,0.0,0.0,0.0,0.0,0.0,0.0,0.0,0.0,0.0,0.0,0.0,0.0,0.0,0.0,0.0,0.0,0.0,0.0,0.0,0.0,0.0,0.0,0.0,0.0,0.0,0.0,0.0,0.0,0.0,0.0,0.0,0.0,0.0,0.0,0.0,0.0,0.0,0.0,0.0,0.0,0.0,0.0,0.0,0.0,0.0,0.0,0.0,0.0,0.0,0.0,0.0,0.0,0.0,0.0,0.0,0.0,0.0,0.0,0.0,0.0,0.0,0.0,0.0,0.0,0.0,0.0,0.0,0.0,0.0,0.0,0.0,0.0,0.0,0.0,0.0,0.0,0.0,0.0,0.0,0.0,0.0,0.0,0.0,0.0,0.0,0.0,0.0,0.0,0.0,0.0,0.0,0.0,0.0,0.0,0.0,0.0,0.0,0.0,0.0,0.0,0.0,0.0,0.0,0.0,0.0,5.2414,5.2861,5.2717,5.2205,5.1387,5.096,5.0877,0.0,0.0,0.0,0.0,0.0,0.0,0.0,0.0,0.0,0.0,0.0,0.0,0.0,0.0,0.0,0.0,0.0,0.0,0.0,0.0,0.0,0.0,0.0,0.0,0.0,0.0,0.0,0.0,0.0,0.0,0.0,0.0,0.0,0.0,0.0,0.0,0.0,0.0,0.0,0.0,0.0,0.0,0.0,0.0,0.0,0.0,0.0,0.0,4.4442,0.0,0.0,0.0,0.0,0.0,0.0,0.0,0.0,0.0,0.0,0.0,0.0,0.0,0.0,0.0,0.0,0.0,0.0,0.0,0.0,0.0,0.0,0.0,0.0,0.0,0.0,0.0,0.0,0.0,0.0,0.0,0.0,0.0,0.0,0.0,0.0,0.0,0.0,0.0,0.0,0.0,0.0,0.0,0.0,0.0,0.0,0.0,0.0,0.0,0.0,0.0,0.0,0.0,0.0,0.0,0.0,0.0,0.0,0.0,5.1328,5.2792,5.2198,5.176,5.1661,5.1838,5.0035,0.0,0.0,0.0,0.0,0.0,0.0,0.0,0.0,0.0,0.0,0.0,0.0,0.0,0.0,0.0,0.0,0.0,0.0,0.0,0.0,0.0,0.0,0.0,0.0,0.0,0.0,0.0,0.0,0.0,0.0,0.0,0.0,0.0,0.0,0.0,0.0,0.0,0.0,0.0,0.0,0.0,0.0,0.0,0.0,0.0,0.0,0.0,0.0,0.0,0.0,0.0,0.0,0.0,0.0,0.0,0.0,0.0,0.0,0.0,0.0,0.0,0.0,0.0,0.0,0.0,0.0,0.0,0.0,0.0,0.0,0.0,0.0,0.0,0.0,0.0,0.0,0.0,0.0,0.0,0.0,0.0,0.0,0.0,0.0,0.0,0.0,0.0,0.0,0.0,0.0,0.0,0.0,0.0,0.0,0.0,0.0,0.0,0.0,0.0,0.0,0.0,0.0,0.0,0.0,0.0,0.0,0.0,0.0,5.0713,5.0529,5.1293,5.0939,4.9281,4.7969,4.6493,0.0,0.0,0.0,0.0,0.0,0.0,0.0,0.0,0.0,0.0,0.0,0.0,0.0,0.0,0.0,0.0,0.0,0.0,0.0,0.0,0.0,0.0,0.0,0.0,0.0,0.0,0.0,0.0,0.0,0.0,0.0,0.0,0.0,0.0,0.0,0.0,0.0,0.0,0.0,0.0,0.0,0.0,0.0,0.0,0.0,0.0,0.0,0.0,0.0,0.0,0.0,0.0,0.0,0.0,0.0,0.0,0.0,0.0,0.0,0.0,0.0,0.0,0.0,0.0,0.0,0.0,0.0,0.0,0.0,0.0,0.0,0.0,0.0,0.0,0.0,0.0,0.0,0.0,0.0,0.0,0.0,0.0,0.0,0.0,0.0,0.0,0.0,0.0,0.0,0.0,0.0,0.0,0.0,0.0,0.0,0.0,0.0,0.0,0.0,0.0,0.0,0.0,0.0,0.0,0.0,0.0,0.0,0.0,0.0,4.9292,5.0077,4.9482,4.7182,4.4724,4.3783,0.0,0.0,0.0,0.0,0.0,0.0,0.0,0.0,0.0,0.0,0.0,0.0,0.0,0.0,0.0,0.0,0.0,0.0,0.0,0.0,0.0,0.0,0.0,0.0,0.0,0.0,0.0,0.0,0.0,0.0,0.0,0.0,0.0,0.0,0.0,0.0,0.0,0.0,0.0,0.0,0.0,0.0,0.0,0.0,0.0,0.0,0.0,0.0,0.0,0.0,0.0,0.0,0.0,0.0,0.0,0.0,0.0,0.0,0.0,0.0,0.0,0.0,0.0,0.0,0.0,0.0,0.0,0.0,0.0,0.0,0.0,0.0,0.0,0.0,0.0,0.0,0.0,0.0,0.0,0.0,0.0,0.0,0.0,0.0,0.0,0.0,0.0,0.0,0.0,0.0,0.0,0.0,0.0,0.0,0.0,0.0,0.0,0.0,0.0,0.0,0.0,0.0,0.0,0.0,0.0,0.0,0.0,0.0,0.0,5.0275,4.8545,4.7204,4.634,4.3947,4.2875,0.0,0.0,0.0,0.0,0.0,0.0,0.0,0.0,0.0,0.0,0.0,0.0,0.0,0.0,0.0,0.0,0.0,0.0,0.0,0.0,0.0,0.0,0.0,0.0,0.0,0.0,0.0,0.0,0.0,0.0,0.0,0.0,0.0,0.0,0.0,0.0,0.0,0.0,0.0,0.0,0.0,0.0,0.0,0.0,0.0,0.0,0.0,0.0,0.0,0.0,0.0,0.0,0.0,0.0,0.0,0.0,0.0,0.0,0.0,0.0,0.0,0.0,0.0,0.0,0.0,0.0,0.0,0.0,0.0,0.0,0.0,0.0,0.0,0.0,0.0,0.0,0.0,0.0,0.0,0.0,0.0,0.0,0.0,0.0,0.0,0.0,0.0,0.0,0.0,0.0,0.0,0.0,0.0,0.0,0.0,0.0,0.0,0.0,0.0,0.0,0.0,0.0,0.0,0.0,0.0,0.0,0.0,0.0,0.0,4.559,4.5733,4.5684,4.544,4.3547,4.2798,4.3297,0.0,0.0,0.0,0.0,0.0,0.0,0.0,0.0,0.0,0.0,0.0,0.0,0.0,0.0,0.0,0.0,0.0,0.0,0.0,0.0,0.0,0.0,0.0,0.0,0.0,0.0,0.0,0.0,0.0,0.0,0.0,0.0,0.0,0.0,0.0,0.0,0.0,0.0,0.0,0.0,0.0,0.0,0.0,0.0,0.0,0.0,0.0,0.0,0.0,0.0,0.0,0.0,0.0,0.0,0.0,0.0,0.0,0.0,0.0,0.0,0.0,0.0,0.0,0.0,0.0,0.0,0.0,0.0,0.0,0.0,0.0,0.0,0.0,0.0,0.0,0.0,0.0,0.0,0.0,0.0,0.0,0.0,0.0,0.0,0.0,0.0,0.0,0.0,0.0,0.0,0.0,0.0,0.0,0.0,0.0,0.0,0.0,0.0,0.0,0.0,0.0,0.0,0.0,0.0,0.0,0.0,0.0,0.0,4.3058,4.4226,4.4791,4.4508,4.2995,4.2277,0.0,0.0,0.0,0.0,0.0,0.0,0.0,0.0,0.0,0.0,0.0,0.0,0.0,0.0,0.0,0.0,0.0,0.0,0.0,0.0,0.0,0.0,0.0,0.0,0.0,0.0,0.0,0.0,0.0,0.0,0.0,0.0,0.0,0.0,0.0,0.0,0.0,0.0,0.0,0.0,0.0,0.0,0.0,0.0,0.0,0.0,0.0,0.0,0.0,0.0,0.0,0.0,0.0,0.0,0.0,0.0,0.0,0.0,0.0,0.0,0.0,0.0,0.0,0.0,0.0,0.0,0.0,0.0,0.0,0.0,0.0,0.0,0.0,0.0,0.0,0.0,0.0,0.0,0.0,0.0,0.0,0.0,0.0,0.0,0.0,0.0,0.0,0.0,0.0,0.0,0.0,0.0,0.0,0.0,0.0,0.0,0.0,0.0,0.0,0.0,0.0,0.0,0.0,0.0,0.0,0.0,0.0,0.0,4.3645,4.3764,4.4492,4.4492,4.3733,4.2158,4.1139,0.0,0.0,0.0,0.0,0.0,0.0,0.0,0.0,0.0,0.0,0.0,0.0,0.0,0.0,0.0,0.0,0.0,0.0,0.0,0.0,0.0,0.0,0.0,0.0,0.0,0.0,0.0,0.0,0.0,0.0,0.0,0.0,0.0,0.0,0.0,0.0,0.0,0.0,0.0,0.0,0.0,0.0,0.0,0.0,0.0,0.0,0.0,0.0,0.0,0.0,0.0,0.0,0.0,0.0,0.0,0.0,0.0,0.0,0.0,0.0,0.0,0.0,0.0,0.0,0.0,0.0,0.0,0.0,0.0,0.0,0.0,0.0,0.0,0.0,0.0,0.0,0.0,0.0,0.0,0.0,0.0,0.0,0.0,0.0,0.0,0.0,0.0,0.0,0.0,0.0,0.0,0.0,0.0,0.0,0.0,0.0,0.0,0.0,0.0,0.0,0.0,0.0,0.0,0.0,0.0,0.0,0.0,0.0,0.0,4.4493,0.0,4.343,0.0,4.2084,4.1737,0.0,0.0,0.0,0.0,0.0,0.0,0.0,0.0,0.0,0.0,0.0,0.0,0.0,0.0,0.0,0.0,0.0,0.0,0.0,0.0,0.0,0.0,0.0,0.0,0.0,0.0,0.0,0.0,0.0,0.0,0.0,0.0,0.0,0.0,0.0,0.0,0.0,0.0,0.0,0.0,0.0,0.0,0.0,0.0,0.0,0.0,0.0,0.0,0.0,0.0,0.0,0.0,0.0,0.0,0.0,0.0,0.0,0.0,0.0,0.0,0.0,0.0,0.0,0.0,0.0,0.0,0.0,0.0,0.0,0.0,0.0,0.0,0.0,0.0,0.0,0.0,0.0,0.0,0.0,0.0,0.0,0.0,0.0,0.0,0.0,0.0,0.0,0.0,0.0,0.0,0.0,0.0,0.0,0.0,0.0,0.0,0.0,0.0,0.0,0.0,0.0,0.0,0.0,0.0,0.0,0.0,0.0,0.0,0.0,4.6192,4.4619,4.3088,4.178,4.1668,4.1332,0.0,0.0,0.0,0.0,0.0,0.0,0.0,0.0,0.0,0.0,0.0,0.0,0.0,0.0,0.0,0.0,0.0,0.0,0.0,0.0,0.0,0.0,0.0,0.0,0.0,0.0,0.0,0.0,0.0,0.0,0.0,0.0,0.0,0.0,0.0,0.0,0.0,0.0,0.0,0.0,0.0,0.0,0.0,0.0,0.0,0.0,0.0,0.0,0.0,0.0,0.0,0.0,0.0,0.0,0.0,0.0,0.0,0.0,0.0,0.0,0.0,0.0,0.0,0.0,0.0,0.0,0.0,0.0,0.0,0.0,0.0,0.0,0.0,0.0,0.0,0.0,0.0,0.0,0.0,0.0,0.0,0.0,0.0,0.0,0.0,0.0,0.0,0.0,0.0,0.0,0.0,0.0,0.0,0.0,0.0,0.0,0.0,0.0,0.0,0.0,0.0,0.0,0.0,0.0,0.0,0.0,0.0,0.0,0.0,0.0,4.5393,4.3395,4.2597,4.0966,4.0034,0.0,0.0,0.0,0.0,0.0,0.0,0.0,0.0,0.0,0.0,0.0,0.0,0.0,0.0,0.0,0.0,0.0,0.0,0.0,0.0,0.0,0.0,0.0,0.0,0.0,0.0,0.0,0.0,0.0,0.0,0.0,0.0,0.0,0.0,0.0,0.0,0.0,0.0,0.0,0.0,0.0,0.0,0.0,0.0,0.0,0.0,0.0,0.0,0.0,0.0,0.0,0.0,0.0,0.0,0.0,0.0,0.0,0.0,0.0,0.0,0.0,0.0,0.0,0.0,0.0,0.0,0.0,0.0,0.0,0.0,0.0,0.0,0.0,0.0,0.0,0.0,0.0,0.0,0.0,0.0,0.0,0.0,0.0,0.0,0.0,0.0,0.0,0.0,0.0,0.0,0.0,0.0,0.0,0.0,0.0,0.0,0.0,0.0,0.0,0.0,0.0,0.0,0.0,0.0,0.0,0.0,0.0,0.0,0.0,0.0,4.4498,0.0,4.3336,4.178,4.0338,3.9086,0.0,0.0,0.0,0.0,0.0,0.0,0.0,0.0,0.0,0.0,0.0,0.0,0.0,0.0,0.0,0.0,0.0,0.0,0.0,0.0,0.0,0.0,0.0,0.0,0.0,0.0,0.0,0.0,0.0,0.0,0.0,0.0,0.0,0.0,0.0,0.0,0.0,0.0,0.0,0.0,0.0,0.0,0.0,0.0,0.0,0.0,0.0,0.0,0.0,0.0,0.0,0.0,0.0,0.0,0.0,0.0,0.0,0.0,0.0,0.0,0.0,0.0,0.0,0.0,0.0,0.0,0.0,0.0,0.0,0.0,0.0,0.0,0.0,0.0,0.0,0.0,0.0,0.0,0.0,0.0,0.0,0.0,0.0,0.0,0.0,0.0,0.0,0.0,0.0,0.0,0.0,0.0,0.0,0.0,0.0,0.0,0.0,0.0,0.0,0.0,0.0,0.0,0.0,0.0,0.0,0.0,0.0,0.0,0.0,0.0,0.0,4.3733,4.2443,4.1116,0.0,0.0,0.0,0.0,0.0,0.0,0.0,0.0,0.0,0.0,0.0,0.0,0.0,0.0,0.0,0.0,0.0,0.0,0.0,0.0,0.0,0.0,0.0,0.0,0.0,0.0,0.0,0.0,0.0,0.0,0.0,0.0,0.0,0.0,0.0,0.0,0.0,0.0,0.0,0.0,0.0,0.0,0.0,0.0,0.0,0.0,0.0,0.0,0.0,0.0,0.0,0.0,0.0,0.0,0.0,0.0,0.0,0.0,0.0,0.0,0.0,0.0,0.0,0.0,0.0,0.0,0.0,0.0,0.0,0.0,0.0,0.0,0.0,0.0,0.0,0.0,0.0,0.0,0.0,0.0,0.0,0.0,0.0,0.0,0.0,0.0,0.0,0.0,0.0,0.0,0.0,0.0,0.0,0.0,0.0,0.0,0.0,0.0,0.0,0.0,0.0,0.0,0.0,0.0,0.0,0.0,0.0,0.0,0.0,0.0,0.0,4.3733,4.3602,4.2977,0.0,4.1058,0.0,0.0,0.0,0.0,0.0,0.0,0.0,0.0,0.0,0.0,0.0,0.0,0.0,0.0,0.0,0.0,0.0,0.0,0.0,0.0,0.0,0.0,0.0,0.0,0.0,0.0,0.0,0.0,0.0,0.0,0.0,0.0,0.0,0.0,0.0,0.0,0.0,0.0,0.0,0.0,0.0,0.0,0.0,0.0,0.0,0.0,0.0,0.0,0.0,0.0,0.0,0.0,0.0,0.0,0.0,0.0,0.0,0.0,0.0,0.0,0.0,0.0,0.0,0.0,0.0,0.0,0.0,0.0,0.0,0.0,0.0,0.0,0.0,0.0,0.0,0.0,0.0,0.0,0.0,0.0,0.0,0.0,0.0,0.0,0.0,0.0,0.0,0.0,0.0,0.0,0.0,0.0,0.0,0.0,0.0,0.0,0.0,0.0,0.0,0.0,0.0,0.0,0.0,0.0,0.0,0.0,0.0,0.0,0.0,0.0,0.0,0.0,4.3222,4.2484,4.0396,0.0,0.0,0.0,0.0,0.0,0.0,0.0,0.0,0.0,0.0,0.0,0.0,0.0,0.0,0.0,0.0,0.0,0.0,0.0,0.0,0.0,0.0,0.0,0.0,0.0,0.0,0.0,0.0,0.0,0.0,0.0,0.0,0.0,0.0,0.0,0.0,0.0,0.0,0.0,0.0,0.0,0.0,0.0,0.0,0.0,0.0,0.0,0.0,0.0,0.0,0.0,0.0,0.0,0.0,0.0,0.0,0.0,0.0,0.0,0.0,0.0,0.0,0.0,0.0,0.0,0.0,0.0,0.0,0.0,0.0,0.0,0.0,0.0,0.0,0.0,0.0,0.0,0.0,0.0,0.0,0.0,0.0,0.0,0.0,0.0,0.0,0.0,0.0,0.0,0.0,0.0,0.0,0.0,0.0,0.0,0.0,0.0,0.0,0.0,0.0,0.0,0.0,0.0,0.0,0.0,0.0,0.0,0.0,0.0,0.0,4.415,4.2676,4.3319,4.2539,4.0148,0.0,0.0,0.0,0.0,0.0,0.0,0.0,0.0,0.0,0.0,0.0,0.0,0.0,0.0,0.0,0.0,0.0,0.0,0.0,0.0,0.0,0.0,0.0,0.0,0.0,0.0,0.0,0.0,0.0,0.0,0.0,0.0,0.0,0.0,0.0,0.0,0.0,0.0,0.0,0.0,0.0,0.0,0.0,0.0,0.0,0.0,0.0,0.0,0.0,0.0,0.0,0.0,0.0,0.0,0.0,0.0,0.0,0.0,0.0,0.0,0.0,0.0,0.0,0.0,0.0,0.0,0.0,0.0,0.0,0.0,0.0,0.0,0.0,0.0,0.0,0.0,0.0,0.0,0.0,0.0,0.0,0.0,0.0,0.0,0.0,0.0,0.0,0.0,0.0,0.0,0.0,0.0,0.0,0.0,0.0,0.0,0.0,0.0,0.0,0.0,0.0,0.0,0.0,0.0,0.0,0.0,0.0,0.0,0.0,0.0,0.0,0.0,0.0,0.0,4.0148,0.0,0.0,0.0,0.0,0.0,0.0,0.0,0.0,0.0,0.0,0.0,0.0,0.0,0.0,0.0,0.0,0.0,0.0,0.0,0.0,0.0,0.0,0.0,0.0,0.0,0.0,0.0,0.0,0.0,0.0,0.0,0.0,0.0,0.0,0.0,0.0,0.0,0.0,0.0,0.0,0.0,0.0,0.0,0.0,0.0,0.0,0.0,0.0,0.0,0.0,0.0,0.0,0.0,0.0,0.0,0.0,0.0,0.0,0.0,0.0,0.0,0.0,0.0,0.0,0.0,0.0,0.0,0.0,0.0,0.0,0.0,0.0,0.0,0.0,0.0,0.0,0.0,0.0,0.0,0.0,0.0,0.0,0.0,0.0,0.0,0.0,0.0,0.0,0.0,0.0,0.0,0.0,0.0,0.0,0.0,0.0,0.0,0.0,0.0,0.0,0.0,0.0,0.0,0.0,0.0,0.0,0.0,0.0,0.0,0.0,0.0,0.0,0.0,0.0,0.0,0.0,0.0,0.0,0.0,0.0,0.0,0.0,0.0,0.0,0.0,0.0,0.0,0.0,0.0,0.0,0.0,0.0,0.0,0.0,0.0,0.0,0.0,0.0,0.0,0.0,0.0,0.0,0.0,0.0,0.0,0.0,0.0,0.0,0.0,0.0,0.0,0.0,0.0,0.0,0.0,0.0,0.0,0.0,0.0,0.0,0.0,0.0,0.0,0.0,0.0,0.0,0.0,0.0,0.0,0.0,0.0,0.0,0.0,0.0,0.0,0.0,0.0,0.0,0.0,0.0,0.0,0.0,0.0,0.0,0.0,0.0,0.0,0.0,0.0,0.0,0.0,0.0,0.0,0.0,0.0,0.0,0.0,0.0,0.0,0.0,0.0,0.0,0.0,0.0,0.0,0.0,0.0,0.0,0.0,0.0,0.0,0.0,0.0,0.0,0.0,0.0,0.0,0.0,0.0,0.0,0.0,0.0,0.0,0.0,0.0,0.0,0.0,0.0,0.0,0.0,0.0,0.0,0.0,0.0,0.0,0.0,0.0,0.0,0.0,0.0,0.0,0.0,0.0,0.0,0.0,0.0,0.0,0.0,0.0,0.0,0.0,0.0,0.0,0.0,0.0,0.0,0.0,0.0,0.0,0.0,0.0,0.0,0.0,0.0,0.0,0.0,0.0,0.0,0.0,0.0,0.0,0.0,0.0,0.0,0.0,0.0,0.0,0.0,0.0,0.0,0.0,0.0,0.0,0.0,0.0,0.0,0.0,0.0,0.0,0.0,0.0,0.0,0.0,0.0,0.0,0.0,0.0,0.0,0.0,0.0,0.0,0.0,0.0,0.0,0.0,0.0,0.0,0.0,0.0,0.0,0.0,0.0,0.0,0.0,0.0,0.0,0.0,0.0,0.0,0.0,0.0,0.0,0.0,0.0,0.0,0.0,0.0,0.0,0.0,0.0,0.0,0.0,0.0,0.0,0.0,0.0,0.0,0.0,0.0,0.0,0.0,0.0,0.0,0.0,0.0,0.0,0.0,0.0,0.0,0.0,0.0,0.0,0.0,0.0,0.0,0.0,0.0,0.0,0.0,0.0,0.0,0.0,0.0,0.0,0.0,0.0,0.0,0.0,0.0,0.0,0.0,0.0,0.0,0.0,0.0,0.0,0.0,0.0,0.0,0.0,0.0,0.0,0.0,0.0,0.0,0.0,0.0,0.0,0.0,0.0,0.0,0.0,0.0,0.0,0.0,0.0,0.0,0.0,0.0,0.0,0.0,0.0,0.0,0.0,0.0,0.0,0.0,0.0,0.0,0.0,0.0,0.0,0.0,0.0,0.0,0.0,0.0,0.0,0.0,0.0,0.0,0.0,0.0,0.0,0.0,0.0,0.0,0.0,0.0,0.0,0.0,0.0,0.0,0.0,0.0,0.0,0.0,0.0,0.0,0.0,0.0,0.0,0.0,0.0,0.0,0.0,0.0,0.0,0.0,0.0,0.0,0.0,0.0,0.0,0.0,0.0,0.0,0.0,0.0,0.0,0.0,0.0,0.0,0.0,0.0,0.0,0.0,0.0,0.0,0.0,0.0,0.0,0.0,0.0,0.0,0.0,0.0,0.0,0.0,0.0,0.0,0.0,0.0,0.0,0.0,0.0,0.0,0.0,0.0,0.0,0.0,0.0,0.0,0.0,0.0,0.0,0.0,0.0,0.0,0.0,0.0,0.0,0.0,0.0,0.0,0.0,0.0,0.0,0.0,0.0,0.0,0.0,0.0,0.0,0.0,0.0,0.0,0.0,0.0,0.0,0.0,0.0,0.0,0.0,0.0,0.0,0.0,0.0,0.0,0.0,0.0,0.0,0.0,0.0,0.0,0.0,0.0,0.0,0.0,0.0,0.0,0.0,0.0,0.0,0.0,0.0,0.0,0.0,0.0,0.0,0.0,0.0,0.0,0.0,0.0,0.0,0.0,0.0,0.0,0.0,0.0,0.0,0.0,0.0,0.0,0.0,0.0,0.0,0.0,0.0,0.0,0.0,0.0,0.0,0.0,0.0,0.0,0.0,0.0,0.0,0.0,0.0,0.0,0.0,0.0,0.0,0.0,0.0,0.0,0.0,0.0,0.0,0.0,0.0,0.0,0.0,0.0,0.0,0.0,0.0,0.0,0.0,0.0,0.0,0.0,0.0,0.0,0.0,0.0,0.0,0.0,0.0,0.0,0.0,0.0,0.0,0.0,0.0,0.0,0.0,0.0,0.0,0.0,0.0,0.0,0.0,0.0,0.0,0.0,0.0,0.0,0.0,0.0,0.0,0.0,0.0,0.0,0.0,0.0,0.0,0.0,0.0,0.0,0.0,0.0,0.0,0.0,0.0,0.0,0.0,0.0,0.0,0.0,0.0,0.0,0.0,0.0,0.0,0.0,0.0,0.0,0.0,0.0,0.0,0.0,0.0,0.0,0.0,0.0,0.0,0.0,0.0,0.0,0.0,0.0,0.0,0.0,0.0,0.0,0.0,0.0,0.0,0.0,0.0,0.0,0.0,0.0,0.0,0.0,0.0,0.0,0.0,0.0,0.0,0.0,0.0,0.0,0.0,0.0,0.0,0.0,0.0,0.0,0.0,0.0,0.0,0.0,0.0,0.0,0.0,0.0,0.0,0.0,0.0,0.0,0.0,0.0,0.0,0.0,0.0,0.0,0.0,0.0,0.0,0.0,0.0,0.0,0.0,0.0,0.0,0.0,0.0,0.0,0.0,0.0,0.0,0.0,0.0,0.0,0.0,0.0,0.0,0.0,0.0,0.0,0.0,0.0,0.0,0.0,0.0,0.0,0.0,0.0,0.0,0.0,0.0,0.0,0.0,0.0,0.0,0.0,0.0,0.0,0.0,0.0,0.0,0.0,0.0,0.0,0.0,0.0,0.0,0.0,0.0,0.0,0.0,0.0,0.0,0.0,0.0,0.0,0.0,0.0,0.0,0.0,0.0,0.0,0.0,0.0,0.0,0.0,0.0,0.0,0.0,0.0,0.0,0.0,0.0,0.0,0.0,0.0,0.0,0.0,0.0,0.0,0.0,0.0,0.0,0.0,0.0,0.0,0.0,0.0,0.0,0.0,0.0,0.0,0.0,0.0,0.0,0.0,0.0,0.0,0.0,0.0,0.0,0.0,0.0,0.0,0.0,0.0,0.0,0.0,0.0,0.0,0.0,0.0,0.0,0.0,0.0,0.0,0.0,0.0,0.0,0.0,0.0,0.0,0.0,0.0,0.0,0.0,0.0,0.0,0.0,0.0,0.0,0.0,0.0,0.0,0.0,0.0,0.0,0.0,0.0,0.0,0.0,0.0,0.0,0.0,0.0,0.0,0.0,0.0,0.0,0.0,0.0,0.0,0.0,0.0,0.0,0.0,0.0,0.0,0.0,0.0,0.0,0.0,0.0,0.0,0.0,0.0,0.0,0.0,0.0,0.0,0.0,0.0,0.0,0.0,0.0,0.0,0.0,0.0,0.0,0.0,0.0,0.0,0.0,0.0,0.0,0.0,0.0,0.0,0.0,0.0,0.0,0.0,0.0,0.0,0.0,0.0,0.0,0.0,0.0,0.0,0.0,0.0,0.0,0.0,0.0,0.0,0.0,0.0,0.0,0.0,0.0,0.0,0.0,0.0,0.0,0.0,0.0,0.0,0.0,0.0,0.0,0.0,0.0,0.0,0.0,0.0,0.0,0.0,0.0,0.0,0.0,0.0,0.0,0.0,0.0,0.0,0.0,0.0,0.0,0.0,0.0,0.0,0.0,0.0,0.0,0.0,0.0,0.0,0.0,0.0,0.0,0.0,0.0,0.0,0.0,0.0,0.0,0.0,0.0,0.0,0.0,0.0,0.0]}]]]